     2              OBSERVATION DATA    GPS                 RINEX VERSION / TYPE
teqc 1997Jul24 19970902 21:12:29UTC                         PGM / RUN BY / DATE
                                                            COMMENT
BIT 2 OF LLI FLAGS DATA COLLECTED UNDER A-S CONDITION       COMMENT
BIT 2 OF LLI FLAGS DATA COLLECTED UNDER A-S CONDITION       COMMENT
Original Marker Name: 55455.SAND                            COMMENT
Campaign Name: Salt. Tr. Crust. Monit. May-Jun 1986         COMMENT
4-Character Station Name: SAND                              COMMENT
6-Character Antenna Code: TI4100                            COMMENT
Vertical Measurement Point: PAE                             COMMENT
Vertical Offset to Rinex Ref. Point: 0.0000                 COMMENT
Radial Measurement Point: RRP                               COMMENT
Radial Offset to Rinex Ref. Point: 0.0000                   COMMENT
Antenna Height from Field Measurement: 1.2270 m             COMMENT
Original XYZ: -2337013.7104 -4728587.9163 3573986.5301      COMMENT
New XYZ position is based on association with SCEC monument COMMENT
E1F2G8K4+0012. Position of that monument is believed to be  COMMENT
valid to within 1 m horizontally; vertical accuracy         COMMENT
should be no worse than 3-times this value.                 COMMENT
                                                            COMMENT
Revised Rinex header created by UCSD GPS archive for        COMMENT
GSAC on 14-Apr-1999 (1999:104) 17:48:53 GMT                 COMMENT
For assistance contact dagnew@ucsd.edu or hjohnson@ucsd.edu COMMENT
                                                            COMMENT
SAND HILL 1939 1981                                         MARKER NAME
5 NATIONAL GEODETIC SURVEY                                  OBSERVER / AGENCY
UT-16 TI 4100 1.0                                           REC # / TYPE / VERS
4011 TI 4100                                                ANT # / TYPE
 -2336820.0000 -4732587.0000  3570330.0000                  APPROX POSITION XYZ
        1.2270        0.0000        0.0000                  ANTENNA: DELTA H/E/N
     1     1     0                                          WAVELENGTH FACT L1/2
     4    P1    P2    L1    L2                              # / TYPES OF OBSERV
     6                                                      INTERVAL
  1986     6    10    23    25   35.000000                  TIME OF FIRST OBS
  1986     6    11     1    14   47.000000                  TIME OF LAST OBS
     0                                                      # OF SATELLITES
                                                            END OF HEADER
 86  6 10 23 25 34.7200000  0  1G11
  21801051.416    21801061.361      150749.936 9    -18930.375 9
 86  6 10 23 27  5.0800000  0  1G11
  21763669.979    21763671.884      -45688.156 9   -171998.923 7
 86  6 10 23 27 11.0800000  0  1G11
  21761220.393    21761221.249      -58568.324 8   -182035.428 8
 86  6 10 23 27 17.0800000  0  1G11
  21758773.034    21758774.561      -71427.993 9   -192055.944 8
 86  6 10 23 27 23.0800000  0  1G11
  21756329.468    21756330.162      -84267.155 8   -202060.487 8
 86  6 10 23 27 29.0800000  0  1G11
  21753889.695    21753892.601      -97085.799 8   -212049.030 9
 86  6 10 23 27 35.0800000  0  1G11
  21751454.303    21751456.478     -109883.930 9   -222021.588 7
 86  6 10 23 27 41.0800000  0  1G11
  21749023.706    21749026.217     -122661.564 9   -231978.175 8
 86  6 10 23 27 47.0800000  0  1G11
  21746595.935    21746596.902     -135418.718 9   -241918.819 7
 86  6 10 23 27 53.0800000  0  1G11
  21744172.296    21744174.701     -148155.318 9   -251843.432 8
 86  6 10 23 27 59.0800000  0  1G11
  21741751.811    21741753.778     -160871.365 8   -261752.044 7
 86  6 10 23 28 23.0800000  0  1G 6
                  21480642.597     -915916.802 9
 86  6 10 23 28 29.0800000  0  1G 6
                  21479023.832     -924428.206 9
 86  6 10 23 28 35.0800000  0  1G 6
                  21477403.660     -932930.879 9
 86  6 10 23 28 41.0800000  0  3G 6G 8G11
                  21475817.677     -941425.037 9
                  21388865.177     -828670.009 8
                  21724894.397     -967422.540 9
 86  6 10 23 28 47.0800000  0  4G 6G 8G 9G11
  21474202.940    21474202.912     -949910.181 9   1450223.666 8
                  21390636.592     -819380.801 9
                  23902209.269    -1015684.593 9
                  21722512.802     -979973.632 9
 86  6 10 23 28 53.0800000  0  4G 6G 8G 9G11
  21472590.654    21472590.373     -958386.534 9   1443618.596 9
                  21392433.274     -810066.888 8
                  23898883.818    -1033148.929 9
                  21720150.209     -992504.245 8
 86  6 10 23 28 59.0800000  0  4G 6G 8G 9G11
  21470979.263    21470979.596     -966854.153 9   1437020.958 9
  21394208.882    21394212.416     -800727.824 9   1537565.927 8
                  23895583.693    -1050614.566 8
  21717770.791    21717773.516    -1005013.869 8   1530693.030 9
 86  6 10 23 29  5.0800000  0  4G 6G 8G 9G11
  21469370.145    21469370.561     -975312.909 9   1430429.713 8
  21395992.283    21395993.712     -791363.861 9   1544862.519 8
  23892260.408    23892264.005    -1068079.894 8   1576155.945 8
  21715394.559    21715394.679    -1017502.738 9   1520961.450 7
 86  6 10 23 29 11.0800000  0  4G 6G 8G 9G11
  21467760.906    21467761.919     -983762.818 9   1423845.372 9
  21397778.768    21397779.758     -781974.992 9   1552178.523 8
  23888936.169    23888938.310    -1085545.741 9   1562546.229 8
  21713019.786    21713022.352    -1029970.828 8   1511245.551 8
 86  6 10 23 29 17.0800000  0  4G 6G 8G 9G11
  21466154.858    21466156.027     -992203.933 9   1417267.883 9
  21399570.565    21399570.409     -772561.293 9   1559513.881 8
  23885612.505    23885614.359    -1103012.099 9   1548936.085 8
  21710652.244    21710654.224    -1042418.131 9   1501546.371 7
 86  6 10 23 29 23.0800000  0  4G 6G 8G 9G11
  21464550.780    21464550.758    -1000636.238 9   1410697.256 9
  21401366.350    21401366.689     -763122.747 9   1566868.580 8
  23882288.945    23882289.841    -1120478.863 9   1535325.627 8
  21708288.241    21708289.181    -1054844.684 9   1491863.344 8
 86  6 10 23 29 29.0800000  0  4G 6G 8G 9G11
  21462947.563    21462947.931    -1009059.578 9   1404133.615 9
  21403166.681    21403168.508     -753659.345 9   1574242.662 8
  23878965.473    23878967.047    -1137945.961 9   1521714.916 8
  21705927.225    21705927.592    -1067250.456 9   1482196.517 6
 86  6 10 23 29 35.0800000  0  4G 6G 8G 9G11
  21461346.181    21461346.706    -1017474.012 9   1397576.916 9
  21404973.234    21404973.380     -744171.137 9   1581636.074 8
  23875640.729    23875641.790    -1155413.475 9   1508103.864 9
  21703569.127    21703571.903    -1079635.433 8   1472545.891 7
 86  6 10 23 29 41.0800000  0  4G 6G 8G 9G11
  21459747.407    21459748.043    -1025879.597 9   1391027.116 9
  21406782.834    21406784.407     -734658.158 9   1589048.778 8
  23872317.929    23872318.721    -1172881.432 8   1494492.485 8
  21701217.297    21701216.758    -1091999.596 9   1462911.478 7
 86  6 10 23 29 47.0800000  0  4G 6G 8G 9G11
  21458149.164    21458150.039    -1034276.233 9   1384484.274 8
  21408598.179    21408599.850     -725120.392 9   1596480.801 9
  23868994.141    23868994.450    -1190349.804 9   1480880.769 8
  21698868.577    21698869.601    -1104342.950 8   1453293.276 8
 86  6 10 23 29 53.0800000  0  4G 6G 8G 9G11
  21456553.092    21456554.067    -1042663.935 9   1377948.396 8
  21410417.372    21410418.541     -715557.935 9   1603932.072 8
  23865668.713    23865670.390    -1207818.630 9   1467268.708 8
  21696522.879    21696524.974    -1116665.450 9   1443691.323 8
 86  6 10 23 29 59.0800000  0  4G 6G 8G 9G11
  21454957.994    21454957.946    -1051042.692 9   1371419.515 9
  21412241.807    21412241.767     -705970.722 9   1611402.628 8
  23862344.075    23862346.079    -1225287.831 9   1453656.349 8
  21694182.411    21694185.148    -1128967.126 9   1434105.621 7
 86  6 10 23 30  5.0800000  0  4G 6G 8G 9G11
  21453365.384    21453366.392    -1059412.470 9   1364897.590 8
  21414070.160    21414071.471     -696358.798 9   1618892.433 9
  23859020.994    23859022.443    -1242757.424 9   1440043.690 9
  21691846.148    21691847.179    -1141247.855 9   1424536.228 8
 86  6 10 23 30 11.0800000  0  4G 6G 8G 9G11
  21451774.991    21451774.895    -1067773.268 9   1358382.688 8
  21415904.952    21415905.939     -686722.172 9   1626401.488 9
  23855695.140    23855697.249    -1260227.361 9   1426430.762 8
  21689513.131    21689513.497    -1153507.684 9   1414983.109 7
 86  6 10 23 30 17.0800000  0  4G 6G 8G 9G11
  21450184.917    21450185.175    -1076125.088 9   1351874.779 8
  21417743.467    21417745.323     -677060.873 9   1633929.772 8
  23852371.819    23852372.703    -1277697.628 9   1412817.567 9
  21687183.584    21687185.454    -1165746.619 9   1405446.287 7
 86  6 10 23 30 23.0800000  0  4G 6G 8G 9G11
  21448597.742    21448597.438    -1084467.902 9   1345373.892 8
  21419587.243    21419587.720     -667374.938 9   1641477.252 8
  23849046.629    23849047.722    -1295168.301 9   1399204.072 8
  21684859.199    21684859.923    -1177964.683 8   1395925.723 8
 86  6 10 23 30 29.0800000  0  4G 6G 8G 9G11
  21447011.629    21447012.864    -1092801.607 9   1338880.091 9
  21421434.281    21421435.896     -657664.340 9   1649043.962 8
  23845722.595    23845723.748    -1312639.291 9   1385590.326 8
  21682538.171    21682539.069    -1190161.823 9   1386421.464 8
 86  6 10 23 30 35.0800000  0  4G 6G 8G 9G11
  20956436.175    20956436.995    -1101118.760 9   1332379.178 8
  20934296.647    20934296.990     -647916.665 9   1656619.517 8
  23353405.492    23353407.374    -1330105.515 9   1371960.252 8
  21191228.052    21191230.886    -1202331.533 9   1376918.546 7
 86  6 10 23 30 41.0800000  0  4G 6G 8G 9G11
  20954854.297    20954854.910    -1109434.419 9   1325899.443 9
  20936153.307    20936155.325     -638156.840 8   1664224.582 8
  23350081.481    23350083.062    -1347577.128 9   1358346.023 8
  21188915.794    21188918.437    -1214486.726 9   1367446.981 7
 86  6 10 23 30 47.0800000  0  4G 6G 8G 9G11
  20953273.565    20953275.034    -1117740.998 9   1319426.778 9
  20938014.904    20938017.293     -628372.443 9   1671848.787 8
  23346757.248    23346758.650    -1365049.074 9   1344731.528 8
  21186607.034    21186608.252    -1226620.956 9   1357991.733 8
 86  6 10 23 30 53.0800000  0  4G 6G 8G 9G11
  20951694.108    20951695.642    -1126038.524 9   1312961.175 8
  20939881.696    20939883.670     -618563.522 9   1679492.099 9
  23343431.598    23343433.115    -1382521.304 9   1331116.809 8
  21184301.909    21184303.544    -1238734.216 9   1348552.838 6
 86  6 10 23 30 59.0800000  0  4G 6G 8G 9G11
  20950117.404    20950117.211    -1134326.841 9   1306502.747 8
  20941752.564    20941755.026     -608730.004 9   1687154.578 8
  23340106.808    23340108.046    -1399993.810 9   1317501.875 8
  21182001.106    21182003.092    -1250826.446 9   1339130.310 7
 86  6 10 23 31  5.0800000  0  4G 6G 8G 9G11
  20948541.385    20948542.819    -1142606.117 9   1300051.369 9
  20943629.401    20943630.275     -598871.941 9   1694836.197 8
  23336781.587    23336783.319    -1417466.687 9   1303886.661 8
  21179703.904    21179704.902    -1262897.662 9   1329724.200 7
 86  6 10 23 31 11.0800000  0  4G 6G 8G 9G11
  20946967.742    20946968.515    -1150876.217 9   1293607.130 9
  20945509.471    20945511.360     -588989.404 9   1702536.869 9
  23333457.055    23333458.005    -1434939.736 9   1290271.301 9
  21177410.952    21177410.999    -1274947.826 9   1320334.449 8
 86  6 10 23 31 17.0800000  0  4G 6G 8G 9G11
  20945395.820    20945397.086    -1159137.133 9   1287170.060 8
  20947394.766    20947396.023     -579082.376 8   1710256.616 8
  23330130.997    23330132.342    -1452412.968 9   1276655.809 8
  21175121.599    21175123.269    -1286976.926 9   1310961.135 7
 86  6 10 23 31 23.0800000  0  4G 6G 8G 9G11
  20943825.519    20943827.253    -1167388.822 9   1280740.170 9
  20949284.594    20949286.211     -569150.878 9   1717995.449 9
  23326806.449    23326808.130    -1469886.407 9   1263040.143 8
  21172836.593    21172838.868    -1298984.966 9   1301604.225 7
 86  6 10 23 31 29.0800000  0  4G 6G 8G 9G11
  20942256.702    20942259.030    -1175631.302 9   1274317.457 8
  20951179.031    20951181.004     -559194.933 9   1725753.326 8
  23323481.837    23323483.469    -1487360.146 9   1249424.253 8
  21170555.260    21170557.286    -1310971.919 9   1292263.750 7
 86  6 10 23 31 35.0800000  0  4G 6G 8G 9G11
  20940690.824    20940691.197    -1183864.604 9   1267901.897 8
  20953078.604    20953079.949     -549214.522 9   1733530.274 8
  23320156.560    23320158.426    -1504834.072 9   1235808.219 8
  21168277.913    21168280.306    -1322937.763 9   1282939.716 7
 86  6 10 23 31 41.0800000  0  4G 6G 8G 9G11
  20939125.017    20939127.253    -1192088.673 9   1261493.539 9
  20954982.313    20954984.244     -539209.712 9   1741326.224 7
  23316831.361    23316833.149    -1522308.284 9   1222191.956 8
  21166005.667    21166006.736    -1334882.519 8   1273632.128 8
 86  6 10 23 31 47.0800000  0  4G 6G 8G 9G11
  20937562.647    20937563.652    -1200303.501 9   1255092.375 9
  20956890.587    20956893.263     -529180.520 9   1749141.181 9
  23313506.256    23313506.729    -1539782.682 9   1208575.542 8
  21163737.620    21163737.346    -1346806.150 8   1264340.979 8
 86  6 10 23 31 53.0800000  0  4G 6G 8G 9G11
  20936001.688    20936000.598    -1208509.132 9   1248698.378 8
  20958803.783    20958804.569     -519126.971 9   1756975.117 8
  23310179.976    23310181.693    -1557257.269 9   1194958.991 9
  21161471.126    21161472.776    -1358708.655 8   1255066.301 7
 86  6 10 23 31 59.0800000  0  4G 6G 8G 9G11
  20934441.117    20934441.883    -1216705.466 9   1242311.626 9
  20960721.271    20960723.633     -509049.090 9   1764828.012 8
  23306855.650    23306856.638    -1574731.974 9   1181342.333 9
  21159210.878    21159211.382    -1370590.045 9   1245808.091 7
 86  6 10 23 32  5.0800000  0  4G 6G 8G 9G11
  20932883.233    20932884.174    -1224892.504 8   1235932.105 8
  20962643.782    20962645.442     -498946.859 9   1772699.869 9
  23303529.615    23303530.773    -1592206.809 9   1167725.595 8
  21156954.358    21156954.389    -1382450.299 9   1236566.334 8
 86  6 10 23 32 11.0800000  0  4G 6G 8G 9G11
  20931327.298    20931328.632    -1233070.245 9   1229559.849 8
  20964571.245    20964572.518     -488820.334 9   1780590.668 8
  23300203.880    23300205.955    -1609681.968 8   1154108.593 8
  21154700.957    21154701.824    -1394289.356 9   1227341.108 7
 86  6 10 23 32 17.0800000  0  4G 6G 8G 9G11
  20929772.886    20929773.327    -1241238.679 9   1223194.838 8
  20966502.556    20966504.116     -478669.519 9   1788500.386 7
  23296878.502    23296880.419    -1627157.218 9   1140491.517 8
  21152452.488    21152451.546    -1406107.224 9   1218132.378 7
 86  6 10 23 32 23.0800000  0  4G 6G 8G 9G11
  20928220.293    20928220.696    -1249397.822 8   1216837.066 8
  20968438.547    20968440.951     -468494.466 9   1796428.994 9
  23293552.438    23293554.406    -1644632.643 9   1126874.305 9
  21150207.047    21150208.345    -1417903.994 9   1208940.090 7
 86  6 10 23 32 29.0800000  0  4G 6G 8G 9G11
  20926669.350    20926669.527    -1257547.579 9   1210486.603 8
  20970379.689    20970381.878     -458295.149 9   1804376.513 9
  23290228.112    23290229.007    -1662108.228 9   1113256.976 9
  21147965.852    21147966.532    -1429679.541 9   1199764.341 8
 86  6 10 23 32 35.0800000  0  4G 6G 8G 9G11
  20925119.959    20925121.247    -1265688.021 9   1204143.407 9
  20972324.680    20972327.242     -448071.599 9   1812342.923 8
  23286902.919    23286903.743    -1679583.953 9   1099639.540 8
  21145729.512    21145730.481    -1441433.867 9   1190605.137 8
 86  6 10 23 32 41.0800000  0  4G 6G 8G 9G11
  20923573.744    20923572.698    -1273818.995 9   1197807.575 8
  20974276.024    20974276.469     -437823.798 9   1820328.213 7
  23283576.655    23283578.988    -1697059.660 8   1086022.112 9
  21143497.284    21143497.345    -1453166.971 9   1181462.459 7
 86  6 10 23 32 47.0800000  0  4G 6G 8G 9G11
  20922027.217    20922027.925    -1281940.642 9   1191479.034 9
  20976229.831    20976232.019     -427551.862 8   1828332.318 8
  23280251.243    23280252.337    -1714535.493 9   1072404.589 9
  21141268.287    21141269.054    -1464878.874 9   1172336.306 7
 86  6 10 23 32 53.0800000  0  4G 6G 8G 9G11
  20920483.945    20920484.589    -1290052.876 9   1185157.798 8
  20978188.815    20978190.347     -417255.763 9   1836355.261 9
  23276925.964    23276927.653    -1732011.447 9   1058786.971 9
  21139043.072    21139044.107    -1476569.528 9   1163226.717 7
 86  6 10 23 32 59.0800000  0  4G 6G 8G 9G11
  20918941.739    20918942.803    -1298155.633 9   1178843.968 7
  20980152.451    20980153.825     -406935.518 9   1844397.014 9
  23273600.673    23273601.790    -1749487.485 9   1045169.298 9
  21136822.418    21136824.584    -1488238.849 8   1154133.735 7
 86  6 10 23 33  5.0800000  0  4G 6G 8G 9G11
  20917402.299    20917402.536    -1306248.961 9   1172537.486 9
  20982121.811    20982123.629     -396591.142 9   1852457.559 8
  23270274.609    23270275.811    -1766963.544 9   1031551.579 8
  21134605.873    21134606.364    -1499886.854 9   1145057.383 7
 86  6 10 23 33 11.0800000  0  4G 6G 8G 9G11
  20915863.112    20915863.958    -1314332.877 9   1166238.326 9
  20984095.134    20984096.179     -386222.646 9   1860536.905 8
  23266948.609    23266950.554    -1784439.651 9   1017933.841 9
  21132393.333    21132395.242    -1511513.633 8   1135997.550 7
 86  6 10 23 33 17.0800000  0  4G 6G 8G 9G11
  20914327.082    20914327.918    -1322407.268 9   1159946.596 8
  20986072.464    20986073.623     -375830.067 9   1868635.018 8
  23263622.429    23263624.448    -1801915.823 9   1004316.068 9
  21130184.566    21130187.284    -1523119.053 8   1126954.370 7
 86  6 10 23 33 23.0800000  0  4G 6G 8G 9G11
  20912792.034    20912792.432    -1330472.145 9   1153662.288 9
  20988054.846    20988056.505     -365413.402 9   1876751.893 8
  23260297.095    23260298.898    -1819392.011 9    990698.260 8
  21127980.492    21127981.940    -1534703.110 9   1117927.839 8
 86  6 10 23 33 29.0800000  0  4G 6G 8G 9G11
  20911260.017    20911259.231    -1338527.510 8   1147385.373 7
  20990041.933    20990042.935     -354972.663 9   1884887.538 9
  23256971.546    23256972.941    -1836868.285 9    977080.394 9
  21125779.723    21125782.806    -1546265.807 9   1108917.947 8
 86  6 10 23 33 35.0800000  0  4G 6G 8G 9G11
  20909728.368    20909729.152    -1346573.368 9   1141115.879 9
  20992033.473    20992034.201     -344507.949 9   1893041.857 8
  23253646.526    23253648.343    -1854344.480 9    963462.574 8
  21123583.456    21123585.960    -1557807.107 9   1099924.737 7
 86  6 10 23 33 41.0800000  0  4G 6G 8G 9G11
  20908198.673    20908199.096    -1354609.687 9   1134853.811 8
  20994029.232    20994029.590     -334019.186 9   1901214.916 8
  23250320.276    23250322.444    -1871820.663 9    949844.780 8
  21121392.453    21121392.696    -1569327.091 9   1090948.130 8
 86  6 10 23 33 47.0800000  0  4G 6G 8G 9G11
  20906671.467    20906671.915    -1362636.421 9   1128599.214 9
  20996029.500    20996031.189     -323506.414 9   1909406.684 9
  23246994.869    23246996.908    -1889296.913 9    936226.931 8
  21119203.257    21119205.325    -1580825.706 9   1081988.177 7
 86  6 10 23 33 53.0800000  0  4G 6G 8G 9G11
  20905145.510    20905145.496    -1370653.571 9   1122352.092 8
  20998035.190    20998036.478     -312969.637 9   1917617.156 8
  23243669.234    23243670.902    -1906773.088 8    922609.145 9
  21117019.699    21117020.084    -1592302.887 9   1073044.920 7
 86  6 10 23 33 59.0800000  0  4G 6G 8G 9G11
  20903621.111    20903622.722    -1378661.146 9   1116112.422 8
  21000043.830    21000045.604     -302408.935 9   1925846.278 8
  23240343.271    23240345.031    -1924249.203 9    908991.403 9
  21114839.716    21114840.456    -1603758.622 9   1064118.370 7
 86  6 10 23 34  5.0800000  0  4G 6G 8G 9G11
  20902099.856    20902100.319    -1386659.131 9   1109880.231 8
  21002058.492    21002059.936     -291824.335 9   1934094.017 9
  23237018.730    23237020.232    -1941725.378 8    895373.610 9
  21112664.471    21112666.345    -1615192.999 9   1055208.478 7
 86  6 10 23 34 11.0800000  0  4G 6G 8G 9G11
  20900579.830    20900580.838    -1394647.476 9   1103655.548 9
  21004078.333    21004078.534     -281215.827 9   1942360.391 8
  23233693.466    23233694.604    -1959201.428 8    881755.921 9
  21110492.682    21110492.858    -1626605.923 9   1046315.299 7
 86  6 10 23 34 17.0800000  0  4G 6G 8G 9G11
  20899061.620    20899062.764    -1402626.167 9   1097438.382 9
  21006101.082    21006101.167     -270583.389 9   1950645.410 9
  23230366.272    23230369.012    -1976677.339 9    868138.324 8
  21108324.153    21108326.061    -1637997.370 8   1037438.855 8
 86  6 10 23 34 23.0800000  0  4G 6G 8G 9G11
  20897545.239    20897545.884    -1410595.214 9   1091228.738 9
  21008127.851    21008129.983     -259927.109 9   1958948.998 8
  23227040.980    23227043.698    -1994153.300 9    854520.710 8
  21106160.810    21106161.948    -1649367.376 9   1028579.098 7
 86  6 10 23 34 29.0800000  0  4G 6G 8G 9G11
  20896030.028    20896031.384    -1418554.636 9   1085026.596 9
  21010161.314    21010161.400     -249246.978 9   1967271.176 9
  23223715.623    23223718.542    -2011629.098 9    840903.215 9
  21104001.184    21104001.293    -1660715.926 8   1019736.095 8
 86  6 10 23 34 35.0800000  0  4G 6G 8G 9G11
  20894517.904    20894518.272    -1426504.312 9   1078832.038 8
  21012197.684    21012198.427     -238542.975 9   1975611.958 8
  23220390.018    23220391.949    -2029104.751 8    827285.821 9
  21101846.199    21101847.312    -1672043.043 9   1010909.771 7
 86  6 10 23 34 41.0800000  0  4G 6G 8G 9G11
  20893007.586    20893006.700    -1434444.311 9   1072645.041 9
  21014239.119    21014240.579     -227815.215 9   1983971.245 8
  23217064.426    23217066.292    -2046580.290 9    813668.528 9
  21099694.346    21099696.046    -1683348.668 7   1002100.202 8
 86  6 10 23 34 47.0800000  0  4G 6G 8G 9G11
  20891498.889    20891498.260    -1442374.550 9   1066465.631 8
  21016285.419    21016286.765     -217063.685 8   1992349.068 8
  23213739.641    23213741.751    -2064055.864 9    800051.207 8
  21097546.558    21097548.950    -1694632.759 9    993307.391 7
 86  6 10 23 34 53.0800000  0  4G 6G 8G 9G11
  20889990.687    20889991.302    -1450295.092 9   1060293.788 8
  21018335.826    21018336.356     -206288.333 9   2000745.441 8
  23210414.179    23210414.621    -2081531.186 9    786434.082 9
  21095404.493    21095405.549    -1705895.345 8    984531.362 8
 86  6 10 23 34 59.0800000  0  4G 6G 8G 9G11
  20888485.692    20888485.746    -1458205.863 9   1054129.542 9
  21020389.997    21020391.384     -195489.215 9   2009160.337 8
  23207088.744    23207089.874    -2099006.294 9    772817.110 8
  21093264.260    21093266.188    -1717136.379 9    975772.125 8
 86  6 10 23 35  5.0800000  0  4G 6G 8G 9G11
  20886982.085    20886982.865    -1466106.828 9   1047972.956 8
  21022450.190    21022450.591     -184666.350 9   2017593.736 9
  23203763.345    23203765.591    -2116481.291 9    759200.254 9
  21091129.943    21091130.498    -1728355.836 9    967029.688 8
 86  6 10 23 35 11.0800000  0  4G 6G 8G 9G11
  20885479.756    20885480.826    -1473998.067 9   1041823.937 8
  21024513.577    21024515.292     -173819.812 9   2026045.586 8
  23200438.339    23200439.461    -2133956.171 9    745583.460 9
  21088999.119    21089000.292    -1739553.748 9    958304.049 7
 86  6 10 23 35 17.0800000  0  4G 6G 8G 9G11
  20883980.758    20883980.818    -1481879.463 9   1035682.584 9
  21026582.799    21026584.487     -162949.582 9   2034515.893 8
  23197111.651    23197113.999    -2151430.835 8    731966.847 9
  21086871.417    21086873.263    -1750730.042 8    949595.260 8
 86  6 10 23 35 23.0800000  0  4G 6G 8G 9G11
  20882482.035    20882483.501    -1489751.028 9   1029548.899 9
  21028655.930    21028655.571     -152055.681 9   2043004.643 9
  23193786.710    23193789.151    -2168905.263 9    718350.423 8
  21084748.409    21084750.454    -1761884.722 8    940903.286 8
 86  6 10 23 35 29.0800000  0  4G 6G 8G 9G11
  20880986.648    20880986.322    -1497612.768 9   1023422.882 9
  21030733.796    21030733.752     -141138.138 8   2051511.818 9
  23190461.390    23190464.474    -2186379.465 8    704734.162 8
  21082629.590    21082632.647    -1773017.872 9    932228.124 8
 86  6 10 23 35 35.0800000  0  4G 6G 8G 9G11
  20879491.989    20879492.722    -1505464.658 9   1017304.525 8
  21032815.969    21032815.225     -130196.977 9   2060037.400 8
  23187136.813    23187138.380    -2203853.583 9    691117.985 8
  21080516.207    21080518.879    -1784129.364 9    923569.807 7
 86  6 10 23 35 41.0800000  0  4G 6G 8G 9G11
  20878000.810    20878000.156    -1513306.667 9   1011193.875 8
  21034901.877    21034903.366     -119232.163 9   2068581.407 9
  23183810.785    23183813.260    -2221327.396 8    677502.033 8
  21078405.119    21078408.077    -1795219.212 8    914928.387 7
 86  6 10 23 35 47.0800000  0  4G 6G 8G 9G11
  20876509.345    20876510.760    -1521138.799 9   1005090.911 8
  21036993.795    21036994.310     -108243.804 9   2077143.762 9
  23180486.202    23180488.506    -2238800.986 8    663886.255 9
  21076298.275    21076303.123    -1806287.447 8    906303.795 8
 86  6 10 23 35 53.0800000  0  4G 6G 8G 9G11
  20875021.214    20875021.493    -1528961.024 9    998995.670 8
  21039088.560    21039089.118      -97231.887 9   2085724.473 9
  23177161.375    23177162.914    -2256274.319 9    650270.686 9
  21074197.020    21074200.186    -1817334.030 9    897696.068 7
 86  6 10 23 35 59.0800000  0  4G 6G 8G 9G11
  20873534.650    20873535.354    -1536773.320 9    992908.171 9
  21041188.419    21041188.419      -86196.439 9   2094323.539 9
  23173835.919    23173838.173    -2273747.444 9    636655.269 8
  21072099.505    21072100.782    -1828359.033 9    889105.162 8
 86  6 10 23 36  5.0800000  0  4G 6G 8G 9G11
  20872050.046    20872050.861    -1544575.704 9    986828.397 9
  21043292.630    21043293.960      -75137.473 9   2102940.905 7
  23170510.920    23170512.744    -2291220.316 8    623040.060 8
  21070005.912    21070007.045    -1839362.334 9    880531.156 7
 86  6 10 23 36 11.0800000  0  4G 6G 8G 9G11
  20870566.780    20870567.112    -1552368.151 9    980756.363 9
  21045401.904    21045403.450      -64054.985 9   2111576.605 8
  23167186.001    23167187.761    -2308692.793 8    609425.148 8
  21067914.855    21067917.917    -1850343.926 8    871974.069 7
 86  6 10 23 36 17.0800000  0  4G 6G 8G 9G11
  20869086.386    20869086.576    -1560150.575 9    974692.136 8
  21047515.371    21047515.830      -52949.002 9   2120230.621 8
  23163860.837    23163863.192    -2326165.063 9    595810.411 9
  21065830.168    21065831.713    -1861303.832 8    863433.898 8
 86  6 10 23 36 23.0800000  0  4G 6G 8G 9G11
  20867605.989    20867607.628    -1567923.057 9    968635.658 8
  21049633.132    21049635.135      -41819.539 9   2128902.934 8
  23160536.655    23160538.086    -2343636.943 8    582195.966 9
  21063747.446    21063750.481    -1872241.978 9    854910.680 8
 86  6 10 23 36 29.0800000  0  4G 6G 8G 9G11
  20866129.267    20866129.753    -1575685.525 9    962586.982 9
  21051755.414    21051756.187      -30666.647 9   2137593.491 9
  23157212.451    23157213.366    -2361108.538 8    568581.742 9
  21061671.053    21061672.556    -1883158.413 9    846404.364 8
 86  6 10 23 36 35.0800000  0  4G 6G 8G 9G11
  20864654.357    20864654.669    -1583437.977 9    956546.114 8
  21053882.231    21053883.649      -19490.319 9   2146302.315 8
  23153887.889    23153889.021    -2378579.827 8    554967.758 9
  21059598.119    21059599.604    -1894053.146 9    837914.966 9
 86  6 10 23 36 41.0800000  0  4G 6G 8G 9G11
  20863181.115    20863180.814    -1591180.354 9    950513.096 8
  21056013.700    21056014.344       -8290.595 9   2155029.360 9
  23150562.167    23150564.772    -2396050.750 8    541354.074 8
  21057528.784    21057531.993    -1904926.138 9    829442.511 7
 86  6 10 23 36 47.0800000  0  4G 6G 8G 9G11
  20861709.362    20861711.199    -1598912.719 9    944487.879 9
  21058148.160    21058150.793        2932.479 9   2163774.626 8
  23147238.235    23147240.640    -2413521.306 9    527740.658 8
  21055463.417    21055464.536    -1915777.371 8    820987.012 7
 86  6 10 23 36 53.0800000  0  4G 6G 8G 9G11
  20860240.977    20860241.037    -1606635.053 9    938470.474 9
  21060289.874    21060290.417       14178.901 9   2172538.061 9
  23143913.631    23143915.227    -2430991.495 8    514127.534 9
  21053402.807    21053405.844    -1926606.800 9    812548.493 8
 86  6 10 23 36 59.0800000  0  4G 6G 8G 9G11
  20858772.603    20858772.928    -1614347.257 9    932460.967 9
  21062433.176    21062435.336       25448.684 9   2181319.712 8
  23140589.105    23140591.087    -2448461.310 9    500514.693 9
  21051346.070    21051349.424    -1937414.413 8    804126.977 9
 86  6 10 23 37  5.0800000  0  4G 6G 8G 9G11
  20857306.815    20857307.710    -1622049.365 9    926459.324 9
  21064583.017    21064584.691       36741.807 9   2190119.547 9
  23137264.499    23137267.204    -2465930.778 8    486902.145 9
  21049294.724    21049296.177    -1948200.248 8    795722.432 8
 86  6 10 23 37 11.0800000  0  4G 6G 8G 9G11
  20855843.568    20855844.106    -1629741.327 9    920465.589 8
  21066736.850    21066737.309       48058.254 9   2198937.553 9
  23133940.739    23133942.756    -2483399.799 9    473289.928 9
  21047245.128    21047247.675    -1958964.284 9    787334.873 8
 86  6 10 23 37 17.0800000  0  4G 6G 8G 9G11
  20854380.174    20854382.320    -1637423.188 9    914479.720 9
  21068894.019    21068895.020       59397.945 9   2207773.670 8
  23130616.850    23130617.838    -2500868.408 8    459678.031 8
  21045201.646    21045202.506    -1969706.493 7    778964.328 8
 86  6 10 23 37 23.0800000  0  4G 6G 8G 9G11
  20852922.140    20852922.039    -1645094.860 9    908501.800 9
  21071056.581    21071058.398       70760.843 9   2216627.885 9
  23127292.194    23127294.506    -2518336.555 8    446066.497 8
  21043159.843    21043165.600    -1980426.884 8    770610.786 8
 86  6 10 23 37 29.0800000  0  4G 6G 8G 9G11
  20851463.155    20851464.547    -1652756.416 9    902531.756 9
  21073223.007    21073224.724       82146.969 9   2225500.187 8
  23123968.970    23123970.438    -2535804.304 9    432455.272 9
  21041125.326    21041128.393    -1991125.430 9    762274.262 8
 86  6 10 23 37 35.0800000  0  4G 6G 8G 9G11
  20850007.622    20850008.998    -1660407.772 9    896569.662 8
  21075393.968    21075395.515       93556.296 9   2234390.572 8
  23120644.816    23120645.468    -2553271.578 8    418844.418 9
  21039093.238    21039096.421    -2001802.138 8    753954.751 8
 86  6 10 23 37 41.0800000  0  4G 6G 8G 9G11
  20848553.253    20848554.165    -1668048.911 9    890615.532 9
  21077569.538    21077570.969      104988.915 9   2243299.102 9
  23117320.885    23117322.022    -2570738.369 9    405233.931 9
  21037066.116    21037068.481    -2012456.936 9    745652.306 9
 86  6 10 23 37 47.0800000  0  4G 6G 8G 9G11
  20847100.791    20847102.368    -1675679.817 9    884669.371 9
  21079749.800    21079751.146      116444.657 9   2252225.651 8
  23113996.894    23113998.854    -2588204.705 9    391623.818 8
  21035042.957    21035044.989    -2023089.879 8    737366.919 7
 86  6 10 23 37 53.0800000  0  4G 6G 8G 9G11
  20845651.020    20845651.599    -1683300.492 9    878731.183 9
  21081933.670    21081935.759      127923.540 9   2261170.234 9
  23110673.521    23110674.960    -2605670.592 9    378014.035 8
  21033022.939    21033026.708    -2033700.938 9    729098.547 7
 86  6 10 23 37 59.0800000  0  4G 6G 8G 9G11
  20844202.475    20844203.047    -1690910.926 9    872800.974 9
  21084121.945    21084123.719      139425.522 9   2270132.825 9
  23107350.195    23107351.434    -2623135.957 9    364404.675 9
  21031008.870    21031011.292    -2044290.128 8    720847.244 8
 86  6 10 23 38  5.0800000  0  4G 6G 8G 9G11
  20842756.710    20842757.590    -1698511.153 9    866878.730 8
  21086315.659    21086316.746      150950.627 9   2279113.413 9
  23104026.936    23104027.716    -2640600.821 9    350795.698 9
  21028998.321    21029000.886    -2054857.346 8    712613.052 9
 86  6 10 23 38 11.0800000  0  4G 6G 8G 9G11
  20841311.836    20841313.335    -1706101.098 9    860964.487 9
  21088513.793    21088514.896      162498.789 9   2288111.984 8
  23100702.719    23100703.455    -2658065.150 9    337187.139 9
  21026991.053    21026994.204    -2065402.636 8    704395.946 8
 86  6 10 23 38 17.0800000  0  4G 6G 8G 9G11
  20839870.101    20839870.578    -1713680.724 9    855058.279 9
  21090715.463    21090716.822      174070.027 9   2297128.524 8
  23097379.537    23097381.519    -2675529.058 8    323578.912 9
  21024989.020    21024990.924    -2075925.974 9    696195.957 8
 86  6 10 23 38 23.0800000  0  4G 6G 8G 9G11
  20838429.234    20838430.736    -1721250.089 9    849160.083 7
  21092920.810    21092923.327      185664.263 9   2306163.001 9
  23094056.034    23094057.831    -2692992.435 8    309971.080 8
  21022989.280    21022991.941    -2086427.383 7    688013.037 8
 86  6 10 23 38 29.0800000  0  4G 6G 8G 9G11
  20836991.550    20836991.964    -1728809.122 9    843269.926 9
  21095131.537    21095134.471      197281.542 9   2315215.421 9
  23090734.590    23090734.463    -2710455.233 9    296363.717 8
  21020996.720    21020998.115    -2096906.818 9    679847.237 8
 86  6 10 23 38 35.0800000  0  4G 6G 8G 9G11
  20835554.070    20835555.587    -1736357.794 9    837387.844 9
  21097347.988    21097349.247      208921.795 9   2324285.754 8
  23087409.721    23087411.682    -2727917.449 8    282756.805 9
  21019005.889    21019008.504    -2107364.288 8    671698.574 9
 86  6 10 23 38 41.0800000  0  4G 6G 8G 9G11
  20834120.689    20834120.826    -1743896.051 9    831513.878 8
  21099567.373    21099567.572      220585.045 9   2333373.989 9
  23084087.027    23084089.417    -2745379.074 9    269150.341 8
  21017019.888    21017022.302    -2117799.762 8    663567.032 8
 86  6 10 23 38 47.0800000  0  4G 6G 8G 9G11
  20832686.876    20832688.132    -1751423.987 9    825647.959 8
  21101790.419    21101791.507      232271.226 9   2342480.113 7
  23080765.584    23080765.549    -2762840.100 8    255544.365 8
  21015039.773    21015040.340    -2128213.270 7    655452.618 7
 86  6 10 23 38 53.0800000  0  4G 6G 8G 9G11
  20831257.698    20831257.853    -1758941.456 9    819790.199 9
  21104018.676    21104019.877      243980.392 9   2351604.131 8
  23077441.659    23077443.362    -2780300.560 9    241938.819 8
  21013061.521    21013063.424    -2138604.763 8    647355.352 8
 86  6 10 23 38 59.0800000  0  4G 6G 8G 9G11
  20829828.461    20829829.065    -1766448.557 9    813940.499 9
  21106251.538    21106252.912      255712.398 9   2360745.958 9
  23074121.004    23074120.839    -2797760.427 8    228333.744 8
  21011087.836    21011090.784    -2148974.276 8    639275.214 7
 86  6 10 23 39  5.0800000  0  4G 6G 8G 9G11
  20828401.409    20828402.947    -1773945.284 9    808098.896 9
  21108488.466    21108489.409      267467.267 9   2369905.596 8
  23070797.286    23070798.760    -2815219.668 8    214729.144 9
  21009119.129    21009121.706    -2159321.752 8    631212.263 8
 86  6 10 23 39 11.0800000  0  4G 6G 8G 9G11
  20826977.955    20826978.485    -1781431.564 8    802265.433 9
  21110729.571    21110731.003      279245.021 9   2379083.060 8
  23067475.292    23067476.452    -2832678.283 9    201125.030 8
  21007154.089    21007155.873    -2169647.208 8    623166.449 8
 86  6 10 23 39 17.0800000  0  4G 6G 8G 9G11
  20825554.523    20825555.239    -1788907.383 9    796440.120 8
  21112974.941    21112976.944      291045.622 8   2388278.337 9
  23064152.247    23064154.859    -2850136.227 9    187521.445 9
  21005193.933    21005195.478    -2179950.639 8    615137.793 8
 86  6 10 23 39 23.0800000  0  4G 6G 8G 9G11
  20824134.779    20824134.697    -1796372.731 9    790622.971 9
  21115225.719    21115226.606      302869.039 9   2397491.385 9
  23060832.185    23060832.251    -2867593.501 9    173918.378 8
  21003236.917    21003240.400    -2190231.994 8    607126.356 8
 86  6 10 23 39 29.0800000  0  4G 6G 8G 9G11
  20822715.837    20822715.619    -1803827.576 9    784813.997 8
  21117479.732    21117481.277      314715.259 9   2406722.196 8
  23057509.470    23057510.378    -2885050.079 9    160315.859 8
  21001283.298    21001287.616    -2200491.263 9    599132.121 8
 86  6 10 23 39 35.0800000  0  4G 6G 8G 9G11
  20821299.542    20821299.255    -1811271.909 9    779013.220 9
  21119737.966    21119739.755      326584.250 9   2415970.766 8
  23054188.478    23054189.136    -2902506.016 8    146713.826 8
  20999336.060    20999339.044    -2210728.413 7    591155.130 7
 86  6 10 23 39 41.0800000  0  4G 6G 8G 9G11
  20819884.480    20819885.850    -1818705.715 9    773220.641 8
  21122000.892    21122002.152      338475.993 9   2425237.061 8
  23050865.534    23050867.751    -2919961.237 9    133112.371 8
  20997392.579    20997394.415    -2220943.493 8    583195.326 8
 86  6 10 23 39 47.0800000  0  4G 6G 8G 9G11
  20818471.563    20818472.903    -1826129.013 9    767436.253 9
  21124268.527    21124269.013      350390.445 9   2434521.039 8
  23047543.619    23047546.229    -2937415.743 8    119511.474 8
  20995452.152    20995455.324    -2231136.524 8    575252.711 8
 86  6 10 23 39 53.0800000  0  4G 6G 8G 9G11
  20817061.148    20817061.817    -1833541.745 9    761660.107 8
  21126539.696    21126540.511      362327.593 9   2443822.714 9
  23044222.791    23044224.437    -2954869.513 9    105911.131 8
  20993517.269    20993518.691    -2241307.460 8    567327.307 8
 86  6 10 23 39 59.0800000  0  4G 6G 8G 9G11
  20815652.626    20815654.014    -1840943.904 9    755892.184 8
  21128815.115    21128816.732      374287.434 8   2453142.078 8
  23040901.599    23040903.803    -2972322.564 9     92311.354 7
  20991584.960    20991588.634    -2251456.232 8    559419.169 7
 86  6 10 23 40  5.0800000  0  4G 6G 8G 9G11
  20814245.975    20814247.348    -1848335.444 9    750132.539 9
  21131095.828    21131096.930      386269.952 9   2462479.101 8
  23037580.915    23037582.210    -2989774.830 8     78712.197 8
  20989659.333    20989661.136    -2261582.869 9    551528.292 8
 86  6 10 23 40 11.0800000  0  4G 6G 8G 9G11
  20812841.259    20812841.596    -1855716.407 9    744381.138 9
  21133380.348    21133381.879      398275.149 9   2471833.793 8
  23034259.150    23034260.509    -3007226.359 8     65113.613 8
  20987736.370    20987738.610    -2271687.373 8    543654.664 9
 86  6 10 23 40 17.0800000  0  4G 6G 8G 9G11
  20811438.923    20811440.025    -1863086.688 9    738638.065 9
  21135669.776    21135670.377      410302.970 9   2481206.128 9
  23030938.774    23030940.948    -3024677.162 8     51515.595 8
  20985817.571    20985820.377    -2281769.743 9    535798.271 8
 86  6 10 23 40 23.0800000  0  4G 6G 8G 9G11
  20810038.342    20810038.986    -1870446.350 9    732903.275 9
  21137961.880    21137962.966      422353.443 9   2490596.101 9
  23027619.056    23027619.843    -3042127.189 8     37918.173 9
  20983904.554    20983905.888    -2291829.908 9    527959.189 8
 86  6 10 23 40 29.0800000  0  4G 6G 8G 9G11
  20808639.894    20808640.205    -1877795.369 9    727176.757 8
  21140259.033    21140260.335      434426.461 9   2500003.637 9
  23024298.535    23024299.014    -3059576.406 9     24321.396 8
  20981992.013    20981995.122    -2301867.925 9    520137.360 9
 86  6 10 23 40 35.0800000  0  4G 6G 8G 9G11
  20807242.916    20807244.773    -1885133.749 9    721458.543 9
  21142561.912    21142562.226      446521.957 9   2509428.695 9
  23020977.737    23020978.890    -3077024.821 8     10725.226 8
  20980086.836    20980089.391    -2311883.757 8    512332.814 8
 86  6 10 23 40 41.0800000  0  4G 6G 8G 9G11
  20805848.679    20805850.196    -1892461.431 9    715748.669 9
  21144868.210    21144868.555      458639.976 9   2518871.313 9
  23017657.124    23017658.706    -3094472.435 8     -2870.305 8
  20978185.183    20978188.389    -2321877.396 8    504545.569 8
 86  6 10 23 40 47.0800000  0  4G 6G 8G 9G11
  20804456.395    20804458.098    -1899778.398 9    710047.130 9
  21147177.943    21147179.259      470780.570 9   2528331.509 8
  23014337.234    23014339.053    -3111919.233 9    -16465.212 8
  20976288.050    20976291.089    -2331848.794 8    496775.650 8
 86  6 10 23 40 53.0800000  0  4G 6G 8G 9G11
  20803066.270    20803066.629    -1907084.629 9    704353.965 8
  21149491.710    21149492.827      482943.638 9   2537809.230 9
  23011017.816    23011018.103    -3129365.136 9    -30059.410 8
  20974394.678    20974397.926    -2341797.958 8    489023.059 7
 86  6 10 23 40 59.0800000  0  4G 6G 8G 9G11
  20801677.735    20801678.943    -1914380.101 9    698669.188 9
  21151811.345    21151812.232      495129.150 9   2547304.435 9
  23007697.597    23007698.822    -3146810.161 8    -43652.923 8
  20972505.514    20972507.993    -2351724.851 8    481287.816 8
 86  6 10 23 41  5.0800000  0  4G 6G 8G 9G11
  20800291.665    20800291.915    -1921664.835 9    692992.771 9
  21154134.069    21154135.758      507337.065 9   2556817.083 9
  23004378.345    23004379.496    -3164254.349 9    -57245.796 9
  20970621.319    20970624.105    -2361629.509 8    473569.912 8
 86  6 10 23 41 11.0800000  0  4G 6G 8G 9G11
  20798908.144    20798908.448    -1928938.807 9    687324.746 9
  21156461.416    21156462.891      519567.443 9   2566347.248 9
  23001058.433    23001060.694    -3181697.759 9    -70838.055 7
  20968739.577    20968742.801    -2371511.927 8    465869.343 8
 86  6 10 23 41 17.0800000  0  4G 6G 8G 9G11
  20797525.755    20797527.042    -1936202.014 9    681665.111 9
  21158793.171    21158795.031      531820.234 9   2575894.877 8
  22997739.137    22997740.518    -3199140.215 8    -84429.567 9
  20966863.424    20966866.676    -2381372.093 7    458186.092 8
 86  6 10 23 41 23.0800000  0  4G 6G 8G 9G11
  20796145.136    20796146.606    -1943454.374 9    676013.924 9
  21161129.276    21161130.807      544095.439 9   2585459.981 7
  22994420.907    22994422.015    -3216581.712 9    -98020.339 8
  20964991.943    20964994.940    -2391209.978 9    450520.208 8
 86  6 10 23 41 29.0800000  0  4G 6G 8G 9G11
  20794767.218    20794768.583    -1950695.905 9    670371.164 9
  21163469.357    21163470.588      556392.929 9   2595042.430 8
  22991101.882    22991103.477    -3234022.303 9   -111610.413 8
  20963123.588    20963126.930    -2401025.588 9    442871.685 8
 86  6 10 23 41 35.0800000  0  4G 6G 8G 9G11
  20793391.696    20793391.621    -1957926.635 9    664736.830 9
  21165813.662    21165813.775      568712.744 9   2604642.288 9
  22987782.894    22987784.424    -3251461.955 9   -125199.739 9
  20961259.665    20961262.710    -2410818.898 8    435240.542 8
 86  6 10 23 41 41.0800000  0  4G 6G 8G 9G11
  20792017.542    20792018.858    -1965146.512 9    659110.957 9
  21168162.401    21168163.517      581054.880 9   2614259.530 8
  22984464.507    22984466.501    -3268900.676 9   -138788.339 8
  20959400.894    20959403.537    -2420589.901 8    427626.779 8
 86  6 10 23 41 47.0800000  0  4G 6G 8G 9G11
  20790645.280    20790646.861    -1972355.512 9    653493.548 8
  21170515.031    21170516.578      593419.305 9   2623894.149 8
  22981146.970    22981146.176    -3286338.457 8   -152376.220 8
  20957546.197    20957548.809    -2430338.580 8    420030.408 8
 86  6 10 23 41 53.0800000  0  4G 6G 8G 9G11
  20789275.599    20789276.169    -1979553.569 8    647884.674 9
  21172871.970    21172873.358      605805.990 9   2633546.114 9
  22977828.095    22977829.141    -3303775.299 9   -165963.358 9
  20955694.509    20955697.943    -2440064.939 9    412451.429 8
 86  6 10 23 41 59.0800000  0  4G 6G 8G 9G11
  20787907.777    20787909.219    -1986740.757 9    642284.268 8
  21175233.644    21175236.006      618214.982 8   2643215.452 8
  22974510.861    22974511.741    -3321211.123 9   -179549.716 9
  20953848.379    20953851.731    -2449769.014 9    404889.822 8
 86  6 10 23 42  5.0800000  0  4G 6G 8G 9G11
  20786542.830    20786543.793    -1993917.014 9    636692.385 9
  21177599.097    21177600.457      630646.160 9   2652902.085 8
  22971192.638    22971194.692    -3338645.955 9   -193135.291 7
  20952006.131    20952008.307    -2459450.706 8    397345.638 8
 86  6 10 23 42 11.0800000  0  4G 6G 8G 9G11
  20785179.490    20785179.181    -2001082.319 9    631109.033 9
  21179968.871    21179970.688      643099.519 9   2662605.993 8
  22967875.030    22967876.874    -3356079.785 9   -206720.083 8
  20950167.486    20950170.402    -2469110.066 9    389818.872 8
 86  6 10 23 42 17.0800000  0  4G 6G 8G 9G11
  20783817.265    20783818.099    -2008236.660 9    625534.216 8
  21182343.109    21182344.267      655575.097 9   2672327.218 7
  22964558.116    22964557.615    -3373512.531 9   -220304.045 9
  20948334.618    20948336.686    -2478747.071 8    382309.519 8
 86  6 10 23 42 23.0800000  0  4G 6G 8G 9G11
  20782457.563    20782459.702    -2015380.020 9    619967.965 9
  21184721.311    21184721.854      668072.837 9   2682065.728 9
  22961239.972    22961241.303    -3390944.308 9   -233887.249 8
  20946504.158    20946507.083    -2488361.711 9    374817.607 8
 86  6 10 23 42 29.0800000  0  4G 6G 8G 9G11
  20781101.555    20781102.317    -2022512.346 9    614410.303 9
  21187103.491    21187104.192      680592.710 9   2691821.465 9
  22957923.552    22957924.481    -3408375.037 8   -247469.625 9
  20944679.409    20944681.842    -2497953.947 8    367343.132 7
 86  6 10 23 42 35.0800000  0  4G 6G 8G 9G11
  20779746.021    20779747.269    -2029633.697 9    608861.195 9
  21189490.707    21189492.138      693134.676 9   2701594.420 8
  22954606.438    22954607.011    -3425804.661 8   -261051.147 7
  20942857.932    20942861.240    -2507523.804 8    359886.108 9
 86  6 10 23 42 41.0800000  0  4G 6G 8G 9G11
  20778392.385    20778393.569    -2036744.003 9    603320.702 9
  21191881.987    21191881.773      705698.744 9   2711384.605 8
  22951290.548    22951291.920    -3443233.137 9   -274631.766 8
  20941041.215    20941044.048    -2517071.220 8    352446.568 7
 86  6 10 23 42 47.0800000  0  4G 6G 8G 9G11
  20777041.676    20777042.928    -2043843.299 9    597788.788 9
  21194276.531    21194277.446      718284.846 9   2721191.953 7
  22947974.385    22947975.093    -3460660.588 9   -288211.592 7
  20939229.180    20939232.074    -2526596.233 8    345024.483 8
 86  6 10 23 42 53.0800000  0  4G 6G 8G 9G11
  20775692.467    20775694.562    -2050931.512 8    592265.504 8
  21196675.782    21196676.783      730892.996 9   2731016.481 9
  22944658.715    22944658.365    -3478086.930 9   -301790.558 9
  20937419.322    20937423.488    -2536098.814 9    337619.885 9
 86  6 10 23 42 59.0800000  0  4G 6G 8G 9G11
  20774346.544    20774347.430    -2058008.698 9    586750.819 9
  21199078.481    21199079.354      743523.183 9   2740858.185 8
  22941342.016    22941344.113    -3495512.185 9   -315368.674 8
  20935616.417    20935618.532    -2545578.982 7    330232.747 8
 86  6 10 23 43  5.0800000  0  4G 6G 8G 9G11
  20773002.044    20773002.788    -2065074.762 9    581244.790 8
  21201487.061    21201488.220      756175.339 9   2750717.003 9
  22938025.841    22938027.986    -3512936.319 8   -328945.907 9
  20933817.182    20933819.762    -2555036.712 8    322863.087 8
 86  6 10 23 43 11.0800000  0  4G 6G 8G 9G11
  20771658.765    20771660.063    -2072129.725 9    575747.415 9
  21203897.773    21203900.378      768849.447 9   2760592.934 9
  22934710.580    22934711.382    -3530359.232 9   -342522.203 8
  20932021.586    20932023.822    -2564472.010 9    315510.911 9
 86  6 10 23 43 17.0800000  0  4G 6G 8G 9G11
  20770318.670    20770319.858    -2079173.528 9    570258.748 9
  21206314.110    21206315.253      781545.560 9   2770486.003 8
  22931395.905    22931396.764    -3547781.068 9   -356097.649 8
  20930229.506    20930233.058    -2573884.837 8    308176.248 8
 86  6 10 23 43 23.0800000  0  4G 6G 8G 9G11
  20768980.728    20768981.219    -2086206.189 9    564778.751 9
  21208734.938    21208734.737      794263.611 9   2780396.174 8
  22928081.216    22928081.159    -3565201.734 9   -369672.187 8
  20928443.876    20928445.429    -2583275.174 8    300859.102 8
 86  6 10 23 43 29.0800000  0  4G 6G 8G 9G11
  20767644.077    20767645.562    -2093227.756 9    559307.406 8
  21211159.258    21211159.745      807003.516 9   2790323.368 9
  22924764.789    22924765.755    -3582621.205 9   -383245.798 8
  20926661.234    20926663.569    -2592643.031 8    293559.477 8
 86  6 10 23 43 35.0800000  0  4G 6G 8G 9G11
  20766310.382    20766311.198    -2100238.086 9    553844.813 8
  21213587.100    21213588.358      819765.308 9   2800267.614 9
  22921451.138    22921452.784    -3600039.438 8   -396818.432 8
  20924882.741    20924884.404    -2601988.370 8    286277.398 8
 86  6 10 23 43 41.0800000  0  4G 6G 8G 9G11
  20764978.332    20764978.844    -2107237.174 9    548390.969 9
  21216020.148    21216020.721      832548.985 9   2810228.924 8
  22918136.750    22918136.979    -3617456.558 9   -410390.204 8
  20923109.276    20923110.221    -2611311.172 9    279012.881 8
 86  6 10 23 43 47.0800000  0  4G 6G 8G 9G11
  20763648.436    20763648.847    -2114225.071 9    542945.864 8
  21218457.117    21218457.918      845354.531 9   2820207.279 8
  22914822.226    22914823.156    -3634872.380 8   -423960.963 8
  20921338.585    20921341.480    -2620611.479 8    271765.895 8
 86  6 10 23 43 53.0800000  0  4G 6G 8G 9G11
  20762321.175    20762321.728    -2121201.785 9    537509.460 9
  21220896.935    21220899.867      858181.906 9   2830202.626 8
  22911508.489    22911509.883    -3652287.013 9   -437530.809 8
  20919572.351    20919574.978    -2629889.292 9    264536.437 8
 86  6 10 23 43 59.0800000  0  4G 6G 8G 9G11
  20760995.454    20760996.421    -2128167.225 9    532081.845 9
  21223342.261    21223343.478      871031.042 9   2840214.934 9
  22908194.851    22908195.717    -3669700.381 9   -451099.660 9
  20917811.677    20917814.314    -2639144.593 9    257324.518 9
 86  6 10 23 44  5.0800000  0  4G 6G 8G 9G11
  20759672.165    20759673.006    -2135121.384 9    526663.023 9
  21225791.481    21225792.924      883901.933 9   2850244.201 9
  22904881.616    22904881.295    -3687112.483 9   -464667.526 8
  20916055.239    20916057.102    -2648377.320 8    250130.201 8
 86  6 10 23 44 11.0800000  0  4G 6G 8G 9G11
  20758351.344    20758352.182    -2142064.303 9    521252.959 9
  21228244.948    21228247.009      896794.548 9   2860290.384 8
  22901567.879    22901569.581    -3704523.346 9   -478234.416 9
  20914302.307    20914304.544    -2657587.473 8    242953.456 8
 86  6 10 23 44 17.0800000  0  4G 6G 8G 9G11
  20757031.615    20757033.504    -2148995.911 9    515851.696 8
  21230703.095    21230703.324      909708.877 9   2870353.496 8
  22898255.330    22898257.233    -3721933.009 8   -491800.386 8
  20912553.964    20912555.541    -2666775.074 8    235794.292 8
 86  6 10 23 44 23.0800000  0  4G 6G 8G 9G11
  20755715.112    20755716.371    -2155916.236 9    510459.243 8
  21233165.292    21233165.680      922644.950 9   2880433.555 9
  22894944.089    22894944.840    -3739341.347 9   -505365.322 8
  20910809.819    20910812.192    -2675940.079 9    228652.732 8
 86  6 10 23 44 29.0800000  0  4G 6G 8G 9G11
  20754400.161    20754401.245    -2162825.230 9    505075.619 9
  21235631.023    21235631.123      935602.644 9   2890530.457 8
  22891629.816    22891631.039    -3756748.322 9   -518929.181 8
  20909070.935    20909072.283    -2685082.522 7    221528.750 8
 86  6 10 23 44 35.0800000  0  4G 6G 8G 9G11
  20753087.328    20753088.355    -2169722.870 9    499700.828 8
  21238099.545    21238101.434      948582.024 9   2900644.259 7
  22888317.917    22888319.212    -3774153.931 9   -532491.992 8
  20907335.422    20907336.172    -2694202.401 9    214422.358 8
 86  6 10 23 44 41.0800000  0  4G 6G 8G 9G11
  20751777.837    20751779.779    -2176609.134 8    494334.899 9
  21240573.619    21240575.493      961583.021 9   2910774.898 8
  22885006.220    22885007.650    -3791558.354 9   -546053.883 8
  20905602.933    20905605.769    -2703299.737 8    207333.535 8
 86  6 10 23 44 47.0800000  0  4G 6G 8G 9G11
  20750468.946    20750469.057    -2183484.089 9    488977.804 9
  21243051.756    21243053.587      974605.563 9   2920922.341 9
  22881694.871    22881695.158    -3808961.388 9   -559614.676 8
  20903876.168    20903879.144    -2712374.460 9    200262.321 8
 86  6 10 23 44 53.0800000  0  4G 6G 8G 9G11
  20749163.226    20749164.184    -2190347.606 9    483629.600 9
  21245534.801    21245535.259      987649.703 9   2931086.604 8
  22878382.995    22878382.822    -3826363.022 9   -573174.378 8
  20902153.731    20902156.184    -2721426.559 9    193208.736 8
 86  6 10 23 44 59.0800000  0  4G 6G 8G 9G11
  20747859.004    20747859.572    -2197199.732 9    478290.290 9
  21248020.693    21248022.712     1000715.464 9   2941267.709 8
  22875072.292    22875073.686    -3843763.320 8   -586733.053 8
  20900437.133    20900437.411    -2730456.074 9    186172.761 8
 86  6 10 23 45  5.0800000  0  4G 6G 8G 9G11
  20746557.293    20746558.587    -2204040.426 9    472959.877 8
  21250511.094    21250512.282     1013802.747 9   2951465.589 8
  22871760.078    22871761.617    -3861162.240 9   -600290.646 8
  20898721.979    20898724.840    -2739462.967 9    179154.407 8
 86  6 10 23 45 11.0800000  0  4G 6G 8G 9G11
  20745257.549    20745257.868    -2210869.648 9    467638.399 8
  21253006.145    21253006.689     1026911.533 8   2961680.230 8
  22868450.519    22868451.500    -3878559.708 8   -613847.110 8
  20897012.363    20897014.287    -2748447.188 9    172153.708 8
 86  6 10 23 45 17.0800000  0  4G 6G 8G 9G11
  20743960.553    20743961.547    -2217687.418 9    462325.858 8
  21255504.244    21255505.789     1040041.800 8   2971911.594 8
  22865139.545    22865140.940    -3895955.761 9   -627402.463 8
  20895307.952    20895308.768    -2757408.701 8    165170.731 7
 86  6 10 23 45 23.0800000  0  4G 6G 8G 9G11
  20742665.206    20742665.295    -2224493.694 9    457022.267 9
  21258006.363    21258008.210     1053193.567 9   2982159.728 9
  22861829.871    22861830.064    -3913350.375 9   -640956.708 8
  20893606.893    20893607.993    -2766347.548 9    158205.406 8
 86  6 10 23 45 29.0800000  0  4G 6G 8G 9G11
  20741372.806    20741371.559    -2231288.483 9    451727.626 9
  21260513.348    21260515.037     1066366.789 9   2992424.568 8
  22858520.591    22858522.186    -3930743.592 8   -654509.849 8
  20891909.414    20891911.037    -2775263.733 8    151257.708 8
 86  6 10 23 45 35.0800000  0  4G 6G 8G 9G11
  20740081.996    20740082.615    -2238071.733 9    446441.969 9
  21263024.868    21263025.470     1079561.430 8   3002706.097 8
  22855210.181    22855211.769    -3948135.296 8   -668061.825 8
  20890216.669    20890218.790    -2784157.227 8    144327.734 8
 86  6 10 23 45 41.0800000  0  4G 6G 8G 9G11
  20738793.227    20738793.497    -2244843.523 8    441165.254 8
  21265539.451    21265540.282     1092777.396 9   3013004.254 9
  22851900.707    22851902.067    -3965525.632 9   -681612.722 8
  20888529.633    20888531.382    -2793028.017 9    137415.436 8
 86  6 10 23 45 47.0800000  0  4G 6G 8G 9G11
  20737506.291    20737508.416    -2251603.734 9    435897.561 8
  21268058.240    21268060.244     1106014.772 9   3023319.102 8
  22848591.401    22848593.869    -3982914.387 9   -695162.397 8
  20886844.786    20886847.501    -2801876.091 9    130520.828 8
 86  6 10 23 45 53.0800000  0  4G 6G 8G 9G11
  20736221.830    20736223.460    -2258352.382 8    430638.869 8
  21270582.068    21270582.554     1119273.487 9   3033650.567 8
  22845283.108    22845285.318    -4000301.670 9   -708710.916 8
  20885166.110    20885167.248    -2810701.524 9    123643.878 8
 86  6 10 23 45 59.0800000  0  4G 6G 8G 9G11
  20734940.706    20734940.946    -2265089.514 8    425389.165 9
  21273108.613    21273109.386     1132553.496 9   3043998.614 8
  22841975.587    22841977.090    -4017687.492 9   -722258.308 8
  20883491.180    20883492.072    -2819504.295 9    116784.578 8
 86  6 10 23 46  5.0800000  0  4G 6G 8G 9G11
  20733660.141    20733660.967    -2271814.987 9    420148.531 9
  21275639.866    21275641.024     1145854.807 9   3054363.271 9
  22838666.766    22838668.719    -4035071.788 8   -735804.499 8
  20881819.512    20881822.685    -2828284.349 8    109942.976 9
 86  6 10 23 46 11.0800000  0  4G 6G 8G 9G11
  20732383.739    20732384.004    -2278528.903 9    414916.902 8
  21278175.626    21278175.840     1159177.394 9   3064744.501 8
  22835359.195    22835360.971    -4052454.499 9   -749349.472 9
  20880154.437    20880155.986    -2837041.678 8    103119.086 8
 86  6 10 23 46 17.0800000  0  4G 6G 8G 9G11
  20731106.934    20731108.446    -2285231.165 9    409694.368 9
  21280715.092    21280715.836     1172521.245 9   3075142.300 9
  22832051.241    22832053.494    -4069835.749 9   -762893.293 9
  20878490.672    20878492.745    -2845776.282 8     96312.907 9
 86  6 10 23 46 23.0800000  0  4G 6G 8G 9G11
  20729834.139    20729834.741    -2291921.788 8    404480.900 8
  21283257.035    21283259.468     1185886.296 9   3085556.630 8
  22828745.029    22828745.744    -4087215.427 9   -776435.893 8
  20876834.037    20876835.935    -2854488.140 9     89524.452 9
 86  6 10 23 46 29.0800000  0  4G 6G 8G 9G11
  20728562.820    20728563.294    -2298600.730 9    399276.525 8
  21285804.787    21285806.074     1199272.557 9   3095987.477 9
  22825437.810    22825437.954    -4104593.494 9   -789977.240 9
  20875180.875    20875182.621    -2863177.256 8     82753.725 8
 86  6 10 23 46 35.0800000  0  4G 6G 8G 9G11
  20727293.352    20727295.014    -2305268.007 9    394081.240 8
  21288355.514    21288357.031     1212680.007 8   3106434.836 8
  22822131.249    22822133.167    -4121970.063 8   -803517.417 8
  20873530.539    20873532.250    -2871843.607 8     76000.724 9
 86  6 10 23 46 41.0800000  0  4G 6G 8G 9G11
  20726027.618    20726028.762    -2311923.599 9    388895.067 9
  21290911.335    21290913.282     1226108.617 9   3116898.685 8
  22818824.002    22818825.526    -4139344.959 9   -817056.287 9
  20871886.652    20871888.216    -2880487.159 9     69265.497 8
 86  6 10 23 46 47.0800000  0  4G 6G 8G 9G11
  20724762.767    20724764.917    -2318567.526 9    383717.983 9
  21293470.778    21293472.452     1239558.348 9   3127378.984 8
  22815518.185    22815519.887    -4156718.307 8   -830593.954 8
  20870246.111    20870247.434    -2889107.967 8     62547.982 8
 86  6 10 23 46 53.0800000  0  4G 6G 8G 9G11
  20723501.304    20723502.038    -2325199.696 9    378550.059 9
  21296034.555    21296035.658     1253029.207 8   3137875.752 8
  22812212.846    22812213.749    -4174090.011 9   -844130.343 9
  20868610.326    20868612.071    -2897706.010 8     55848.211 8
 86  6 10 23 46 59.0800000  0  4G 6G 8G 9G11
  20722240.847    20722242.635    -2331820.098 9    373391.310 9
  21298601.296    21298603.128     1266521.119 9   3148388.946 8
  22808907.152    22808909.169    -4191460.060 9   -857665.437 8
  20866978.077    20866979.829    -2906281.263 8     49166.188 8
 86  6 10 23 47  5.0800000  0  4G 6G 8G 9G11
  20720984.653    20720984.821    -2338428.739 9    368241.714 9
  21301173.201    21301174.260     1280034.131 9   3158918.546 9
  22805601.327    22805603.452    -4208828.437 9   -871199.229 9
  20865351.296    20865352.002    -2914833.745 9     42501.927 8
 86  6 10 23 47 11.0800000  0  4G 6G 8G 9G11
  20719728.814    20719730.213    -2345025.623 9    363101.280 9
  21303748.769    21303749.313     1293568.140 9   3169464.530 8
  22802296.834    22802298.436    -4226195.209 9   -884731.770 8
  20863727.940    20863728.538    -2923363.434 8     35855.427 8
 86  6 10 23 47 17.0800000  0  4G 6G 8G 9G11
  20718475.762    20718476.381    -2351610.723 9    357970.038 9
  21306328.602    21306328.917     1307123.196 9   3180026.915 9
  22798991.775    22798994.350    -4243560.191 9   -898262.911 9
  20862107.936    20862110.293    -2931870.272 9     29226.716 8
 86  6 10 23 47 23.0800000  0  4G 6G 8G 9G11
  20717224.813    20717225.411    -2358183.978 9    352848.018 9
  21308911.741    21308912.470     1320699.245 9   3190605.643 8
  22795688.513    22795689.737    -4260923.483 9   -911792.747 8
  20860493.547    20860495.739    -2940354.291 9     22615.805 8
 86  6 10 23 47 29.0800000  0  4G 6G 8G 9G11
  20715976.400    20715977.797    -2364745.472 9    347735.170 9
  21311498.757    21311500.202     1334296.199 9   3201200.678 9
  22792385.522    22792386.452    -4278285.223 9   -925321.362 9
  20858885.057    20858884.790    -2948815.487 9     16022.674 7
 86  6 10 23 47 35.0800000  0  4G 6G 8G 9G11
  20714729.240    20714730.320    -2371295.073 9    342631.575 8
  21314090.722    21314091.969     1347914.151 8   3211812.058 8
  22789080.564    22789082.317    -4295645.150 8   -938848.579 9
  20857277.936    20857279.556    -2957253.824 9      9447.334 8
 86  6 10 23 47 41.0800000  0  4G 6G 8G 9G11
  20713486.268    20713486.393    -2377832.823 9    337537.230 8
  21316685.452    21316688.055     1361553.022 9   3222439.741 8
  22785778.703    22785779.841    -4313003.366 9   -952374.451 8
  20855676.303    20855677.935    -2965669.388 8      2889.753 7
 86  6 10 23 47 47.0800000  0  4G 6G 8G 9G11
  20712243.288    20712243.761    -2384358.669 9    332452.162 8
  21319285.503    21319286.633     1375212.778 9   3233083.719 8
  22782474.354    22782476.836    -4330359.741 9   -965898.902 9
  20854080.245    20854081.051    -2974062.063 9     -3649.980 8
 86  6 10 23 47 53.0800000  0  4G 6G 8G 9G11
  20711004.246    20711005.218    -2390872.617 9    327376.355 8
  21321888.688    21321890.191     1388893.447 8   3243743.972 9
  22779173.122    22779173.852    -4347714.332 9   -979421.942 9
  20852487.274    20852488.295    -2982431.855 9    -10171.895 8
 86  6 10 23 47 59.0800000  0  4G 6G 8G 9G11
  20709767.430    20709767.695    -2397374.648 9    322309.829 9
  21324495.666    21324497.784     1402594.954 9   3254420.470 9
  22775870.354    22775872.220    -4365067.235 9   -992943.677 8
  20850898.392    20850899.694    -2990778.760 8    -16675.967 8
 86  6 10 23 48  5.0800000  0  4G 6G 8G 9G11
  20708532.468    20708533.230    -2403864.765 9    317252.602 9
  21327106.821    21327109.496     1416317.311 9   3265113.206 9
  22772568.257    22772569.759    -4382418.287 9  -1006463.972 9
  20849315.187    20849316.113    -2999102.747 9    -23162.197 8
 86  6 10 23 48 11.0800000  0  4G 6G 8G 9G11
  20707299.563    20707299.974    -2410342.910 9    312204.697 8
  21329722.814    21329724.617     1430060.427 9   3275822.116 9
  22769267.284    22769268.336    -4399767.553 9  -1019982.883 9
  20847735.696    20847736.142    -3007403.844 8    -29630.584 8
 86  6 10 23 48 17.0800000  0  4G 6G 8G 9G11
  20706069.136    20706069.087    -2416809.100 9    307166.112 9
  21332342.355    21332343.113     1443824.269 9   3286547.189 8
  22765966.618    22765967.004    -4417114.931 8  -1033500.301 8
  20846158.675    20846160.543    -3015682.077 8    -36081.146 8
 86  6 10 23 48 23.0800000  0  4G 6G 8G 9G11
  20704840.910    20704841.748    -2423263.283 9    302136.883 9
  21334964.428    21334965.472     1457608.918 9   3297288.474 9
  22762665.595    22762667.061    -4434460.494 8  -1047016.327 9
  20844589.092    20844589.560    -3023937.363 9    -42513.847 8
 86  6 10 23 48 29.0800000  0  4G 6G 8G 9G11
  20703614.489    20703615.475    -2429705.488 9    297116.975 9
  21337591.652    21337592.840     1471414.334 9   3308045.939 8
  22759365.373    22759366.624    -4451804.232 8  -1060530.903 8
  20843021.424    20843024.243    -3032169.819 9    -48928.731 8
 86  6 10 23 48 35.0800000  0  4G 6G 8G 9G11
  20702390.941    20702391.702    -2436135.663 9    292106.454 9
  21340222.826    21340224.444     1485240.463 9   3318819.553 7
  22756066.281    22756065.952    -4469146.025 8  -1074043.986 8
  20841460.205    20841461.876    -3040379.349 9    -55325.766 8
 86  6 10 23 48 41.0800000  0  4G 6G 8G 9G11
  20701169.301    20701170.771    -2442553.847 9    287105.276 9
  21342858.537    21342859.453     1499087.232 9   3329609.229 8
  22752765.758    22752766.359    -4486485.966 9  -1087555.633 9
  20839901.784    20839903.380    -3048565.953 9    -61704.933 8
 86  6 10 23 48 47.0800000  0  4G 6G 8G 9G11
  20699950.550    20699951.324    -2448959.974 9    282113.475 9
  21345497.496    21345497.695     1512954.634 8   3340414.998 8
  22749465.809    22749468.434    -4503824.066 9  -1101065.837 8
  20838348.435    20838348.968    -3056729.629 9    -68066.233 8
 86  6 10 23 48 53.0800000  0  4G 6G 8G 9G11
  20698733.293    20698735.177    -2455354.040 9    277131.091 8
  21348139.558    21348140.660     1526842.668 9   3351236.844 8
  22746166.732    22746167.218    -4521160.279 9  -1114574.566 8
  20836799.393    20836801.050    -3064870.383 9    -74409.677 8
 86  6 10 23 48 59.0800000  0  4G 6G 8G 9G11
  20697519.630    20697519.737    -2461736.026 9    272158.121 9
  21350786.816    21350788.290     1540751.338 9   3362074.769 9
  22742868.783    22742868.734    -4538494.624 9  -1128081.839 9
  20835254.730    20835256.287    -3072988.248 9    -80735.285 8
 86  6 10 23 49  5.0800000  0  4G 6G 8G 9G11
  20696307.018    20696308.182    -2468105.887 9    267194.588 7
  21353436.950    21353438.496     1554680.586 9   3372928.728 9
  22739569.163    22739572.132    -4555827.036 9  -1141587.613 8
  20833713.774    20833715.162    -3081083.151 9    -87043.001 7
 86  6 10 23 49 11.0800000  0  4G 6G 8G 9G11
  20695096.815    20695097.738    -2474463.619 9    262240.515 8
  21356091.105    21356093.108     1568630.372 9   3383798.693 8
  22736272.504    22736274.336    -4573157.434 9  -1155091.812 8
  20832178.708    20832179.684    -3089155.037 9    -93332.784 7
 86  6 10 23 49 17.0800000  0  4G 6G 8G 9G11
  20693889.824    20693890.692    -2480809.250 9    257295.866 8
  21358749.882    21358750.840     1582600.713 9   3394684.663 8
  22732974.565    22732976.560    -4590485.911 9  -1168594.519 8
  20830646.115    20830648.225    -3097203.930 8    -99604.636 7
 86  6 10 23 49 23.0800000  0  4G 6G 8G 9G11
  20692685.437    20692685.763    -2487142.735 9    252360.691 9
  21361412.135    21361413.923     1596591.624 9   3405586.661 8
  22729677.498    22729679.436    -4607812.387 8  -1182095.660 8
  20829119.874    20829120.482    -3105229.825 9   -105858.580 7
 86  6 10 23 49 29.0800000  0  4G 6G 8G 9G11
  20691481.987    20691481.720    -2493464.033 9    247435.008 7
  21364078.667    21364080.041     1610602.953 9   3416504.588 9
  22726380.910    22726381.519    -4625136.854 9  -1195595.242 8
  20827596.804    20827597.015    -3113232.841 8   -112094.691 8
 86  6 10 23 49 35.0800000  0  4G 6G 8G 9G11
  20690281.203    20690282.309    -2499773.145 9    242518.814 8
  21366748.762    21366750.137     1624634.752 9   3427438.457 9
  22723083.879    22723085.989    -4642459.325 9  -1209093.256 8
  20826077.654    20826079.088    -3121212.865 9   -118312.885 8
 86  6 10 23 49 41.0800000  0  4G 6G 8G 9G11
  20689082.461    20689083.231    -2506070.097 9    237612.098 8
  21369423.265    21369424.409     1638687.013 9   3438388.257 9
  22719788.987    22719790.046    -4659779.786 9  -1222589.705 9
  20824562.508    20824564.235    -3129169.877 9   -124513.156 8
 86  6 10 23 49 47.0800000  0  4G 6G 8G 9G11
  20687886.448    20687887.700    -2512354.841 9    232714.907 8
  21372100.959    21372102.232     1652759.685 9   3449353.977 8
  22716493.202    22716494.367    -4677098.234 8  -1236084.600 8
  20823053.835    20823055.863    -3137103.894 8   -130695.511 8
 86  6 10 23 49 53.0800000  0  4G 6G 8G 9G11
  20686692.725    20686694.227    -2518627.336 9    227827.232 9
  21374782.930    21374784.002     1666852.709 9   3460335.563 8
  22713197.079    22713199.262    -4694414.608 9  -1249577.874 8
  20821547.986    20821549.508    -3145014.937 9   -136859.951 7
 86  6 10 23 49 59.0800000  0  4G 6G 8G 9G11
  20685502.062    20685502.801    -2524887.588 9    222949.121 9
  21377469.108    21377469.581     1680966.074 9   3471332.981 8
  22709903.282    22709904.341    -4711728.988 9  -1263069.584 8
  20820047.774    20820049.008    -3152902.962 9   -143006.470 8
 86  6 10 23 50  5.0800000  0  4G 6G 8G 9G11
  20684312.008    20684313.490    -2531135.593 9    218080.551 8
  21380158.663    21380159.021     1695099.772 9   3482346.246 9
  22706608.325    22706610.021    -4729041.251 9  -1276559.650 8
  20818550.757    20818552.253    -3160767.938 9   -149135.007 8
 86  6 10 23 50 11.0800000  0  4G 6G 8G 9G11
  20683127.632    20683127.242    -2537371.280 9    213221.570 9
  21382851.410    21382852.210     1709253.811 9   3493375.371 7
  22703315.407    22703317.246    -4746351.540 9  -1290048.185 8
  20817058.933    20817059.374    -3168609.859 8   -155245.609 8
 86  6 10 23 50 17.0800000  0  4G 6G 8G 9G11
  20681942.202    20681943.068    -2543594.680 9    208372.168 9
  21385548.164    21385550.496     1723428.159 9   3504420.308 9
  22700021.453    22700023.301    -4763659.641 9  -1303535.010 9
  20815570.774    20815570.670    -3176428.782 9   -161338.269 7
 86  6 10 23 50 23.0800000  0  4G 6G 8G 9G11
  20680759.733    20680761.157    -2549805.775 9    203532.353 8
  21388249.839    21388251.728     1737622.773 9   3515481.052 8
  22696727.500    22696728.836    -4780965.619 9  -1317020.182 9
  20814086.668    20814089.060    -3184224.693 8   -167412.996 8
 86  6 10 23 50 29.0800000  0  4G 6G 8G 9G11
  20679581.418    20679582.194    -2556004.553 9    198702.139 8
  21390955.550    21390955.878     1751837.631 9   3526557.554 8
  22693434.731    22693435.597    -4798269.474 9  -1330503.689 9
  20812607.379    20812608.564    -3191997.504 9   -173469.730 8
 86  6 10 23 50 35.0800000  0  4G 6G 8G 9G11
  20678403.289    20678404.228    -2562190.958 9    193881.558 9
  21393663.535    21393665.209     1766072.653 9   3537649.777 9
  22690142.280    22690143.932    -4815571.148 9  -1343985.510 8
  20811133.597    20811134.098    -3199747.266 8   -179508.501 8
 86  6 10 23 50 41.0800000  0  4G 6G 8G 9G11
  20677228.306    20677229.416    -2568364.981 8    189070.644 8
  21396376.429    21396377.345     1780327.879 9   3548757.740 9
  22686851.301    22686852.003    -4832870.686 9  -1357465.664 8
  20809663.295    20809663.832    -3207473.970 9   -185529.319 8
 86  6 10 23 50 47.0800000  0  4G 6G 8G 9G11
  20676055.353    20676057.153    -2574526.623 8    184269.363 8
  21399094.231    21399093.631     1794603.300 9   3559881.440 7
  22683558.721    22683560.330    -4850168.028 9  -1370944.110 7
  20808197.121    20808197.769    -3215177.621 9   -191532.167 8
 86  6 10 23 50 53.0800000  0  4G 6G 8G 9G11
  20674886.053    20674886.680    -2580675.854 9    179477.750 7
  21401813.823    21401814.552     1808898.871 9   3571020.844 8
  22680268.157    22680269.824    -4867463.165 9  -1384420.839 8
  20806735.423    20806737.000    -3222858.188 9   -197517.012 8
 86  6 10 23 50 59.0800000  0  4G 6G 8G 9G11
  20673718.425    20673718.902    -2586812.680 9    174695.804 9
  21404537.276    21404538.420     1823214.543 9   3582175.919 8
  22676977.286    22676978.609    -4884756.113 9  -1397895.851 8
  20805278.035    20805279.612    -3230515.692 9   -203483.904 8
 86  6 10 23 51  5.0800000  0  4G 6G 8G 9G11
  20672552.820    20672553.182    -2592937.089 9    169923.539 7
  21407265.753    21407266.868     1837550.336 9   3593346.669 8
  22673687.067    22673688.111    -4902046.871 9  -1411369.167 8
  20803824.919    20803826.060    -3238150.136 9   -209432.812 8
 86  6 10 23 51 11.0800000  0  4G 6G 8G 9G11
  20671389.723    20671390.409    -2599048.988 9    165161.020 8
  21409996.805    21409998.608     1851906.206 8   3604533.056 9
  22670397.004    22670397.705    -4919335.396 9  -1424840.743 8
  20802376.720    20802377.334    -3245761.411 9   -215363.672 7
 86  6 10 23 51 17.0800000  0  4G 6G 8G 9G11
  20670229.441    20670229.831    -2605148.475 8    160408.175 8
  21412733.580    21412733.752     1866282.119 9   3615735.052 8
  22667108.158    22667108.608    -4936621.763 8  -1438310.633 8
  20800933.370    20800933.338    -3253349.576 8   -221276.524 8
 86  6 10 23 51 23.0800000  0  4G 6G 8G 9G11
  20669070.045    20669071.012    -2611235.460 9    155665.073 8
  21415472.889    21415474.364     1880678.021 9   3626952.639 9
  22663818.646    22663819.668    -4953905.777 8  -1451778.690 9
  20799494.334    20799494.535    -3260914.600 9   -227171.353 8
 86  6 10 23 51 29.0800000  0  4G 6G 8G 9G11
  20667914.789    20667915.447    -2617309.948 9    150931.701 9
  21418216.348    21418216.720     1895093.971 9   3638185.846 8
  22660530.121    22660530.780    -4971187.486 9  -1465244.947 9
  20798057.984    20798058.774    -3268456.546 8   -233048.188 7
 86  6 10 23 51 35.0800000  0  4G 6G 8G 9G11
  20666760.656    20666761.719    -2623371.879 9    146208.128 8
  21420962.768    21420963.942     1909529.881 9   3649434.602 9
  22657241.232    22657243.228    -4988466.961 9  -1478709.469 8
  20796627.970    20796629.120    -3275975.356 8   -238906.993 8
 86  6 10 23 51 41.0800000  0  4G 6G 8G 9G11
  20665610.291    20665610.507    -2629421.300 9    141494.291 8
  21423714.268    21423714.369     1923985.742 9   3660698.909 8
  22653953.603    22653955.806    -5005744.114 8  -1492172.181 8
  20795201.165    20795202.056    -3283471.041 9   -244747.790 7
 86  6 10 23 51 47.0800000  0  4G 6G 8G 9G11
  20664461.032    20664462.703    -2635458.149 9    136790.247 8
  21426468.602    21426469.202     1938461.490 9   3671978.711 8
  22650667.139    22650667.533    -5023019.003 8  -1505633.125 8
  20793778.569    20793778.842    -3290943.623 9   -250570.581 8
 86  6 10 23 51 53.0800000  0  4G 6G 8G 9G11
  20663315.381    20663315.346    -2641482.471 9    132095.980 9
  21429226.812    21429227.499     1952957.162 9   3683274.040 8
  22647379.302    22647380.068    -5040291.488 9  -1519092.202 8
  20792361.754    20792362.192    -3298393.006 9   -256375.274 7
 86  6 10 23 51 59.0800000  0  4G 6G 8G 9G11
  20662171.154    20662171.981    -2647494.195 8    127411.514 8
  21431988.830    21431990.033     1967472.718 9   3694584.857 8
  22644093.445    22644094.748    -5057561.621 9  -1532549.434 9
  20790948.120    20790949.764    -3305819.295 9   -262162.012 8
 86  6 10 23 52  5.0800000  0  4G 6G 8G 9G11
  20661029.187    20661030.754    -2653493.293 9    122736.886 7
  21434754.611    21434755.712     1982008.134 9   3705911.157 8
  22640808.084    22640808.877    -5074829.381 9  -1546004.827 9
  20789539.534    20789540.246    -3313222.396 9   -267930.660 7
 86  6 10 23 52 11.0800000  0  4G 6G 8G 9G11
  20659889.835    20659890.169    -2659479.788 9    118072.090 8
  21437524.255    21437525.513     1996563.368 9   3717252.893 8
  22637521.155    22637522.594    -5092094.783 9  -1559458.391 9
  20788134.823    20788136.079    -3320602.356 8   -273681.276 7
 86  6 10 23 52 17.0800000  0  4G 6G 8G 9G11
  20658752.320    20658753.618    -2665453.615 9    113417.161 9
  21440298.320    21440299.179     2011138.383 9   3728610.039 9
  22634236.445    22634238.060    -5109357.774 9  -1572910.056 8
  20786735.359    20786736.018    -3327959.131 9   -279413.820 8
 86  6 10 23 52 23.0800000  0  4G 6G 8G 9G11
  20657619.184    20657619.486    -2671414.815 9    108772.070 9
  21443076.177    21443076.880     2025733.199 9   3739982.631 8
  22630951.176    22630954.438    -5126618.432 9  -1586359.925 8
  20785339.125    20785339.877    -3335292.725 9   -285128.313 8
 86  6 10 23 52 29.0800000  0  4G 6G 8G 9G11
  20656487.081    20656488.232    -2677363.353 9    104136.848 8
  21445856.140    21445857.498     2040347.760 9   3751370.588 8
  22627667.959    22627668.933    -5143876.566 9  -1599807.812 9
  20783948.025    20783950.696    -3342603.142 9   -290824.738 8
 86  6 10 23 52 35.0800000  0  4G 6G 8G 9G11
  20655357.718    20655358.018    -2683299.174 9     99511.534 9
  21448641.695    21448642.124     2054982.042 9   3762773.928 9
  22624385.251    22624384.852    -5161132.378 9  -1613253.897 9
  20782561.982    20782563.013    -3349890.394 8   -296503.113 7
 86  6 10 23 52 41.0800000  0  4G 6G 8G 9G11
  20654230.180    20654232.417    -2689222.368 9     94896.054 8
  21451430.427    21451430.528     2069635.974 9   3774192.571 8
  22621101.293    22621101.886    -5178385.681 9  -1626698.019 8
  20781178.058    20781180.737    -3357154.483 9   -302163.436 6
 86  6 10 23 52 47.0800000  0  4G 6G 8G 9G11
  20653105.689    20653106.226    -2695132.835 9     90290.495 9
  21454221.851    21454223.481     2084309.573 9   3785626.539 8
  22617818.106    22617819.816    -5195636.503 9  -1640140.220 8
  20779801.427    20779801.245    -3364395.421 9   -307805.732 8
 86  6 10 23 52 53.0800000  0  4G 6G 8G 9G11
  20651983.699    20651984.013    -2701030.521 8     85694.895 9
  21457018.711    21457019.384     2099002.819 9   3797075.820 8
  22614536.608    22614537.745    -5212884.918 8  -1653580.536 8
  20778427.323    20778428.623    -3371613.085 9   -313429.885 8
 86  6 10 23 52 59.0800000  0  4G 6G 8G 9G11
  20650863.954    20650863.950    -2706915.476 9     81109.217 8
  21459818.161    21459820.036     2113715.702 9   3808540.398 9
  22611253.485    22611254.987    -5230130.731 9  -1667018.825 8
  20777058.326    20777060.751    -3378807.538 9   -319035.945 7
 86  6 10 23 53  5.0800000  0  4G 6G 8G 9G11
  20649746.256    20649746.349    -2712787.644 8     76533.504 9
  21462621.847    21462622.290     2128448.175 9   3820020.248 8
  22607973.145    22607975.092    -5247374.025 8  -1680455.149 9
  20775693.568    20775695.801    -3385978.787 8   -324623.923 7
 86  6 10 23 53 11.0800000  0  4G 6G 8G 9G11
  20648630.626    20648630.861    -2718647.010 9     71967.760 8
  21465429.424    21465429.553     2143200.258 9   3831515.375 8
  22604692.692    22604693.550    -5264614.863 9  -1693889.570 8
  20774333.476    20774334.517    -3393126.809 9   -330193.827 6
 86  6 10 23 53 17.0800000  0  4G 6G 8G 9G11
  20647518.768    20647519.245    -2724493.606 8     67411.963 9
  21468239.993    21468241.138     2157971.858 9   3843025.703 8
  22601412.589    22601412.996    -5281853.244 8  -1707322.062 9
  20772976.929    20772979.507    -3400251.642 9   -335745.631 7
 86  6 10 23 53 23.0800000  0  4G 6G 8G 9G11
  20646408.583    20646409.563    -2730327.399 9     62866.158 8
  21471053.352    21471055.268     2172762.971 9   3854551.258 9
  22598130.940    22598133.186    -5299088.971 8  -1720752.502 8
  20771627.091    20771627.276    -3407353.201 9   -341279.307 8
 86  6 10 23 53 29.0800000  0  4G 6G 8G 9G11
  20645300.593    20645301.023    -2736148.346 9     58330.355 8
  21473872.348    21473873.235     2187573.633 9   3866092.036 8
  22594852.868    22594854.728    -5316322.116 9  -1734180.915 8
  20770278.666    20770279.763    -3414431.528 9   -346794.892 7
 86  6 10 23 53 35.0800000  0  4G 6G 8G 9G11
  20644195.327    20644195.658    -2741956.386 9     53804.606 9
  21476695.209    21476695.094     2202403.783 9   3877647.983 9
  22591573.538    22591575.197    -5333552.658 9  -1747607.317 9
  20768936.406    20768938.066    -3421486.644 8   -352292.375 7
 86  6 10 23 53 41.0800000  0  4G 6G 8G 9G11
  20643092.213    20643093.898    -2747751.575 9     49288.880 9
  21479520.815    21479521.502     2217253.380 9   3889219.097 8
  22588295.402    22588296.553    -5350780.676 9  -1761031.746 9
  20767599.194    20767601.357    -3428518.476 8   -357771.734 7
 86  6 10 23 53 47.0800000  0  4G 6G 8G 9G11
  20641992.100    20641993.839    -2753533.890 8     44783.172 8
  21482349.843    21482351.173     2232122.428 9   3900805.359 9
  22585017.395    22585018.281    -5368006.043 9  -1774454.104 8
  20766264.207    20766266.603    -3435527.083 8   -363232.975 8
 86  6 10 23 53 53.0800000  0  4G 6G 8G 9G11
  20640893.891    20640895.532    -2759303.250 9     40287.567 9
  21485183.449    21485184.909     2247010.833 9   3912406.713 9
  22581739.502    22581741.849    -5385228.754 8  -1787874.386 8
  20764935.548    20764936.457    -3442512.482 9   -368676.143 8
 86  6 10 23 53 59.0800000  0  4G 6G 8G 9G11
  20639799.248    20639800.159    -2765059.686 9     35802.039 8
  21488019.560    21488020.849     2261918.626 9   3924023.173 9
  22578463.707    22578465.101    -5402448.806 9  -1801292.609 8
  20763610.320    20763610.796    -3449474.563 9   -374101.150 7
 86  6 10 23 54  5.0800000  0  4G 6G 8G 9G11
  20638706.209    20638706.798    -2770803.208 9     31326.559 8
  21490859.691    21490861.251     2276845.782 9   3935654.711 8
  22575186.221    22575188.503    -5419666.219 9  -1814708.768 8
  20762290.200    20762292.361    -3456413.405 8   -379508.020 8
 86  6 10 23 54 11.0800000  0  4G 6G 8G 9G11
  20637615.687    20637616.899    -2776533.803 9     26861.161 9
  21493704.545    21493706.290     2291792.252 9   3947301.307 8
  22571911.276    22571912.542    -5436880.999 9  -1828122.881 8
  20760974.020    20760974.942    -3463328.972 8   -384896.770 7
 86  6 10 23 54 17.0800000  0  4G 6G 8G 9G11
  20636527.101    20636528.020    -2782251.410 8     22405.888 9
  21496552.246    21496553.476     2306758.016 9   3958962.951 8
  22568635.716    22568637.218    -5454093.002 9  -1841534.832 8
  20759661.920    20759663.384    -3470221.237 8   -390267.380 6
 86  6 10 23 54 23.0800000  0  4G 6G 8G 9G11
  20635442.181    20635442.646    -2787956.007 9     17960.741 8
  21499403.996    21499405.813     2321743.088 9   3970639.618 9
  22565359.541    22565361.465    -5471302.337 9  -1854944.690 9
  20758355.090    20758356.146    -3477090.206 9   -395619.820 6
 86  6 10 23 54 29.0800000  0  4G 6G 8G 9G11
  20634359.098    20634360.113    -2793647.579 9     13525.756 9
  21502259.637    21502260.869     2336747.385 9   3982331.283 9
  22562086.621    22562088.468    -5488508.958 9  -1868352.441 8
  20757051.658    20757055.059    -3483935.862 8   -400954.097 8
 86  6 10 23 54 35.0800000  0  4G 6G 8G 9G11
  20633278.195    20633278.564    -2799326.159 9      9100.894 9
  21505119.301    21505119.444     2351770.909 9   3994037.916 9
  22558813.472    22558814.338    -5505712.844 9  -1881758.067 9
  20755754.329    20755755.788    -3490758.288 9   -406270.263 7
 86  6 10 23 54 41.0800000  0  4G 6G 8G 9G11
  20632200.623    20632201.271    -2804991.638 9      4686.223 8
  21507980.539    21507982.542     2366813.667 9   4005759.544 9
  22555539.979    22555540.559    -5522913.934 9  -1895161.507 8
  20754460.860    20754462.624    -3497557.382 9   -411568.258 8
 86  6 10 23 54 47.0800000  0  4G 6G 8G 9G11
  20631125.040    20631124.870    -2810644.072 9       281.743 8
  21510846.140    21510848.300     2381875.591 9   4017496.104 8
  22552266.751    22552268.762    -5540112.329 8  -1908562.838 8
  20753171.383    20753172.789    -3504333.156 9   -416848.078 7
 86  6 10 23 54 53.0800000  0  4G 6G 8G 9G11
  20630051.290    20630052.470    -2816283.471 9     -4112.608 9
  21513717.036    21513717.866     2396956.683 8   4029247.605 9
  22548994.282    22548994.946    -5557307.907 8  -1921962.003 8
  20751886.472    20751887.674    -3511085.620 9   -422109.743 8
 86  6 10 23 54 59.0800000  0  4G 6G 8G 9G11
  20628980.769    20628981.602    -2821909.755 9     -8496.725 9
  21516590.407    21516591.380     2412056.937 9   4041014.026 8
  22545723.309    22545723.830    -5574500.699 9  -1935358.978 8
  20750605.105    20750607.469    -3517814.758 8   -427353.216 8
 86  6 10 23 55  5.0800000  0  4G 6G 8G 9G11
  20627912.090    20627912.870    -2827522.905 9    -12870.597 9
  21519467.428    21519469.474     2427176.282 9   4052795.334 9
  22542451.547    22542452.885    -5591690.655 9  -1948753.737 8
  20749330.001    20749329.780    -3524520.542 9   -432578.499 7
 86  6 10 23 55 11.0800000  0  4G 6G 8G 9G11
  20626847.189    20626847.054    -2833122.945 9    -17234.265 8
  21522348.369    21522349.171     2442314.663 9   4064591.464 8
  22539181.275    22539182.676    -5608877.796 8  -1962146.318 9
  20748057.447    20748059.313    -3531203.046 8   -437785.644 7
 86  6 10 23 55 17.0800000  0  4G 6G 8G 9G11
  20625784.034    20625784.595    -2838709.889 9    -21587.737 9
  21525232.529    21525234.190     2457472.079 9   4076402.442 9
  22535910.585    22535911.459    -5626062.074 8  -1975536.658 9
  20746789.967    20746791.877    -3537862.262 8   -442974.656 7
 86  6 10 23 55 23.0800000  0  4G 6G 8G 9G11
  20624723.938    20624723.974    -2844283.620 9    -25930.901 8
  21528120.182    21528122.042     2472648.528 9   4088228.241 9
  22532641.258    22532642.660    -5643243.465 9  -1988924.756 8
  20745528.241    20745528.607    -3544498.134 8   -448145.452 8
 86  6 10 23 55 29.0800000  0  4G 6G 8G 9G11
  20623664.807    20623664.714    -2849844.170 9    -30263.798 8
  21531011.655    21531013.357     2487844.004 9   4100068.865 9
  22529372.996    22529373.768    -5660422.034 9  -2002310.651 9
  20744268.897    20744271.179    -3551110.641 7   -453298.063 6
 86  6 10 23 55 35.0800000  0  4G 6G 8G 9G11
  20622608.998    20622609.761    -2855391.546 9    -34586.421 9
  21533907.247    21533909.337     2503058.453 9   4111924.272 8
  22526104.032    22526104.890    -5677597.707 8  -2015694.298 8
  20743016.639    20743016.847    -3557699.807 9   -458432.465 7
 86  6 10 23 55 41.0800000  0  4G 6G 8G 9G11
  20621556.644    20621556.966    -2860925.738 9    -38898.772 8
  21536805.288    21536806.891     2518291.813 9   4123794.427 9
  22522836.069    22522837.021    -5694770.435 8  -2029075.631 9
  20741765.962    20741766.556    -3564265.651 8   -463548.721 7
 86  6 10 23 55 47.0800000  0  4G 6G 8G 9G11
  20620505.265    20620506.432    -2866446.649 9    -43200.794 7
  21539708.223    21539710.369     2533544.129 9   4135679.341 8
  22519567.922    22519570.734    -5711940.282 8  -2042454.724 8
  20740521.702    20740524.249    -3570808.132 8   -468646.759 7
 86  6 10 23 55 53.0800000  0  4G 6G 8G 9G11
  20619457.581    20619457.740    -2871954.343 9    -47492.499 9
  21542614.319    21542615.821     2548815.340 9   4147578.982 9
  22516301.627    22516303.193    -5729107.142 8  -2055831.499 8
  20739280.523    20739283.112    -3577327.229 9   -473726.571 6
 86  6 10 23 55 59.0800000  0  4G 6G 8G 9G11
  20618411.991    20618412.578    -2877448.761 9    -51773.867 9
  21545523.564    21545526.283     2564105.432 9   4159493.342 9
  22513035.626    22513036.914    -5746271.112 9  -2069206.016 8
  20738045.448    20738047.153    -3583823.009 8   -478788.206 8
 86  6 10 23 56  5.0800000  0  4G 6G 8G 9G11
  20617368.404    20617370.034    -2882929.921 9    -56044.893 8
  21548436.971    21548439.033     2579414.394 8   4171422.395 8
  22509770.025    22509771.992    -5763432.107 8  -2082578.218 8
  20736813.481    20736814.937    -3590295.489 8   -483831.704 6
 86  6 10 23 56 11.0800000  0  4G 6G 8G 9G11
  20616328.504    20616329.632    -2888397.743 9    -60305.534 8
  21551354.587    21551355.246     2594742.154 9   4183366.097 9
  22506505.568    22506506.514    -5780590.027 9  -2095948.026 8
  20735585.599    20735586.092    -3596744.568 8   -488856.963 6
 86  6 10 23 56 17.0800000  0  4G 6G 8G 9G11
  20615290.483    20615290.734    -2893852.231 9    -64555.795 8
  21554274.422    21554275.980     2610088.687 9   4195324.431 9
  22503240.568    22503241.985    -5797744.953 9  -2109315.490 8
  20734362.931    20734363.154    -3603170.237 8   -493863.965 7
 86  6 10 23 56 23.0800000  0  4G 6G 8G 9G11
  20614255.171    20614256.104    -2899293.445 9    -68795.698 9
  21557198.763    21557200.350     2625454.039 8   4207297.435 8
  22499976.784    22499978.945    -5814896.860 9  -2122680.616 8
  20733144.771    20733145.995    -3609572.486 8   -498852.739 8
 86  6 10 23 56 29.0800000  0  4G 6G 8G 9G11
  20613222.347    20613222.471    -2904721.281 9    -73025.179 9
  21560125.736    21560127.296     2640838.161 9   4219285.050 9
  22496713.016    22496714.733    -5832045.761 9  -2136043.387 8
  20731931.334    20731931.303    -3615951.337 9   -503823.255 7
 86  6 10 23 56 35.0800000  0  4G 6G 8G 9G11
  20612191.752    20612193.127    -2910135.722 9    -77244.226 8
  21563057.175    21563057.989     2656241.005 8   4231287.260 8
  22493450.248    22493452.272    -5849191.597 9  -2149403.781 9
  20730721.613    20730722.787    -3622306.803 9   -508775.566 7
 86  6 10 23 56 41.0800000  0  4G 6G 8G 9G11
  20611163.949    20611164.510    -2915536.819 9    -81452.874 9
  21565991.475    21565993.206     2671662.498 9   4243304.007 8
  22490187.873    22490189.376    -5866334.394 9  -2162761.796 9
  20729516.337    20729517.209    -3628638.864 9   -513709.648 7
 86  6 10 23 56 47.0800000  0  4G 6G 8G 9G11
  20610138.908    20610139.524    -2920924.507 9    -85651.077 9
  21568929.523    21568931.054     2687102.653 9   4255335.299 8
  22486928.597    22486928.567    -5883474.143 9  -2176117.443 8
  20728316.094    20728317.290    -3634947.573 8   -518625.516 6
 86  6 10 23 56 53.0800000  0  4G 6G 8G 9G11
  20609115.529    20609117.936    -2926298.849 9    -89838.867 9
  21571870.978    21571872.652     2702561.447 9   4267381.103 9
  22483665.686    22483667.840    -5900610.791 9  -2189470.682 8
  20727120.058    20727121.492    -3641232.979 8   -523523.222 7
 86  6 10 23 56 59.0800000  0  4G 6G 8G 9G11
  20608095.410    20608095.882    -2931659.722 9    -94016.170 9
  21574816.940    21574818.801     2718038.880 9   4279441.440 9
  22480405.379    22480406.002    -5917744.372 9  -2202821.518 8
  20725928.655    20725931.124    -3647494.955 9   -528402.697 7
 86  6 10 23 57  5.0800000  0  4G 6G 8G 9G11
  20607078.649    20607079.246    -2937007.133 9    -98182.983 9
  21577765.751    21577766.437     2733534.926 9   4291516.271 8
  22477145.395    22477147.319    -5934874.705 8  -2216169.827 8
  20724742.381    20724742.238    -3653733.510 8   -533263.905 7
 86  6 10 23 57 11.0800000  0  4G 6G 8G 9G11
  20606063.225    20606064.534    -2942341.070 9   -102339.302 9
  21580718.179    21580719.395     2749049.532 9   4303605.576 9
  22473886.813    22473886.763    -5952002.002 8  -2229515.764 8
  20723559.003    20723560.583    -3659948.611 8   -538106.833 7
 86  6 10 23 57 17.0800000  0  4G 6G 8G 9G11
  20605049.844    20605052.133    -2947661.554 8   -106485.132 8
  21583673.027    21583675.446     2764582.686 8   4315709.329 9
  22470628.331    22470629.799    -5969126.143 9  -2242859.248 8
  20722380.906    20722381.534    -3666140.288 9   -542931.518 7
 86  6 10 23 57 23.0800000  0  4G 6G 8G 9G11
  20604041.114    20604042.784    -2952968.545 9   -110620.447 8
  21586633.241    21586634.358     2780134.342 9   4327827.509 9
  22467369.269    22467372.259    -5986247.144 9  -2256200.291 7
  20721207.236    20721208.579    -3672308.523 9   -547737.929 8
 86  6 10 23 57 29.0800000  0  4G 6G 8G 9G11
  20603034.026    20603034.902    -2958262.018 9   -114745.231 9
  21589595.573    21589597.877     2795704.542 9   4339960.116 9
  22464112.089    22464113.864    -6003364.853 9  -2269538.763 9
  20720037.383    20720037.982    -3678453.304 8   -552526.073 8
 86  6 10 23 57 35.0800000  0  4G 6G 8G 9G11
  20602028.988    20602029.874    -2963541.966 9   -118859.477 8
  21592563.385    21592564.029     2811293.215 8   4352107.138 8
  22460856.283    22460857.334    -6020479.271 8  -2282874.650 9
  20718873.175    20718873.248    -3684574.707 9   -557295.994 7
 86  6 10 23 57 41.0800000  0  4G 6G 8G 9G11
  20601026.833    20601027.863    -2968808.330 9   -122963.137 8
  21595532.786    21595533.845     2826900.318 9   4364268.511 8
  22457599.417    22457601.235    -6037590.644 9  -2296208.191 9
  20717712.653    20717713.422    -3690672.703 8   -562047.665 7
 86  6 10 23 57 47.0800000  0  4G 6G 8G 9G11
  20600026.866    20600027.957    -2974061.184 9   -127056.266 8
  21598506.307    21598508.067     2842525.789 9   4376444.194 8
  22454344.784    22454345.664    -6054698.716 9  -2309539.160 9
  20716556.642    20716556.645    -3696747.274 9   -566781.107 7
 86  6 10 23 57 53.0800000  0  4G 6G 8G 9G11
  20599030.482    20599031.386    -2979300.485 9   -131138.841 9
  21601482.075    21601484.580     2858169.621 9   4388634.203 9
  22451089.814    22451089.579    -6071803.549 9  -2322867.600 8
  20715404.627    20715405.811    -3702798.432 9   -571496.286 8
 86  6 10 23 57 59.0800000  0  4G 6G 8G 9G11
  20598036.114    20598036.476    -2984526.149 9   -135210.791 8
  21604462.265    21604464.727     2873831.853 9   4400838.530 9
  22447835.018    22447835.505    -6088905.111 9  -2336193.488 9
  20714257.462    20714259.519    -3708826.151 8   -576193.209 7
 86  6 10 23 58  5.0800000  0  4G 6G 8G 9G11
  20597044.133    20597045.385    -2989738.230 8   -139272.144 8
  21607447.935    21607449.081     2889512.409 9   4413057.131 8
  22444581.143    22444582.446    -6106003.414 8  -2349516.837 9
  20713115.588    20713116.025    -3714830.346 9   -580871.801 7
 86  6 10 23 58 11.0800000  0  4G 6G 8G 9G11
  20596054.757    20596055.475    -2994936.675 9   -143322.894 9
  21610434.535    21610435.409     2905211.290 9   4425290.042 9
  22441328.442    22441329.301    -6123098.441 9  -2362837.628 8
  20711976.645    20711979.263    -3720811.052 8   -585532.088 8
 86  6 10 23 58 17.0800000  0  4G 6G 8G 9G11
  20595068.406    20595069.171    -3000121.462 8   -147362.975 8
  21613425.599    21613426.830     2920928.487 9   4437537.197 8
  22438075.884    22438076.419    -6140190.066 9  -2376155.774 7
  20710843.159    20710844.415    -3726768.301 9   -590174.098 7
 86  6 10 23 58 23.0800000  0  4G 6G 8G 9G11
  20594083.568    20594085.425    -3005292.634 9   -151392.461 9
  21616419.211    21616420.599     2936663.918 9   4449798.559 8
  22434823.663    22434824.185    -6157278.552 9  -2389471.480 8
  20709714.010    20709715.148    -3732702.130 8   -594797.858 7
 86  6 10 23 58 29.0800000  0  4G 6G 8G 9G11
  20593102.737    20593103.610    -3010450.067 8   -155411.235 8
  21619417.645    21619418.633     2952417.610 9   4462074.165 9
  22431572.020    22431573.787    -6174363.602 9  -2402784.497 9
  20708589.158    20708590.147    -3738612.508 9   -599403.340 7
 86  6 10 23 58 35.0800000  0  4G 6G 8G 9G11
  20592123.398    20592124.639    -3015593.819 9   -159419.359 9
  21622418.312    21622420.529     2968189.482 8   4474363.930 9
  22428322.224    22428323.811    -6191445.266 9  -2416094.879 8
  20707471.040    20707470.515    -3744499.474 8   -603990.592 7
 86  6 10 23 58 41.0800000  0  4G 6G 8G 9G11
  20591148.380    20591148.573    -3020723.851 9   -163416.787 8
  21625423.127    21625425.431     2983979.518 9   4486667.852 8
  22425072.442    22425073.723    -6208523.530 9  -2429402.594 8
  20706353.492    20706355.520    -3750362.992 9   -608559.571 7
 86  6 10 23 58 47.0800000  0  4G 6G 8G 9G11
  20590174.418    20590175.437    -3025840.141 9   -167403.504 8
  21628431.649    21628433.022     2999787.731 8   4498985.943 9
  22421822.775    22421824.040    -6225598.421 9  -2442707.716 9
  20705242.437    20705244.522    -3756202.987 8   -613110.211 7
 86  6 10 23 58 53.0800000  0  4G 6G 8G 9G11
  20589202.892    20589204.851    -3030942.703 9   -171379.517 8
  21631444.049    21631444.993     3015614.076 9   4511318.136 9
  22418574.588    22418575.331    -6242669.871 9  -2456010.142 8
  20704135.417    20704138.135    -3762019.516 9   -617642.566 7
 86  6 10 23 58 59.0800000  0  4G 6G 8G 9G11
  20588235.694    20588235.762    -3036031.498 9   -175344.822 8
  21634458.323    21634459.367     3031458.488 9   4523664.441 9
  22415325.964    22415326.908    -6259737.889 9  -2469309.888 8
  20703033.380    20703033.687    -3767812.558 9   -622156.628 8
 86  6 10 23 59  5.0800000  0  4G 6G 8G 9G11
  20587268.998    20587269.962    -3041106.539 9   -179299.389 9
  21637477.319    21637478.807     3047321.016 9   4536024.840 9
  22412079.051    22412080.539    -6276802.538 9  -2482607.013 9
  20701935.750    20701936.899    -3773582.057 9   -626652.338 7
 86  6 10 23 59 11.0800000  0  4G 6G 8G 9G11
  20586306.292    20586306.732    -3046167.776 9   -183243.220 9
  21640499.578    21640500.221     3063201.596 9   4548399.318 8
  22408832.674    22408834.098    -6293863.658 9  -2495901.386 9
  20700841.322    20700842.784    -3779328.075 8   -631129.740 7
 86  6 10 23 59 17.0800000  0  4G 6G 8G 9G11
  20585345.015    20585345.888    -3051215.155 9   -187176.240 8
  21643524.483    21643525.727     3079100.245 8   4560787.868 9
  22405586.097    22405587.077    -6310921.262 9  -2509193.038 9
  20699752.553    20699754.234    -3785050.638 9   -635588.891 6
 86  6 10 23 59 23.0800000  0  4G 6G 8G 9G11
  20584387.686    20584388.466    -3056248.753 9   -191098.518 9
  21646553.796    21646554.440     3095016.887 9   4573190.453 9
  22402340.787    22402342.954    -6327975.418 9  -2522481.982 8
  20698668.850    20698669.350    -3790749.718 8   -640029.732 8
 86  6 10 23 59 29.0800000  0  4G 6G 8G 9G11
  20583432.183    20583433.643    -3061268.472 9   -195009.991 8
  21649584.241    21649587.531     3110951.523 9   4585607.050 8
  22399097.315    22399097.801    -6345026.065 9  -2535768.200 8
  20697587.980    20697588.942    -3796425.337 9   -644452.284 7
 86  6 10 23 59 35.0800000  0  4G 6G 8G 9G11
  20582479.346    20582480.658    -3066274.315 9   -198910.654 8
  21652620.264    21652623.197     3126904.051 9   4598037.591 9
  22395852.427    22395853.672    -6362073.195 9  -2549051.659 9
  20696513.226    20696514.038    -3802077.467 9   -648856.536 7
 86  6 10 23 59 41.0800000  0  4G 6G 8G 9G11
  20581529.529    20581530.981    -3071266.310 9   -202800.513 9
  21655660.309    21655661.782     3142874.506 9   4610482.094 8
  22392610.043    22392610.421    -6379116.835 9  -2562332.415 8
  20695441.597    20695444.752    -3807706.127 9   -653242.502 8
 86  6 10 23 59 47.0800000  0  4G 6G 8G 9G11
  20580582.364    20580584.067    -3076244.400 9   -206679.552 9
  21658702.658    21658704.804     3158862.876 9   4622940.568 8
  22389367.729    22389367.394    -6396156.869 8  -2575610.363 8
  20694374.996    20694376.758    -3813311.314 9   -657610.181 8
 86  6 10 23 59 53.0800000  0  4G 6G 8G 9G11
  20579637.417    20579638.852    -3081208.573 9   -210547.730 8
  21661748.255    21661750.630     3174869.126 9   4635412.964 8
  22386124.445    22386126.083    -6413193.297 9  -2588885.505 8
  20693312.962    20693314.854    -3818893.014 8   -661959.558 7
 86  6 10 23 59 59.0800000  0  4G 6G 8G 9G11
  20578695.569    20578697.457    -3086158.856 9   -214405.094 9
  21664798.002    21664798.860     3190893.238 9   4647899.282 9
  22382883.771    22382884.435    -6430226.229 9  -2602157.909 8
  20692255.960    20692257.460    -3824451.212 9   -666290.608 8
 86  6 11  0  0  5.0800000  0  4G 6G 8G 9G11
  20577756.188    20577757.718    -3091095.206 8   -218251.599 9
  21667850.123    21667852.298     3206935.152 8   4660399.472 8
  22379643.790    22379644.234    -6447255.590 9  -2615427.521 8
  20691201.522    20691202.556    -3829985.863 8   -670603.341 7
 86  6 11  0  0 11.0800000  0  4G 6G 8G 9G11
  20576819.050    20576820.648    -3096017.566 9   -222087.205 8
  21670906.924    21670907.882     3222994.897 9   4672913.547 9
  22376403.509    22376404.660    -6464281.251 9  -2628694.277 8
  20690153.285    20690155.109    -3835496.977 7   -674897.704 8
 86  6 11  0  0 17.0800000  0  4G 6G 8G 9G11
  20575885.832    20575885.658    -3100925.901 8   -225911.875 8
  21673965.385    21673967.990     3239072.437 8   4685441.490 9
  22373163.099    22373165.280    -6481303.358 9  -2641958.244 9
  20689108.985    20689110.329    -3840984.574 8   -679173.746 8
 86  6 11  0  0 23.0800000  0  4G 6G 8G 9G11
  20574953.980    20574955.184    -3105820.232 9   -229725.648 9
  21677028.111    21677031.159     3255167.717 9   4697983.277 8
  22369925.851    22369925.945    -6498321.744 9  -2655219.318 9
  20688069.607    20688070.596    -3846448.641 8   -683431.458 7
 86  6 11  0  0 29.0800000  0  4G 6G 8G 9G11
  20574025.119    20574027.319    -3110700.570 9   -233528.500 8
  21680095.114    21680095.071     3271280.722 8   4710538.866 9
  22366687.172    22366688.332    -6515336.430 9  -2668477.514 8
  20687033.934    20687035.538    -3851889.166 8   -687670.834 7
 86  6 11  0  0 35.0800000  0  4G 6G 8G 9G11
  20573099.904    20573099.242    -3115566.895 9   -237320.440 8
  21683163.921    21683167.197     3287411.370 9   4723108.194 8
  22363450.634    22363451.908    -6532347.499 9  -2681732.881 8
  20686003.084    20686005.484    -3857306.217 8   -691891.920 7
 86  6 11  0  0 41.0800000  0  4G 6G 8G 9G11
  20572176.407    20572177.487    -3120419.168 9   -241101.432 9
  21686236.961    21686239.009     3303559.685 8   4735691.299 9
  22360213.437    22360214.990    -6549354.866 9  -2694985.361 8
  20684977.912    20684979.086    -3862699.720 8   -696094.640 7
 86  6 11  0  0 47.0800000  0  4G 6G 8G 9G11
  20571255.285    20571255.686    -3125257.379 9   -244871.472 8
  21689313.381    21689315.370     3319725.665 8   4748288.149 8
  22356978.936    22356979.852    -6566358.535 8  -2708234.971 8
  20683955.381    20683958.085    -3868069.734 8   -700279.060 7
 86  6 11  0  0 53.0800000  0  4G 6G 8G 9G11
  20570337.597    20570338.533    -3130081.560 9   -248630.570 9
  21692393.521    21692395.367     3335909.225 9   4760898.711 9
  22353743.722    22353744.429    -6583358.434 8  -2721481.644 8
  20682937.639    20682938.288    -3873416.199 8   -704445.134 8
 86  6 11  0  0 59.0800000  0  4G 6G 8G 9G11
  20569422.577    20569422.799    -3134891.640 9   -252378.690 8
  21695476.579    21695478.311     3352110.367 9   4773522.987 8
  22350508.836    22350510.223    -6600354.606 9  -2734725.400 8
  20681925.472    20681927.764    -3878739.161 8   -708592.895 7
 86  6 11  0  1  5.0800000  0  4G 6G 8G 9G11
  20568509.710    20568511.533    -3139687.569 9   -256115.770 8
  21698562.957    21698563.775     3368329.086 8   4786160.941 9
  22347276.017    22347276.682    -6617347.015 8  -2747966.233 9
  20680916.245    20680917.654    -3884038.539 8   -712722.276 8
 86  6 11  0  1 11.0800000  0  4G 6G 8G 9G11
  20567600.055    20567601.061    -3144469.414 9   -259841.897 8
  21701652.098    21701654.386     3384565.371 9   4798812.586 8
  22344042.004    22344044.192    -6634335.630 8  -2761204.107 9
  20679912.455    20679913.235    -3889314.318 8   -716833.267 7
 86  6 11  0  1 17.0800000  0  4G 6G 8G 9G11
  20566692.694    20566692.087    -3149237.129 9   -263556.990 8
  21704745.215    21704746.774     3400819.141 9   4811477.856 8
  22340811.417    22340811.382    -6651320.482 8  -2774439.059 8
  20678911.917    20678914.545    -3894566.632 9   -720925.982 8
 86  6 11  0  1 23.0800000  0  4G 6G 8G 9G11
  20565788.357    20565789.069    -3153990.639 9   -267261.029 8
  21707842.024    21707842.912     3417090.411 8   4824156.759 9
  22337578.965    22337580.317    -6668301.498 9  -2787671.013 9
  20677918.604    20677920.041    -3899795.395 9   -725000.328 7
 86  6 11  0  1 29.0800000  0  4G 6G 8G 9G11
  20564885.858    20564886.509    -3158729.960 9   -270954.007 8
  21710941.381    21710942.341     3433379.118 9   4836849.256 9
  22334349.042    22334349.622    -6685278.669 9  -2800899.967 9
  20676926.488    20676928.393    -3905000.599 8   -729056.331 8
 86  6 11  0  1 35.0800000  0  4G 6G 8G 9G11
  20563987.570    20563988.085    -3163455.134 9   -274635.960 8
  21714044.158    21714045.459     3449685.246 9   4849555.328 8
  22331118.321    22331119.223    -6702251.975 9  -2814125.911 9
  20675941.699    20675943.309    -3910182.273 9   -733094.003 7
 86  6 11  0  1 41.0800000  0  4G 6G 8G 9G11
  20563090.282    20563091.110    -3168166.077 9   -278306.824 9
  21717150.568    21717151.413     3466008.784 9   4862274.958 8
  22327889.988    22327890.760    -6719221.572 9  -2827348.981 9
  20674960.282    20674961.563    -3915340.407 9   -737113.335 8
 86  6 11  0  1 47.0800000  0  4G 6G 8G 9G11
  20562197.103    20562198.684    -3172862.789 9   -281966.598 8
  21720260.399    21720261.573     3482349.712 9   4875008.159 8
  22324660.682    22324662.385    -6736187.115 9  -2840568.869 8
  20673983.242    20673984.810    -3920475.008 8   -741114.318 7
 86  6 11  0  1 53.0800000  0  4G 6G 8G 9G11
  20561305.808    20561306.804    -3177545.289 9   -285615.294 8
  21723372.978    21723374.966     3498707.990 9   4887754.855 9
  22321433.279    22321435.025    -6753148.801 9  -2853785.762 9
  20673009.988    20673011.316    -3925586.048 9   -745096.941 7
 86  6 11  0  1 59.0800000  0  4G 6G 8G 9G11
  20560417.340    20560418.464    -3182213.502 9   -289252.865 9
  21726488.675    21726490.478     3515083.580 9   4900515.046 8
  22318205.877    22318208.596    -6770106.551 9  -2866999.592 9
  20672041.789    20672042.361    -3930673.517 9   -749061.191 8
 86  6 11  0  2  5.0800000  0  4G 6G 8G 9G11
  20559531.669    20559532.338    -3186867.454 9   -292879.330 8
  21729609.210    21729609.997     3531476.465 9   4913288.732 9
  22314980.692    22314981.744    -6787060.405 9  -2880210.369 9
  20671077.907    20671081.280    -3935737.472 9   -753007.138 8
 86  6 11  0  2 11.0800000  0  4G 6G 8G 9G11
  20558648.859    20558650.784    -3191507.104 9   -296494.630 8
  21732731.375    21732732.578     3547886.647 8   4926075.880 9
  22311754.614    22311756.781    -6804010.322 9  -2893418.098 8
  20670119.159    20670119.824    -3940777.907 9   -756934.744 8
 86  6 11  0  2 17.0800000  0  4G 6G 8G 9G11
  20557768.879    20557769.974    -3196132.457 9   -300098.808 9
  21735857.719    21735858.935     3564314.061 9   4938876.461 7
  22308530.402    22308530.531    -6820956.255 8  -2906622.713 9
  20669164.961    20669167.006    -3945794.819 8   -760844.034 7
 86  6 11  0  2 23.0800000  0  4G 6G 8G 9G11
  20556891.426    20556892.496    -3200743.512 9   -303691.835 8
  21738987.639    21738988.527     3580758.694 9   4951690.452 8
  22305305.946    22305306.677    -6837898.214 9  -2919824.239 9
  20668214.333    20668215.428    -3950788.173 8   -764734.954 7
 86  6 11  0  2 29.0800000  0  4G 6G 8G 9G11
  20556016.483    20556017.225    -3205340.196 9   -307273.668 7
  21742119.507    21742120.980     3597220.552 8   4964517.871 8
  22302082.844    22302084.705    -6854836.171 9  -2933022.629 8
  20667268.306    20667270.277    -3955757.934 8   -768607.492 7
 86  6 11  0  2 35.0800000  0  4G 6G 8G 9G11
  20555144.058    20555145.579    -3209922.527 9   -310844.308 8
  21745254.880    21745256.840     3613699.592 9   4977358.673 8
  22298861.995    22298862.160    -6871770.091 9  -2946217.892 8
  20666326.912    20666328.582    -3960704.096 9   -772461.637 7
 86  6 11  0  2 41.0800000  0  4G 6G 8G 9G11
  20554275.226    20554276.786    -3214490.508 9   -314403.784 9
  21748393.758    21748395.734     3630195.776 9   4990212.844 8
  22295638.900    22295640.216    -6888700.053 8  -2959410.065 8
  20665390.686    20665391.709    -3965626.698 8   -776297.429 8
 86  6 11  0  2 47.0800000  0  4G 6G 8G 9G11
  20553408.819    20553409.231    -3219044.044 9   -317951.990 9
  21751536.629    21751538.718     3646709.074 9   5003080.343 8
  22292417.557    22292418.487    -6905625.942 8  -2972599.061 8
  20664458.154    20664460.209    -3970525.729 9   -780114.855 8
 86  6 11  0  2 53.0800000  0  4G 6G 8G 9G11
  20552544.283    20552545.033    -3223583.212 9   -321489.001 8
  21754681.274    21754684.079     3663239.461 9   5015961.160 9
  22289197.839    22289198.311    -6922547.714 9  -2985784.842 8
  20663530.390    20663531.890    -3975401.217 8   -783913.927 8
 86  6 11  0  2 59.0800000  0  4G 6G 8G 9G11
  20551683.941    20551684.438    -3228107.929 9   -325014.755 9
  21757830.827    21757831.586     3679786.886 8   5028855.262 8
  22285978.085    22285978.850    -6939465.535 9  -2998967.564 8
  20662607.186    20662607.966    -3980253.158 8   -787694.652 7
 86  6 11  0  3  5.0800000  0  4G 6G 8G 9G11
  20550826.445    20550826.206    -3232618.198 9   -328529.249 9
  21760983.058    21760984.416     3696351.381 9   5041762.650 8
  22282760.132    22282761.406    -6956379.137 9  -3012146.989 8
  20661688.625    20661689.112    -3985081.497 9   -791456.996 8
 86  6 11  0  3 11.0800000  0  4G 6G 8G 9G11
  20549970.616    20549970.938    -3237114.035 9   -332032.498 9
  21764138.849    21764140.652     3712932.908 8   5054683.305 9
  22279541.917    22279543.511    -6973288.693 9  -3025323.259 8
  20660775.072    20660775.641    -3989886.258 8   -795200.964 9
 86  6 11  0  3 17.0800000  0  4G 6G 8G 9G11
  20549117.676    20549118.032    -3241595.397 9   -335524.468 8
  21767296.743    21767299.577     3729531.387 9   5067617.184 8
  22276324.924    22276326.377    -6990194.059 9  -3038496.265 8
  20659864.156    20659866.024    -3994667.437 8   -798926.560 7
 86  6 11  0  3 23.0800000  0  4G 6G 8G 9G11
  20548267.043    20548267.890    -3246062.209 9   -339005.097 9
  21770458.846    21770461.308     3746146.831 9   5080564.283 8
  22273109.477    22273109.627    -7007095.318 9  -3051666.074 8
  20658959.296    20658960.216    -3999425.008 9   -802633.758 7
 86  6 11  0  3 29.0800000  0  4G 6G 8G 9G11
  20547420.056    20547421.930    -3250514.535 9   -342474.447 8
  21773624.612    21773626.501     3762779.228 9   5093524.592 8
  22269893.522    22269894.653    -7023992.382 9  -3064832.606 9
  20658058.402    20658059.416    -4004158.991 8   -806322.565 7
 86  6 11  0  3 35.0800000  0  4G 6G 8G 9G11
  20546576.225    20546576.876    -3254952.387 9   -345932.507 8
  21776791.108    21776794.099     3779428.530 9   5106498.056 8
  22266678.583    22266680.543    -7040885.341 9  -3077995.948 7
  20657161.911    20657163.560    -4008869.396 9   -809993.002 8
 86  6 11  0  3 41.0800000  0  4G 6G 8G 9G11
  20545733.911    20545734.473    -3259375.681 9   -349379.228 8
  21779964.113    21779965.988     3796094.692 9   5119484.682 8
  22263464.609    22263465.704    -7057774.036 9  -3091155.966 9
  20656270.068    20656270.773    -4013556.196 8   -813645.063 8
 86  6 11  0  3 47.0800000  0  4G 6G 8G 9G11
  20544894.905    20544897.116    -3263784.404 9   -352814.598 8
  21783137.992    21783140.540     3812777.731 9   5132484.454 9
  22260251.659    22260252.419    -7074658.521 9  -3104312.708 8
  20655381.915    20655384.384    -4018219.408 8   -817278.736 8
 86  6 11  0  3 53.0800000  0  4G 6G 8G 9G11
  20544058.136    20544059.038    -3268178.595 8   -356238.638 9
  21786315.891    21786318.180     3829477.605 9   5145497.339 9
  22257040.898    22257040.447    -7091538.846 9  -3117466.194 8
  20654501.211    20654501.413    -4022859.041 8   -820894.025 8
 86  6 11  0  3 59.0800000  0  4G 6G 8G 9G11
  20543225.327    20543226.250    -3272558.161 8   -359651.291 9
  21789497.326    21789499.429     3846194.298 9   5158523.319 9
  22253828.334    22253828.477    -7108414.894 9  -3130616.366 8
  20653620.825    20653621.695    -4027475.106 9   -824490.966 8
 86  6 11  0  4  5.0800000  0  4G 6G 8G 9G11
  20542394.459    20542396.495    -3276923.147 9   -363052.573 8
  21792682.624    21792682.967     3862927.698 9   5171562.342 8
  22250618.225    22250618.303    -7125286.755 9  -3143763.265 8
  20652747.106    20652748.862    -4032067.629 9   -828069.550 8
 86  6 11  0  4 11.0800000  0  4G 6G 8G 9G11
  20541566.243    20541568.178    -3281273.489 9   -366442.448 9
  21795869.624    21795870.625     3879677.872 9   5184614.417 8
  22247408.336    22247408.894    -7142154.308 8  -3156906.799 8
  20651877.303    20651879.832    -4036636.590 9   -831629.771 8
 86  6 11  0  4 17.0800000  0  4G 6G 8G 9G11
  20540741.021    20540742.305    -3285609.197 9   -369820.931 8
  21799060.532    21799060.431     3896444.814 9   5197679.553 8
  22244199.199    22244199.901    -7159017.529 8  -3170046.972 8
  20651012.674    20651014.895    -4041181.981 9   -835171.643 8
 86  6 11  0  4 23.0800000  0  4G 6G 8G 9G11
  20539919.277    20539920.286    -3289930.267 8   -373187.995 9
  21802253.913    21802255.615     3913228.450 9   5210757.718 8
  22240990.964    22240992.301    -7175876.352 8  -3183183.716 9
  20650152.535    20650153.474    -4045703.752 8   -838695.089 8
 86  6 11  0  4 29.0800000  0  4G 6G 8G 9G11
  20539099.332    20539101.588    -3294236.665 9   -376543.626 9
  21805450.843    21805452.661     3930028.756 9   5223848.857 9
  22237783.552    22237785.390    -7192730.938 9  -3196317.151 8
  20649296.997    20649297.559    -4050201.933 9   -842200.167 8
 86  6 11  0  4 35.0800000  0  4G 6G 8G 9G11
  20538282.702    20538284.136    -3298528.394 9   -379887.826 9
  21808650.208    21808652.196     3946845.669 9   5236952.948 9
  22234577.312    22234578.199    -7209581.131 9  -3209447.176 8
  20648444.642    20648446.792    -4054676.508 8   -845686.839 9
 86  6 11  0  4 41.0800000  0  4G 6G 8G 9G11
  20537469.568    20537469.911    -3302805.419 8   -383220.565 8
  21811854.564    21811855.738     3963679.243 9   5250070.012 8
  22231371.789    22231372.089    -7226426.970 9  -3222573.795 8
  20647598.246    20647599.222    -4059127.534 8   -849155.169 8
 86  6 11  0  4 47.0800000  0  4G 6G 8G 9G11
  20536658.601    20536658.701    -3307067.714 9   -386541.838 9
  21815060.196    21815062.315     3980529.405 9   5263199.999 8
  22228165.834    22228167.602    -7243268.389 9  -3235696.974 8
  20646755.653    20646757.341    -4063554.957 8   -852605.119 9
 86  6 11  0  4 53.0800000  0  4G 6G 8G 9G11
  20535848.977    20535850.260    -3311315.273 9   -389851.618 8
  21818271.206    21818271.981     3997396.149 9   5276342.910 8
  22224962.829    22224964.061    -7260105.375 9  -3248816.695 8
  20645916.776    20645919.094    -4067958.769 8   -856036.663 8
 86  6 11  0  4 59.0800000  0  4G 6G 8G 9G11
  20535044.246    20535045.461    -3315548.080 9   -393149.914 9
  21821483.421    21821484.222     4014279.431 9   5289498.722 8
  22221760.153    22221760.869    -7276938.000 9  -3261933.021 9
  20645082.894    20645084.754    -4072338.970 8   -859449.801 8
 86  6 11  0  5  5.0800000  0  4G 6G 8G 9G11
  20534241.799    20534242.826    -3319766.110 8   -396436.686 8
  21824698.982    21824700.670     4031179.214 9   5302667.372 9
  22218556.776    22218557.712    -7293766.207 9  -3275045.906 8
  20644254.688    20644255.833    -4076695.601 7   -862844.564 8
 86  6 11  0  5 11.0800000  0  4G 6G 8G 9G11
  20533441.869    20533442.838    -3323969.352 9   -399711.941 9
  21827918.865    21827919.438     4048095.514 9   5315848.905 9
  22215355.258    22215357.906    -7310589.879 9  -3288155.257 8
  20643430.078    20643431.970    -4081028.666 8   -866220.986 8
 86  6 11  0  5 17.0800000  0  4G 6G 8G 9G11
  20532644.768    20532645.613    -3328157.782 9   -402975.657 9
  21831139.363    21831141.639     4065028.280 9   5329043.255 9
  22212154.471    22212157.054    -7327409.215 9  -3301261.225 8
  20642609.224    20642611.667    -4085338.087 8   -869578.978 7
 86  6 11  0  5 23.0800000  0  4G 6G 8G 9G11
  20531850.483    20531850.909    -3332331.415 8   -406227.831 9
  21834365.328    21834367.158     4081977.471 9   5342250.423 8
  22208955.831    22208957.189    -7344224.005 9  -3314363.651 8
  20641793.799    20641795.842    -4089623.894 9   -872918.557 8
 86  6 11  0  5 29.0800000  0  4G 6G 8G 9G11
  20531059.059    20531060.698    -3336490.208 8   -409468.446 9
  21837594.082    21837595.999     4098943.076 9   5355470.364 8
  22205757.046    22205758.491    -7361034.345 9  -3327462.616 9
  20640983.098    20640986.603    -4093886.151 8   -876239.797 8
 86  6 11  0  5 35.0800000  0  4G 6G 8G 9G11
  20530270.151    20530271.753    -3340634.162 8   -412697.511 9
  21840826.142    21840826.614     4115925.045 9   5368703.057 8
  22202559.134    22202560.107    -7377840.073 9  -3340557.978 8
  20640176.991    20640179.082    -4098124.755 9   -879542.595 8
 86  6 11  0  5 41.0800000  0  4G 6G 8G 9G11
  20529485.173    20529486.153    -3344763.267 9   -415914.979 9
  21844060.506    21844061.980     4132923.382 9   5381948.525 8
  22199361.066    22199362.253    -7394641.316 9  -3353649.843 9
  20639374.765    20639376.446    -4102339.798 8   -882827.054 7
 86  6 11  0  5 47.0800000  0  4G 6G 8G 9G11
  20528702.207    20528702.572    -3348877.508 9   -419120.887 8
  21847299.077    21847299.748     4149938.051 8   5395206.692 7
  22196165.472    22196166.045    -7411437.993 9  -3366738.172 8
  20638576.272    20638578.798    -4106531.257 8   -886093.117 8
 86  6 11  0  5 53.0800000  0  4G 6G 8G 9G11
  20527922.014    20527922.906    -3352976.853 9   -422315.183 8
  21850539.365    21850539.808     4166969.014 9   5408477.569 9
  22192970.087    22192970.559    -7428230.160 9  -3379822.963 9
  20637784.402    20637786.017    -4110699.124 9   -889340.803 8
 86  6 11  0  5 59.0800000  0  4G 6G 8G 9G11
  20527144.903    20527145.745    -3357061.245 9   -425497.828 8
  21853782.771    21853784.360     4184016.246 9   5421761.132 9
  22189775.267    22189776.197    -7445017.657 8  -3392904.136 9
  20636994.862    20636997.314    -4114843.378 9   -892570.099 8
 86  6 11  0  6  5.0800000  0  4G 6G 8G 9G11
  20526370.681    20526371.678    -3361130.770 8   -428668.879 8
  21857030.772    21857031.488     4201079.722 9   5435057.338 9
  22186582.191    22186583.165    -7461800.572 9  -3405981.718 9
  20636210.984    20636212.827    -4118964.087 8   -895781.029 8
 86  6 11  0  6 11.0800000  0  4G 6G 8G 9G11
  20525599.576    20525599.293    -3365185.314 9   -431828.267 8
  21860280.704    21860281.448     4218159.404 9   5448366.182 8
  22183387.865    22183391.198    -7478578.818 9  -3419055.671 8
  20635431.512    20635432.853    -4123061.179 8   -898973.571 8
 86  6 11  0  6 17.0800000  0  4G 6G 8G 9G11
  20524830.328    20524831.526    -3369224.881 8   -434975.979 9
  21863534.901    21863534.701     4235255.299 9   5461687.644 9
  22180197.065    22180196.787    -7495352.509 9  -3432126.090 9
  20634655.605    20634657.675    -4127134.666 8   -902147.705 8
 86  6 11  0  6 23.0800000  0  4G 6G 8G 9G11
  20524063.451    20524065.526    -3373249.465 9   -438112.019 9
  21866790.185    21866790.356     4252367.387 8   5475021.746 7
  22177005.829    22177006.652    -7512121.420 9  -3445192.768 8
  20633885.664    20633887.847    -4131184.523 9   -905303.441 8
 86  6 11  0  6 29.0800000  0  4G 6G 8G 9G11
  20523301.112    20523302.946    -3377259.089 8   -441236.407 9
  21870049.605    21870051.335     4269495.577 9   5488368.377 9
  22173815.880    22173816.997    -7528885.811 9  -3458255.914 9
  20633117.459    20633121.032    -4135210.839 8   -908440.829 8
 86  6 11  0  6 35.0800000  0  4G 6G 8G 9G11
  20522541.372    20522542.506    -3381253.686 9   -444349.071 8
  21873311.914    21873313.630     4286639.919 9   5501727.597 9
  22170626.612    22170626.820    -7545645.461 9  -3471315.371 8
  20632356.956    20632359.522    -4139213.532 8   -911559.825 8
 86  6 11  0  6 41.0800000  0  4G 6G 8G 9G11
  20521783.414    20521784.476    -3385233.216 8   -447450.014 8
  21876577.358    21876579.217     4303800.354 9   5515099.363 8
  22167437.380    22167438.216    -7562400.334 9  -3484371.120 9
  20631600.172    20631602.758    -4143192.647 8   -914660.425 8
 86  6 11  0  6 47.0800000  0  4G 6G 8G 9G11
  20521028.851    20521030.064    -3389197.765 9   -450539.261 9
  21879846.277    21879847.237     4320976.859 8   5528483.659 9
  22164250.544    22164251.746    -7579150.533 9  -3497423.214 8
  20630847.852    20630849.861    -4147148.169 8   -917742.637 8
 86  6 11  0  6 53.0800000  0  4G 6G 8G 9G11
  20520276.852    20520278.720    -3393147.225 9   -453616.761 9
  21883118.045    21883118.317     4338169.406 9   5541880.442 9
  22161063.658    22161064.860    -7595895.935 9  -3510471.567 8
  20630099.116    20630101.069    -4151080.006 8   -920806.415 7
 86  6 11  0  6 59.0800000  0  4G 6G 8G 9G11
  20519528.997    20519530.016    -3397081.609 9   -456682.519 7
  21886391.989    21886394.292     4355377.961 8   5555289.701 8
  22157878.846    22157878.918    -7612636.563 9  -3523516.212 8
  20629353.990    20629358.000    -4154988.272 8   -923851.805 8
 86  6 11  0  7  5.0800000  0  4G 6G 8G 9G11
  20518783.076    20518785.672    -3401000.922 9   -459736.528 8
  21889670.153    21889671.812     4372602.504 9   5568711.417 8
  22154692.876    22154694.657    -7629372.465 9  -3536557.172 8
  20628616.350    20628618.138    -4158872.964 8   -926878.835 8
 86  6 11  0  7 11.0800000  0  4G 6G 8G 9G11
  20518040.636    20518041.331    -3404905.105 9   -462778.750 9
  21892950.993    21892950.478     4389843.030 9   5582145.592 8
  22151508.644    22151511.699    -7646103.523 9  -3549594.369 8
  20627881.499    20627883.666    -4162734.133 8   -929887.537 8
 86  6 11  0  7 17.0800000  0  4G 6G 8G 9G11
  20517300.083    20517301.678    -3408794.160 8   -465809.183 9
  21896234.667    21896236.269     4407099.494 9   5595592.187 8
  22148326.358    22148327.153    -7662829.732 8  -3562627.757 9
  20627150.730    20627153.067    -4166571.677 8   -932877.832 7
 86  6 11  0  7 23.0800000  0  4G 6G 8G 9G11
  20516563.996    20516564.640    -3412668.044 9   -468827.793 8
  21899521.988    21899522.575     4424371.874 9   5609051.182 9
  22145144.517    22145146.391    -7679551.159 9  -3575657.436 9
  20626425.605    20626428.694    -4170385.574 8   -935849.711 8
 86  6 11  0  7 29.0800000  0  4G 6G 8G 9G11
  20515828.671    20515829.841    -3416526.830 9   -471834.639 8
  21902812.000    21902812.287     4441660.085 9   5622522.497 9
  22141963.576    22141963.926    -7696267.682 9  -3588683.304 8
  20625703.220    20625706.376    -4174175.949 8   -938803.239 8
 86  6 11  0  7 35.0800000  0  4G 6G 8G 9G11
  20515096.763    20515098.959    -3420370.413 9   -474829.633 9
  21906104.760    21906106.177     4458964.168 9   5636006.204 9
  22138783.094    22138784.344    -7712979.376 9  -3601705.392 8
  20624988.242    20624989.223    -4177942.657 8   -941738.334 7
 86  6 11  0  7 41.0800000  0  4G 6G 8G 9G11
  20514368.457    20514369.148    -3424198.828 9   -477812.808 8
  21909400.582    21909401.726     4476284.108 8   5649502.257 8
  22135605.336    22135605.944    -7729686.213 9  -3614723.709 8
  20624275.313    20624277.338    -4181685.774 8   -944655.050 8
 86  6 11  0  7 47.0800000  0  4G 6G 8G 9G11
  20513643.560    20513644.277    -3428011.982 9   -480784.101 9
  21912698.822    21912700.309     4493619.846 8   5663010.622 9
  22132426.270    22132427.930    -7746388.080 9  -3627738.143 9
  20623567.626    20623569.422    -4185405.286 7   -947553.371 7
 86  6 11  0  7 53.0800000  0  4G 6G 8G 9G11
  20512920.109    20512921.269    -3431809.972 8   -483743.574 8
  21916000.353    21916002.128     4510971.323 8   5676531.253 8
  22129249.522    22129249.329    -7763085.065 9  -3640748.784 9
  20622863.781    20622866.146    -4189101.256 8   -950433.348 8
 86  6 11  0  7 59.0800000  0  4G 6G 8G 9G11
  20512200.507    20512201.094    -3435592.716 9   -486691.168 8
  21919306.277    21919306.234     4528338.558 9   5690064.159 8
  22126072.294    22126074.533    -7779777.152 9  -3653755.593 9
  20622164.688    20622166.711    -4192773.664 8   -953294.962 8
 86  6 11  0  8  5.0800000  0  4G 6G 8G 9G11
  20511482.595    20511484.722    -3439360.181 9   -489626.854 9
  21922613.389    21922615.006     4545721.525 8   5703609.326 8
  22122896.555    22122898.216    -7796464.250 9  -3666758.520 9
  20621469.552    20621472.341    -4196422.418 8   -956138.144 8
 86  6 11  0  8 11.0800000  0  4G 6G 8G 9G11
  20510769.590    20510770.814    -3443112.404 9   -492550.657 8
  21925924.894    21925925.410     4563120.199 9   5717166.728 8
  22119721.976    22119724.908    -7813146.367 9  -3679757.578 9
  20620780.088    20620784.677    -4200047.580 7   -958962.947 8
 86  6 11  0  8 17.0800000  0  4G 6G 8G 9G11
  20510057.741    20510059.405    -3446849.376 9   -495462.595 8
  21929238.875    21929239.476     4580534.517 8   5730736.318 8
  22116549.527    22116550.328    -7829823.516 9  -3692752.756 9
  20620094.062    20620097.617    -4203649.161 8   -961769.372 7
 86  6 11  0  8 23.0800000  0  4G 6G 8G 9G11
  20509350.748    20509350.516    -3450571.040 9   -498362.586 9
  21932555.044    21932556.545     4597964.477 9   5744318.110 8
  22113376.257    22113377.958    -7846495.676 9  -3705744.044 8
  20619413.978    20619416.485    -4207227.122 8   -964557.401 8
 86  6 11  0  8 29.0800000  0  4G 6G 8G 9G11
  20508644.526    20508645.512    -3454277.371 9   -501250.636 9
  21935876.207    21935876.365     4615410.047 8   5757912.063 9
  22110204.559    22110205.961    -7863162.803 9  -3718731.408 8
  20618737.285    20618741.552    -4210781.552 8   -967327.078 7
 86  6 11  0  8 35.0800000  0  4G 6G 8G 9G11
  20507943.046    20507943.059    -3457968.420 9   -504126.783 9
  21939198.099    21939199.302     4632871.201 8   5771518.147 8
  22107034.000    22107035.617    -7879824.909 9  -3731714.858 9
  20618065.354    20618068.462    -4214312.396 7   -970078.382 9
 86  6 11  0  8 41.0800000  0  4G 6G 8G 9G11
  20507243.493    20507244.518    -3461644.044 9   -506990.898 9
  21942522.797    21942525.016     4650347.952 9   5785136.391 9
  22103864.206    22103865.086    -7896481.974 9  -3744694.373 9
  20617398.202    20617401.905    -4217819.626 7   -972811.288 8
 86  6 11  0  8 47.0800000  0  4G 6G 8G 9G11
  20506546.690    20506547.684    -3465304.371 9   -509843.109 9
  21945852.604    21945853.477     4667840.195 9   5798766.702 8
  22100694.513    22100695.800    -7913133.897 9  -3757669.902 9
  20616735.744    20616739.202    -4221303.285 8   -975525.828 8
 86  6 11  0  8 53.0800000  0  4G 6G 8G 9G11
  20505853.117    20505854.139    -3468949.304 9   -512683.313 9
  21949183.512    21949185.772     4685347.974 9   5812409.122 9
  22097527.679    22097528.139    -7929780.671 9  -3770641.412 8
  20616076.627    20616079.828    -4224763.291 8   -978221.937 7
 86  6 11  0  8 59.0800000  0  4G 6G 8G 9G11
  20505162.457    20505164.111    -3472578.818 9   -515511.499 8
  21952518.026    21952519.442     4702871.220 9   5826063.586 9
  22094361.022    22094360.799    -7946422.463 9  -3783609.032 9
  20615422.653    20615427.111    -4228199.731 8   -980899.676 8
 86  6 11  0  9  5.0800000  0  4G 6G 8G 9G11
  20504475.220    20504475.542    -3476192.923 9   -518327.693 9
  21955855.087    21955857.320     4720409.873 9   5839730.078 8
  22091194.683    22091195.842    -7963059.050 9  -3796572.608 8
  20614773.882    20614776.396    -4231612.543 8   -983559.026 8
 86  6 11  0  9 11.0800000  0  4G 6G 8G 9G11
  20503789.706    20503790.646    -3479791.571 9   -521131.833 8
  21959196.354    21959196.942     4737964.037 9   5853408.637 8
  22088029.977    22088031.679    -7979690.443 9  -3809532.122 9
  20614128.322    20614131.524    -4235001.714 8   -986199.924 8
 86  6 11  0  9 17.0800000  0  4G 6G 8G 9G11
  20503108.170    20503110.067    -3483374.780 9   -523923.950 8
  21962540.312    21962540.885     4755533.614 8   5867099.218 8
  22084866.335    22084866.944    -7996316.717 9  -3822487.661 8
  20613487.999    20613492.085    -4238367.318 8   -988822.474 8
 86  6 11  0  9 23.0800000  0  4G 6G 8G 9G11
  20502429.355    20502430.020    -3486942.537 9   -526704.010 9
  21965885.601    21965887.634     4773118.579 9   5880801.791 9
  22081703.303    22081704.240    -8012937.764 9  -3835439.122 9
  20612852.020    20612856.445    -4241709.316 9   -991426.626 8
 86  6 11  0  9 29.0800000  0  4G 6G 8G 9G11
  20501753.389    20501753.986    -3490494.793 9   -529472.010 9
  21969235.254    21969236.184     4790718.870 9   5894516.291 9
  22078541.895    22078542.394    -8029553.569 8  -3848386.508 9
  20612218.932    20612224.290    -4245027.765 8   -994012.437 7
 86  6 11  0  9 35.0800000  0  4G 6G 8G 9G11
  20501079.884    20501080.857    -3494031.597 9   -532227.965 8
  21972587.354    21972587.912     4808334.468 8   5908242.726 8
  22075380.907    22075381.565    -8046164.210 9  -3861329.860 9
  20611594.211    20611597.517    -4248322.703 8   -996579.917 8
 86  6 11  0  9 41.0800000  0  4G 6G 8G 9G11
  20500410.757    20500411.476    -3497552.851 9   -534971.807 8
  21975942.960    21975944.334     4825965.382 9   5921981.097 9
  22072220.642    22072221.165    -8062769.667 8  -3874269.170 8
  20610970.940    20610974.635    -4251594.092 8   -999129.041 8
 86  6 11  0  9 47.0800000  0  4G 6G 8G 9G11
  20499742.998    20499743.752    -3501058.565 9   -537703.521 9
  21979301.141    21979301.298     4843611.588 9   5935731.381 9
  22069061.562    22069062.247    -8079369.741 9  -3887204.292 8
  20610353.431    20610356.145    -4254841.915 8  -1001659.817 8
 86  6 11  0  9 53.0800000  0  4G 6G 8G 9G11
  20499078.413    20499080.617    -3504548.771 8   -540423.159 9
  21982661.583    21982662.442     4861273.074 9   5949493.566 9
  22065904.352    22065905.352    -8095964.566 9  -3900135.328 9
  20609740.955    20609743.311    -4258066.178 8  -1004172.216 8
 86  6 11  0  9 59.0800000  0  4G 6G 8G 9G11
  20498418.202    20498419.233    -3508023.422 9   -543130.684 9
  21986025.359    21986026.418     4878949.758 9   5963267.601 9
  22062745.698    22062748.551    -8112554.110 9  -3913062.233 9
  20609129.698    20609134.083    -4261266.771 7  -1006666.200 8
 86  6 11  0 10  5.0800000  0  4G 6G 8G 9G11
  20497759.214    20497759.778    -3511482.505 9   -545826.066 8
  21989391.797    21989392.942     4896641.589 9   5977053.450 9
  22059590.500    22059591.829    -8129138.274 8  -3925984.968 7
  20608525.181    20608528.764    -4264443.851 8  -1009141.846 8
 86  6 11  0 10 11.0800000  0  4G 6G 8G 9G11
  20497103.805    20497105.168    -3514925.995 8   -548509.311 9
  21992761.239    21992763.043     4914348.618 9   5990851.134 9
  22056435.952    22056437.425    -8145717.120 9  -3938903.529 8
  20607926.774    20607929.223    -4267597.295 7  -1011599.068 8
 86  6 11  0 10 17.0800000  0  4G 6G 8G 9G11
  20496451.933    20496452.480    -3518353.882 8   -551180.392 8
  21996134.302    21996135.088     4932070.772 8   6004660.595 9
  22053282.650    22053283.235    -8162290.553 9  -3951817.887 8
  20607330.492    20607333.943    -4270727.177 7  -1014037.931 8
 86  6 11  0 10 23.0800000  0  4G 6G 8G 9G11
  20495801.340    20495803.805    -3521766.154 8   -553839.303 8
  21999508.052    21999510.054     4949808.069 8   6018481.862 8
  22050128.932    22050130.212    -8178858.649 9  -3964728.092 8
  20606740.386    20606742.680    -4273833.503 8  -1016458.448 7
 86  6 11  0 10 29.0800000  0  4G 6G 8G 9G11
  20495156.550    20495157.122    -3525162.793 8   -556486.036 9
  22002886.424    22002888.485     4967560.457 9   6032314.883 9
  22046978.233    22046979.364    -8195421.412 9  -3977634.137 9
  20606152.694    20606155.942    -4276916.219 8  -1018860.566 8
 86  6 11  0 10 35.0800000  0  4G 6G 8G 9G11
  20494511.860    20494513.509    -3528543.750 9   -559120.552 9
  22006268.615    22006269.402     4985327.905 8   6046159.649 8
  22043827.607    22043828.179    -8211978.758 9  -3990535.960 9
  20605570.399    20605574.359    -4279975.343 8  -1021244.284 8
 86  6 11  0 10 41.0800000  0  4G 6G 8G 9G11
  20493872.450    20493873.737    -3531909.026 9   -561742.841 9
  22009651.981    22009654.357     5003110.371 9   6060016.112 9
  22040676.659    22040678.018    -8228530.637 9  -4003433.525 9
  20604993.141    20604995.155    -4283010.834 8  -1023609.608 8
 86  6 11  0 10 47.0800000  0  4G 6G 8G 9G11
  20493234.428    20493236.209    -3535258.605 9   -564352.902 8
  22013037.908    22013040.025     5020907.874 8   6073884.292 9
  22037528.128    22037530.167    -8245077.071 9  -4016326.849 8
  20604418.613    20604423.162    -4286022.778 7  -1025956.588 9
 86  6 11  0 10 53.0800000  0  4G 6G 8G 9G11
  20492600.223    20492601.578    -3538592.443 8   -566950.711 9
  22016428.671    22016429.158     5038720.348 9   6087764.127 9
  22034380.435    22034382.381    -8261618.065 9  -4029215.926 8
  20603851.275    20603852.920    -4289011.172 7  -1028285.210 8
 86  6 11  0 10 59.0800000  0  4G 6G 8G 9G11
  20491968.852    20491970.206    -3541910.644 8   -569536.310 8
  22019820.565    22019822.067     5056547.798 9   6101655.644 9
  22031234.794    22031235.733    -8278153.531 8  -4042100.700 8
  20603287.524    20603289.492    -4291975.998 9  -1030595.457 8
 86  6 11  0 11  5.0800000  0  4G 6G 8G 9G11
  20491341.010    20491341.003    -3545213.106 8   -572109.660 8
  22023216.150    22023217.724     5074390.147 9   6115558.766 8
  22028089.018    22028089.900    -8294683.435 9  -4054981.147 9
  20602727.351    20602731.001    -4294917.295 8  -1032887.373 8
 86  6 11  0 11 11.0800000  0  4G 6G 8G 9G11
  20490714.869    20490715.584    -3548499.797 9   -574670.717 9
  22026614.783    22026615.326     5092247.401 9   6129473.515 8
  22024943.815    22024944.917    -8311207.978 9  -4067857.406 8
  20602172.623    20602176.254    -4297835.036 8  -1035160.926 7
 86  6 11  0 11 17.0800000  0  4G 6G 8G 9G11
  20490092.404    20490093.069    -3551770.722 9   -577219.491 8
  22030015.893    22030016.594     5110119.558 8   6143399.861 8
  22021801.683    22021801.946    -8327726.961 9  -4080729.337 8
  20601620.857    20601625.032    -4300729.226 9  -1037416.139 8
 86  6 11  0 11 23.0800000  0  4G 6G 8G 9G11
  20489472.207    20489474.508    -3555025.890 8   -579755.981 9
  22033418.118    22033419.720     5128006.544 8   6157337.768 8
  22018658.497    22018659.698    -8344240.324 9  -4093596.896 8
  20601075.576    20601076.717    -4303599.869 8  -1039653.004 9
 86  6 11  0 11 29.0800000  0  4G 6G 8G 9G11
  20488856.694    20488857.277    -3558265.269 9   -582280.183 8
  22036825.523    22036827.139     5145908.351 8   6171287.227 9
  22015517.249    22015517.771    -8360748.177 9  -4106460.143 8
  20600534.434    20600536.009    -4306446.968 8  -1041871.528 7
 86  6 11  0 11 35.0800000  0  4G 6G 8G 9G11
  20488243.640    20488244.307    -3561488.837 8   -584792.045 9
  22040235.073    22040235.846     5163824.991 9   6185248.236 9
  22012377.104    22012377.762    -8377250.438 9  -4119319.047 8
  20599996.825    20599999.056    -4309270.515 8  -1044071.688 9
 86  6 11  0 11 41.0800000  0  4G 6G 8G 9G11
  20487632.457    20487634.885    -3564696.555 9   -587291.564 9
  22043647.530    22043648.703     5181756.343 8   6199220.709 9
  22009236.916    22009238.669    -8393747.116 9  -4132173.604 9
  20599463.381    20599466.321    -4312070.465 7  -1046253.466 7
 86  6 11  0 11 47.0800000  0  4G 6G 8G 9G11
  20487025.292    20487026.176    -3567888.457 9   -589778.766 8
  22047061.646    22047064.020     5199702.443 8   6213204.686 8
  22006098.818    22006100.033    -8410238.178 9  -4145023.779 8
  20598935.754    20598938.974    -4314846.905 8  -1048416.919 7
 86  6 11  0 11 53.0800000  0  4G 6G 8G 9G11
  20486421.430    20486423.577    -3571064.533 9   -592253.639 9
  22050480.455    22050480.770     5217663.287 8   6227200.138 9
  22002962.064    22002963.487    -8426723.538 9  -4157869.517 8
  20598411.765    20598413.701    -4317599.824 9  -1050562.055 8
 86  6 11  0 11 59.0800000  0  4G 6G 8G 9G11
  20485819.403    20485820.734    -3574224.708 8   -594716.114 9
  22053900.995    22053903.070     5235638.805 9   6241207.029 9
  21999826.569    21999827.785    -8443203.230 9  -4170710.827 9
  20597891.441    20597894.134    -4320329.187 9  -1052688.820 7
 86  6 11  0 12  5.0800000  0  4G 6G 8G 9G11
  20485221.600    20485223.182    -3577368.985 9   -597166.194 9
  22057324.298    22057325.915     5253628.946 9   6255225.319 9
  21996691.468    21996692.870    -8459677.303 9  -4183547.758 9
  20597377.250    20597379.951    -4323035.009 9  -1054797.249 8
 86  6 11  0 12 11.0800000  0  4G 6G 8G 9G11
  20484626.199    20484627.913    -3580497.365 9   -599603.898 8
  22060750.132    22060751.707     5271633.746 9   6269255.020 9
  21993557.282    21993558.198    -8476145.612 9  -4196380.217 8
  20596867.924    20596869.695    -4325717.244 9  -1056887.295 8
 86  6 11  0 12 17.0800000  0  4G 6G 8G 9G11
  20484033.251    20484035.182    -3583609.798 8   -602029.156 8
  22064177.814    22064181.277     5289653.151 9   6283296.114 9
  21990423.970    21990425.393    -8492608.265 9  -4209208.249 9
  20596362.145    20596363.858    -4328375.916 7  -1058958.996 7
 86  6 11  0 12 23.0800000  0  4G 6G 8G 9G11
  20483444.592    20483446.219    -3586706.345 7   -604442.052 9
  22067610.633    22067612.822     5307687.135 8   6297348.567 9
  21987293.476    21987293.783    -8509065.139 9  -4222031.790 8
  20595859.513    20595862.879    -4331011.053 8  -1061012.349 8
 86  6 11  0 12 29.0800000  0  4G 6G 8G 9G11
  20482858.447    20482858.583    -3589786.878 9   -606842.475 9
  22071045.768    22071046.598     5325735.689 9   6311412.365 8
  21984163.341    21984162.989    -8525516.206 8  -4234850.797 8
  20595362.415    20595365.259    -4333622.640 9  -1063047.348 8
 86  6 11  0 12 35.0800000  0  4G 6G 8G 9G11
  20482275.441    20482276.539    -3592851.524 9   -609230.511 8
  22074482.579    22074484.324     5343798.778 9   6325487.507 8
  21981034.148    21981034.571    -8541961.579 9  -4247665.371 8
  20594870.139    20594873.237    -4336210.775 8  -1065064.076 8
 86  6 11  0 12 41.0800000  0  4G 6G 8G 9G11
  20481695.034    20481696.033    -3595900.155 9   -611606.064 9
  22077921.964    22077924.884     5361876.371 9   6339573.938 8
  21977905.258    21977906.368    -8558401.219 9  -4260475.476 8
  20594382.789    20594384.246    -4338775.404 9  -1067062.478 8
 86  6 11  0 12 47.0800000  0  4G 6G 8G 9G11
  20481117.973    20481118.639    -3598932.771 9   -613969.138 9
  22081366.501    22081366.931     5379968.436 9   6353671.644 9
  21974778.377    21974778.685    -8574834.993 9  -4273281.004 9
  20593898.927    20593900.000    -4341316.499 8  -1069042.565 9
 86  6 11  0 12 53.0800000  0  4G 6G 8G 9G11
  20480544.243    20480545.967    -3601949.379 9   -616319.750 9
  22084810.252    22084813.157     5398074.927 8   6367780.598 9
  21971651.698    21971652.284    -8591262.856 9  -4286081.955 8
  20593420.474    20593421.901    -4343834.078 8  -1071004.296 8
 86  6 11  0 12 59.0800000  0  4G 6G 8G 9G11
  20479972.651    20479974.161    -3604949.961 8   -618657.859 9
  22088260.055    22088261.301     5416195.823 9   6381900.765 9
  21968527.120    21968527.521    -8607684.876 9  -4298878.317 8
  20592944.968    20592947.663    -4346328.165 8  -1072947.738 7
 86  6 11  0 13  5.0800000  0  4G 6G 8G 9G11
  20479404.615    20479406.036    -3607934.525 8   -620983.495 9
  22091710.317    22091712.818     5434331.118 9   6396032.165 9
  21965401.542    21965403.180    -8624101.054 9  -4311670.149 7
  20592475.391    20592476.085    -4348798.784 9  -1074872.897 8
 86  6 11  0 13 11.0800000  0  4G 6G 8G 9G11
  20478839.807    20478841.245    -3610903.008 9   -623296.601 8
  22095164.813    22095166.716     5452480.785 9   6410174.745 8
  21962279.942    21962280.571    -8640511.415 9  -4324457.441 8
  20592009.358    20592011.483    -4351245.898 8  -1076779.738 8
 86  6 11  0 13 17.0800000  0  4G 6G 8G 9G11
  20478278.088    20478279.187    -3613855.407 9   -625597.164 8
  22098621.285    22098622.414     5470644.834 8   6424328.548 9
  21959158.320    21959158.678    -8656915.785 9  -4337240.057 9
  20591549.100    20591550.076    -4353669.469 8  -1078668.246 8
 86  6 11  0 13 23.0800000  0  4G 6G 8G 9G11
  20477719.465    20477721.768    -3616791.716 9   -627885.200 8
  22102080.244    22102081.317     5488823.183 9   6438493.493 9
  21956037.429    21956039.660    -8673314.271 9  -4350018.106 8
  20591091.452    20591092.842    -4356069.554 9  -1080538.434 8
 86  6 11  0 13 29.0800000  0  4G 6G 8G 9G11
  20477163.767    20477165.792    -3619711.938 9   -630160.697 9
  22105541.638    22105544.942     5507015.824 9   6452669.576 9
  21952918.067    21952918.954    -8689706.869 9  -4362791.552 8
  20590639.542    20590641.031    -4358446.119 8  -1082390.307 8
 86  6 11  0 13 35.0800000  0  4G 6G 8G 9G11
  20476610.481    20476611.582    -3622616.007 9   -632423.620 8
  22109007.224    22109008.369     5525222.736 9   6466856.774 9
  21949800.480    21949802.182    -8706093.446 9  -4375560.319 8
  20590191.421    20590193.127    -4360799.203 8  -1084223.876 8
 86  6 11  0 13 41.0800000  0  4G 6G 8G 9G11
  20476060.918    20476062.410    -3625503.973 9   -634673.966 8
  22112473.239    22112476.258     5543443.861 9   6481055.049 9
  21946682.830    21946683.509    -8722474.127 9  -4388324.484 8
  20589747.965    20589750.761    -4363128.794 7  -1086039.132 8
 86  6 11  0 13 47.0800000  0  4G 6G 8G 9G11
  20475513.695    20475516.121    -3628375.767 9   -636911.737 8
  22115945.493    22115946.523     5561679.180 9   6495264.393 8
  21943566.709    21943568.145    -8738848.789 9  -4401083.958 8
  20589308.301    20589311.939    -4365434.858 8  -1087836.053 8
 86  6 11  0 13 53.0800000  0  4G 6G 8G 9G11
  20474970.873    20474973.466    -3631231.412 8   -639136.912 8
  22119417.519    22119419.365     5579928.730 9   6509484.807 8
  21940451.433    21940453.273    -8755217.390 9  -4413838.704 8
  20588874.754    20588877.944    -4367717.384 8  -1089614.656 8
 86  6 11  0 13 59.0800000  0  4G 6G 8G 9G11
  20474430.996    20474433.369    -3634070.820 8   -641349.438 9
  22122891.991    22122894.209     5598192.423 9   6523716.264 9
  21937338.783    21937339.907    -8771579.966 9  -4426588.779 8
  20588444.883    20588446.239    -4369976.420 9  -1091374.942 8
 86  6 11  0 14  5.0800000  0  4G 6G 8G 9G11
  20473892.853    20473895.851    -3636894.082 8   -643549.367 9
  22126371.413    22126371.915     5616470.199 8   6537958.674 9
  21934225.153    21934227.228    -8787936.469 9  -4439334.095 8
  20588019.778    20588022.139    -4372211.970 8  -1093116.933 8
 86  6 11  0 14 11.0800000  0  4G 6G 8G 9G11
  20473359.385    20473361.670    -3639701.143 9   -645736.695 8
  22129850.665    22129852.397     5634762.077 8   6552212.083 8
  21931113.941    21931114.771    -8804287.028 9  -4452074.784 9
  20587599.686    20587600.000    -4374424.017 8  -1094840.592 8
 86  6 11  0 14 17.0800000  0  4G 6G 8G 9G11
  20472828.811    20472830.080    -3642491.948 8   -647911.355 9
  22133335.354    22133336.627     5653068.043 9   6566476.462 8
  21928003.695    21928005.334    -8820631.389 9  -4464810.649 8
  20587182.294    20587183.663    -4376612.536 7  -1096545.936 8
 86  6 11  0 14 23.0800000  0  4G 6G 8G 9G11
  20472300.254    20472301.313    -3645266.497 8   -650073.337 8
  22136820.973    22136822.690     5671388.098 8   6580751.828 9
  21924895.030    21924895.989    -8836969.611 9  -4477541.715 8
  20586770.367    20586773.218    -4378777.536 8  -1098232.957 8
 86  6 11  0 14 29.0800000  0  4G 6G 8G 9G11
  20471775.032    20471778.143    -3648024.797 9   -652222.661 9
  22140310.040    22140311.901     5689722.135 8   6595038.087 9
  21921786.881    21921788.162    -8853301.728 9  -4490268.050 9
  20586362.498    20586365.178    -4380919.072 8  -1099901.684 8
 86  6 11  0 14 35.0800000  0  4G 6G 8G 9G11
  20471253.343    20471255.010    -3650766.769 9   -654359.269 9
  22143801.755    22143802.399     5708070.201 9   6609335.268 8
  21918680.978    21918681.092    -8869627.679 9  -4502989.571 8
  20585960.675    20585961.078    -4383037.135 9  -1101552.115 8
 86  6 11  0 14 41.0800000  0  4G 6G 8G 9G11
  20470734.824    20470736.334    -3653492.523 9   -656483.229 9
  22147295.259    22147297.505     5726432.258 9   6623643.367 9
  21915574.745    21915575.868    -8885947.503 9  -4515706.313 9
  20585560.890    20585562.167    -4385131.742 8  -1103184.286 8
 86  6 11  0 14 47.0800000  0  4G 6G 8G 9G11
  20470220.208    20470221.302    -3656201.946 9   -658594.466 8
  22150792.554    22150794.270     5744808.236 8   6637962.307 8
  21912470.901    21912472.669    -8902261.140 8  -4528418.232 8
  20585168.037    20585168.857    -4387202.918 7  -1104798.177 8
 86  6 11  0 14 53.0800000  0  4G 6G 8G 9G11
  20469706.955    20469709.087    -3658895.067 8   -660692.991 9
  22154291.151    22154293.526     5763198.118 9   6652292.081 9
  21909367.352    21909368.219    -8918568.605 9  -4541125.340 8
  20584776.829    20584779.446    -4389250.688 8  -1106393.852 8
 86  6 11  0 14 59.0800000  0  4G 6G 8G 9G11
  20469197.984    20469198.844    -3661571.795 9   -662778.761 8
  22157794.041    22157794.957     5781601.900 8   6666632.688 9
  21906265.500    21906266.687    -8934869.796 9  -4553827.576 9
  20584391.888    20584393.974    -4391274.923 9  -1107971.165 8
 86  6 11  0 15  5.0800000  0  4G 6G 8G 9G11
  20468692.044    20468693.606    -3664232.179 8   -664851.785 9
  22161299.121    22161300.966     5800019.579 9   6680984.119 8
  21903164.010    21903165.476    -8951164.745 9  -4566524.927 9
  20584010.763    20584013.493    -4393275.683 9  -1109530.210 8
 86  6 11  0 15 11.0800000  0  4G 6G 8G 9G11
  20468187.806    20468190.374    -3666876.233 9   -666912.084 8
  22164805.932    22164807.949     5818451.098 9   6695346.339 9
  21900064.746    21900066.113    -8967453.476 9  -4579217.444 9
  20583634.743    20583637.758    -4395253.041 8  -1111070.991 8
 86  6 11  0 15 17.0800000  0  4G 6G 8G 9G11
  20467688.129    20467691.379    -3669503.862 8   -668959.587 8
  22168316.505    22168318.766     5836896.427 8   6709719.318 8
  21896965.348    21896967.300    -8983735.904 9  -4591905.050 9
  20583262.912    20583265.532    -4397206.955 8  -1112593.523 8
 86  6 11  0 15 23.0800000  0  4G 6G 8G 9G11
  20467191.063    20467192.823    -3672115.099 9   -670994.313 8
  22171828.883    22171830.070     5855355.538 9   6724103.046 9
  21893869.003    21893869.674    -9000012.051 8  -4604587.744 9
  20582894.714    20582897.207    -4399137.415 9  -1114097.781 9
 86  6 11  0 15 29.0800000  0  4G 6G 8G 9G11
  20466697.915    20466699.620    -3674709.942 9   -673016.264 8
  22175344.594    22175345.439     5873828.369 9   6738497.458 9
  21890773.230    21890774.282    -9016281.813 9  -4617265.484 8
  20582533.141    20582534.722    -4401044.450 8  -1115583.776 8
 86  6 11  0 15 35.0800000  0  4G 6G 8G 9G11
  20466207.205    20466207.756    -3677288.335 9   -675025.408 8
  22178861.722    22178864.871     5892314.948 8   6752902.583 9
  21887678.495    21887680.326    -9032545.256 9  -4629938.291 9
  20582174.371    20582176.728    -4402928.007 8  -1117051.483 8
 86  6 11  0 15 41.0800000  0  4G 6G 8G 9G11
  20465719.933    20465721.119    -3679850.314 9   -677021.754 8
  22182382.384    22182384.645     5910815.239 9   6767318.374 8
  21884584.089    21884586.144    -9048802.337 9  -4642606.137 9
  20581820.373    20581822.250    -4404788.141 8  -1118500.943 8
 86  6 11  0 15 47.0800000  0  4G 6G 8G 9G11
  20465234.860    20465236.172    -3682395.839 9   -679005.281 9
  22185905.121    22185907.368     5929329.160 8   6781744.802 9
  21881492.209    21881492.896    -9065053.141 8  -4655269.095 9
  20581470.307    20581473.087    -4406624.882 7  -1119932.159 8
 86  6 11  0 15 53.0800000  0  4G 6G 8G 9G11
  20464754.518    20464754.915    -3684924.855 9   -680975.939 8
  22189431.221    22189432.666     5947856.782 9   6796181.907 8
  21878400.408    21878402.568    -9081297.568 9  -4667927.086 9
  20581125.567    20581127.974    -4408438.185 8  -1121345.130 9
 86  6 11  0 15 59.0800000  0  4G 6G 8G 9G11
  20464275.046    20464277.689    -3687437.404 9   -682933.769 9
  22192959.724    22192961.226     5966398.048 9   6810629.637 9
  21875311.425    21875311.847    -9097535.531 9  -4680580.048 9
  20580784.504    20580786.704    -4410228.013 8  -1122739.807 8
 86  6 11  0 16  5.0800000  0  4G 6G 8G 9G11
  20463802.451    20463802.770    -3689933.420 9   -684878.720 8
  22196490.231    22196492.592     5984952.900 9   6825087.971 9
  21872221.777    21872223.701    -9113767.030 9  -4693227.961 9
  20580447.509    20580451.674    -4411994.419 8  -1124116.212 8
 86  6 11  0 16 11.0800000  0  4G 6G 8G 9G11
  20463328.946    20463330.706    -3692412.925 8   -686810.807 9
  22200024.301    22200025.846     6003521.275 7   6839556.832 8
  21869134.168    21869135.791    -9129992.035 8  -4705870.820 9
  20580118.114    20580120.012    -4413737.455 7  -1125474.427 8
 86  6 11  0 16 17.0800000  0  4G 6G 8G 9G11
  20462860.965    20462861.705    -3694875.939 9   -688730.032 9
  22203559.072    22203562.620     6022103.221 9   6854036.258 8
  21866048.805    21866049.429    -9146210.665 9  -4718508.717 8
  20579790.876    20579791.639    -4415457.118 8  -1126814.426 8
 86  6 11  0 16 23.0800000  0  4G 6G 8G 9G11
  20462394.739    20462395.973    -3697322.412 9   -690636.377 9
  22207098.135    22207101.228     6040698.668 8   6868526.215 8
  21862963.823    21862966.419    -9162422.754 9  -4731141.500 8
  20579467.174    20579468.919    -4417153.345 8  -1128136.155 8
 86  6 11  0 16 29.0800000  0  4G 6G 8G 9G11
  20461932.350    20461933.746    -3699752.280 9   -692529.778 9
  22210639.789    22210642.065     6059307.600 9   6883026.679 8
  21859879.827    21859879.397    -9178628.384 9  -4743769.271 8
  20579148.314    20579152.664    -4418826.157 8  -1129439.642 8
 86  6 11  0 16 35.0800000  0  4G 6G 8G 9G11
  20461472.160    20461473.895    -3702165.564 8   -694410.256 9
  22214182.675    22214185.851     6077930.015 9   6897537.645 9
  21856796.654    21856797.705    -9194827.444 9  -4756391.912 7
  20578834.593    20578837.954    -4420475.541 8  -1130724.878 7
 86  6 11  0 16 41.0800000  0  4G 6G 8G 9G11
  20461016.262    20461018.641    -3704562.300 9   -696277.851 9
  22217729.035    22217731.697     6096565.825 9   6912059.054 9
  21853716.149    21853717.872    -9211019.998 9  -4769009.474 8
  20578525.939    20578528.019    -4422101.545 7  -1131991.889 8
 86  6 11  0 16 47.0800000  0  4G 6G 8G 9G11
  20460564.560    20460565.164    -3706942.398 9   -698132.468 8
  22221278.173    22221281.178     6115215.070 8   6926590.930 8
  21850635.788    21850637.190    -9227205.933 9  -4781621.893 8
  20578220.750    20578223.046    -4423704.171 8  -1133240.693 8
 86  6 11  0 16 53.0800000  0  4G 6G 8G 9G11
  20460113.821    20460115.795    -3709305.909 9   -699974.164 9
  22224829.041    22224831.117     6133877.682 9   6941133.226 9
  21847557.437    21847557.043    -9243385.330 8  -4794229.211 9
  20577921.790    20577922.395    -4425283.441 8  -1134471.301 8
 86  6 11  0 16 59.0800000  0  4G 6G 8G 9G11
  20459667.377    20459668.479    -3711652.766 9   -701802.883 9
  22228382.758    22228384.976     6152553.656 9   6955685.930 9
  21844478.378    21844479.759    -9259558.150 9  -4806831.396 8
  20577624.781    20577625.730    -4426839.236 8  -1135683.610 9
 86  6 11  0 17  5.0800000  0  4G 6G 8G 9G11
  20459223.924    20459225.423    -3713982.947 8   -703618.613 8
  22231938.792    22231942.956     6171242.972 8   6970249.028 9
  21841403.483    21841404.241    -9275724.383 9  -4819428.466 8
  20577333.160    20577335.818    -4428371.666 7  -1136877.707 8
 86  6 11  0 17 11.0800000  0  4G 6G 8G 9G11
  20458783.844    20458785.018    -3716296.446 9   -705421.334 9
  22235499.621    22235501.739     6189945.626 9   6984822.513 9
  21838327.507    21838328.287    -9291883.959 9  -4832020.333 9
  20577045.327    20577047.244    -4429880.714 8  -1138053.589 8
 86  6 11  0 17 17.0800000  0  4G 6G 8G 9G11
  20458346.532    20458348.746    -3718593.260 9   -707211.059 9
  22239060.477    22239062.667     6208661.545 8   6999406.345 8
  21835253.657    21835255.746    -9308036.781 9  -4844606.952 8
  20576762.458    20576765.692    -4431366.416 8  -1139211.288 7
 86  6 11  0 17 23.0800000  0  4G 6G 8G 9G11
  20457913.977    20457914.428    -3720873.347 8   -708987.757 8
  22242624.082    22242626.457     6227390.724 9   7014000.503 9
  21832181.451    21832182.781    -9324182.916 9  -4857188.358 8
  20576483.857    20576486.621    -4432828.732 8  -1140350.738 8
 86  6 11  0 17 29.0800000  0  4G 6G 8G 9G11
  20457482.977    20457484.173    -3723136.693 9   -710751.404 8
  22246191.435    22246192.766     6246133.157 9   7028604.995 9
  21829110.521    21829110.555    -9340322.357 9  -4869764.538 8
  20576210.367    20576211.734    -4434267.671 8  -1141471.991 8
 86  6 11  0 17 35.0800000  0  4G 6G 8G 9G11
  20457055.364    20457056.496    -3725383.386 8   -712502.068 8
  22249759.203    22249762.222     6264888.785 9   7043219.760 8
  21826040.346    21826040.668    -9356455.108 9  -4882335.515 8
  20575940.921    20575943.394    -4435683.283 8  -1142575.057 8
 86  6 11  0 17 41.0800000  0  4G 6G 8G 9G11
  20456630.965    20456631.970    -3727613.260 9   -714239.629 8
  22253331.735    22253333.882     6283657.574 9   7057844.787 9
  21822971.218    21822972.420    -9372581.101 8  -4894901.224 9
  20575676.809    20575679.331    -4437075.539 9  -1143659.937 8
 86  6 11  0 17 47.0800000  0  4G 6G 8G 9G11
  20456209.323    20456210.283    -3729826.386 9   -715964.153 8
  22256905.700    22256908.289     6302439.527 8   7072480.072 8
  21819904.378    21819905.310    -9388700.334 9  -4907461.646 8
  20575415.878    20575417.784    -4438444.429 8  -1144726.607 7
 86  6 11  0 17 53.0800000  0  4G 6G 8G 9G11
  20455791.455    20455792.522    -3732022.717 8   -717675.576 8
  22260482.225    22260483.526     6321234.595 9   7087125.579 9
  21816837.869    21816839.400    -9404812.857 9  -4920016.862 9
  20575159.211    20575162.343    -4439789.940 8  -1145775.055 8
 86  6 11  0 17 59.0800000  0  4G 6G 8G 9G11
  20455376.843    20455377.623    -3734202.303 8   -719373.951 8
  22264061.626    22264063.343     6340042.775 9   7101781.297 9
  21813773.577    21813773.606    -9420918.502 9  -4932566.708 9
  20574908.034    20574910.585    -4441112.091 9  -1146805.305 8
 86  6 11  0 18  5.0800000  0  4G 6G 8G 9G11
  20454965.568    20454966.812    -3736365.077 9   -721059.238 9
  22267642.473    22267645.505     6358864.001 8   7116447.182 9
  21810709.685    21810710.544    -9437017.347 9  -4945111.265 8
  20574660.574    20574663.621    -4442410.892 8  -1147817.355 8
 86  6 11  0 18 11.0800000  0  4G 6G 8G 9G11
  20454557.138    20454558.078    -3738511.010 9   -722731.388 9
  22271227.298    22271229.158     6377698.246 9   7131123.212 9
  21807647.289    21807648.956    -9453109.387 9  -4957650.507 9
  20574417.893    20574421.273    -4443686.413 8  -1148811.253 8
 86  6 11  0 18 17.0800000  0  4G 6G 8G 9G11
  20454152.168    20454152.816    -3740640.137 8   -724390.448 9
  22274813.323    22274815.414     6396545.459 9   7145809.345 8
  21804586.281    21804586.439    -9469194.546 9  -4970184.391 7
  20574180.110    20574181.634    -4444938.621 8  -1149787.018 8
 86  6 11  0 18 23.0800000  0  4G 6G 8G 9G11
  20453750.206    20453751.083    -3742752.422 9   -726036.379 8
  22278402.355    22278404.702     6415405.730 9   7160505.654 8
  21801527.533    21801528.077    -9485272.809 9  -4982712.910 8
  20573945.979    20573948.531    -4446167.486 9  -1150744.573 8
 86  6 11  0 18 29.0800000  0  4G 6G 8G 9G11
  20453350.268    20453353.136    -3744847.811 9   -727669.146 9
  22281994.162    22281996.824     6434278.952 9   7175212.063 8
  21798468.643    21798469.523    -9501344.226 9  -4995236.081 8
  20573715.802    20573719.325    -4447373.059 8  -1151683.967 7
 86  6 11  0 18 35.0800000  0  4G 6G 8G 9G11
  20452956.446    20452957.304    -3746926.283 9   -729288.745 8
  22285588.990    22285589.805     6453165.148 9   7189928.560 8
  21795412.200    21795412.020    -9517408.668 9  -5007753.823 8
  20573491.544    20573493.747    -4448555.330 9  -1152605.230 8
 86  6 11  0 18 41.0800000  0  4G 6G 8G 9G11
  20452563.377    20452564.317    -3748987.880 8   -730895.185 9
  22289184.288    22289186.907     6472064.250 9   7204655.132 9
  21792356.137    21792356.666    -9533466.144 9  -5020266.139 9
  20573270.735    20573274.509    -4449714.277 8  -1153508.295 8
 86  6 11  0 18 47.0800000  0  4G 6G 8G 9G11
  20452174.449    20452175.815    -3751032.613 9   -732488.472 8
  22292783.223    22292784.609     6490976.174 9   7219391.688 9
  21789302.225    21789303.333    -9549516.727 9  -5032773.087 9
  20573054.411    20573057.389    -4450849.874 8  -1154393.169 7
 86  6 11  0 18 53.0800000  0  4G 6G 8G 9G11
  20451788.057    20451789.903    -3753060.436 8   -734068.594 9
  22296384.046    22296386.147     6509900.939 8   7234138.264 8
  21786249.237    21786250.460    -9565560.365 9  -5045274.617 9
  20572844.049    20572845.749    -4451962.162 8  -1155259.892 8
 86  6 11  0 18 59.0800000  0  4G 6G 8G 9G11
  20451405.748    20451406.477    -3755071.306 8   -735635.511 9
  22299988.044    22299990.434     6528838.517 8   7248894.810 8
  21783197.938    21783198.266    -9581596.988 9  -5057770.684 8
  20572635.692    20572638.487    -4453051.153 7  -1156108.459 7
 86  6 11  0 19  5.0800000  0  4G 6G 8G 9G11
  20451025.291    20451026.748    -3757065.189 8   -737189.180 9
  22303594.991    22303596.636     6547788.919 9   7263661.348 9
  21780147.131    21780148.112    -9597626.660 9  -5070261.332 8
  20572433.779    20572435.234    -4454116.889 7  -1156938.895 8
 86  6 11  0 19 11.0800000  0  4G 6G 8G 9G11
  20450650.132    20450651.402    -3759042.126 9   -738729.653 8
  22307202.366    22307204.956     6566752.112 8   7278437.868 9
  21777098.365    21777099.087    -9613649.212 9  -5082746.438 9
  20572235.220    20572237.950    -4455159.330 8  -1157751.192 8
 86  6 11  0 19 17.0800000  0  4G 6G 8G 9G11
  20450277.560    20450278.108    -3761002.078 8   -740256.888 9
  22310814.463    22310815.537     6585728.028 8   7293224.284 8
  21774050.156    21774050.493    -9629664.796 9  -5095226.109 9
  20572040.530    20572043.213    -4456178.568 8  -1158545.395 8
 86  6 11  0 19 23.0800000  0  4G 6G 8G 9G11
  20449907.664    20449909.152    -3762944.994 8   -741770.850 9
  22314426.332    22314428.664     6604716.695 9   7308020.644 9
  21771004.087    21771005.296    -9645673.315 9  -5107700.274 9
  20571851.910    20571853.322    -4457174.500 8  -1159321.450 8
 86  6 11  0 19 29.0800000  0  4G 6G 8G 9G11
  20449540.371    20449542.260    -3764870.934 9   -743271.573 8
  22318044.111    22318045.627     6623718.065 9   7322826.901 9
  21767960.179    21767959.613    -9661674.639 9  -5120168.839 8
  20571666.652    20571668.062    -4458147.159 9  -1160079.357 8
 86  6 11  0 19 35.0800000  0  4G 6G 8G 9G11
  20449177.193    20449178.957    -3766779.851 8   -744759.041 9
  22321661.388    22321662.762     6642732.089 9   7337643.016 8
  21764915.519    21764915.862    -9677668.958 9  -5132631.937 9
  20571485.099    20571486.893    -4459096.581 9  -1160819.169 9
 86  6 11  0 19 41.0800000  0  4G 6G 8G 9G11
  20448817.084    20448818.634    -3768671.704 8   -746233.226 9
  22325281.900    22325283.990     6661758.732 9   7352468.976 9
  21761873.392    21761874.136    -9693656.068 9  -5145089.426 9
  20571309.923    20571311.382    -4460022.697 7  -1161540.817 8
 86  6 11  0 19 47.0800000  0  4G 6G 8G 9G11
  20448460.574    20448462.346    -3770546.531 9   -747694.130 9
  22328905.188    22328906.820     6680797.997 8   7367304.763 8
  21758831.222    21758832.295    -9709636.123 9  -5157541.419 8
  20571137.128    20571139.443    -4460925.595 9  -1162244.363 7
 86  6 11  0 19 53.0800000  0  4G 6G 8G 9G11
  20448107.156    20448108.343    -3772404.290 8   -749141.723 9
  22332530.879    22332532.082     6699849.841 9   7382150.345 9
  21755792.722    21755792.843    -9725608.936 9  -5169987.761 8
  20570969.793    20570972.140    -4461805.218 8  -1162929.799 9
 86  6 11  0 19 59.0800000  0  4G 6G 8G 9G11
  20447757.785    20447757.990    -3774244.942 8   -750575.995 9
  22336157.816    22336160.692     6718914.244 9   7397005.726 8
  21752754.679    21752754.286    -9741574.617 9  -5182428.546 9
  20570806.887    20570810.381    -4462661.588 8  -1163597.096 8
 86  6 11  0 20  5.0800000  0  4G 6G 8G 9G11
  20447410.483    20447411.209    -3776068.512 9   -751996.970 9
  22339788.388    22339791.335     6737991.217 9   7411870.887 8
  21749718.149    21749718.455    -9757533.054 9  -5194863.685 7
  20570648.670    20570650.819    -4463494.693 8  -1164246.263 8
 86  6 11  0 20 11.0800000  0  4G 6G 8G 9G11
  20447066.361    20447067.954    -3777874.996 9   -753404.621 8
  22343420.376    22343423.122     6757080.645 8   7426745.766 9
  21746681.416    21746683.089    -9773484.311 9  -5207293.231 8
  20570495.987    20570496.728    -4464304.592 8  -1164877.349 8
 86  6 11  0 20 17.0800000  0  4G 6G 8G 9G11
  20446725.807    20446726.056    -3779664.327 8   -754798.907 9
  22347056.685    22347058.201     6776182.566 8   7441630.372 8
  21743648.260    21743649.190    -9789428.374 9  -5219717.172 8
  20570343.879    20570346.920    -4465091.301 7  -1165490.372 8
 86  6 11  0 20 23.0800000  0  4G 6G 8G 9G11
  20446388.521    20446389.938    -3781436.533 9   -756179.838 8
  22350693.593    22350695.969     6795296.946 8   7456524.684 9
  21740615.469    21740616.142    -9805365.059 9  -5232135.368 8
  20570199.529    20570201.453    -4465854.789 9  -1166085.292 9
 86  6 11  0 20 29.0800000  0  4G 6G 8G 9G11
  20446054.268    20446056.686    -3783191.591 8   -757547.419 9
  22354333.509    22354335.741     6814423.704 8   7471428.649 9
  21737584.411    21737585.018    -9821294.535 9  -5244547.951 8
  20570057.807    20570060.809    -4466595.141 8  -1166662.191 9
 86  6 11  0 20 35.0800000  0  4G 6G 8G 9G11
  20445723.343    20445724.957    -3784929.444 8   -758901.593 8
  22357975.299    22357977.631     6833562.914 9   7486342.314 8
  21734553.816    21734555.862    -9837216.672 9  -5256954.808 9
  20569921.672    20569924.498    -4467312.262 8  -1167220.975 8
 86  6 11  0 20 41.0800000  0  4G 6G 8G 9G11
  20445395.241    20445397.115    -3786650.182 8   -760242.430 9
  22361619.234    22361621.697     6852714.480 9   7501265.605 8
  21731525.612    21731525.762    -9853131.559 9  -5269356.010 8
  20569789.877    20569791.831    -4468006.178 8  -1167761.704 8
 86  6 11  0 20 47.0800000  0  4G 6G 8G 9G11
  20445071.911    20445073.441    -3788353.686 8   -761569.834 9
  22365267.648    22365268.737     6871878.444 8   7516198.563 8
  21728498.281    21728500.140    -9869038.979 9  -5281751.400 8
  20569663.009    20569666.045    -4468676.902 8  -1168284.337 7
 86  6 11  0 20 53.0800000  0  4G 6G 8G 9G11
  20444750.296    20444752.400    -3790039.958 8   -762883.808 8
  22368917.009    22368918.296     6891054.696 9   7531141.093 9
  21725473.095    21725473.897    -9884939.092 9  -5294141.093 9
  20569539.509    20569540.639    -4469324.406 8  -1168788.878 9
 86  6 11  0 20 59.0800000  0  4G 6G 8G 9G11
  20444432.898    20444434.453    -3791708.995 8   -764184.354 8
  22372567.312    22372569.373     6910243.261 9   7546093.214 9
  21722448.883    21722448.748    -9900831.857 9  -5306525.054 8
  20569421.319    20569423.139    -4469948.732 8  -1169275.369 8
 86  6 11  0 21  5.0800000  0  4G 6G 8G 9G11
  20444119.886    20444121.762    -3793360.784 9   -765471.467 9
  22376221.578    22376223.653     6929444.067 9   7561054.876 9
  21719425.895    21719427.082    -9916717.220 9  -5318903.265 8
  20569305.131    20569308.319    -4470549.918 8  -1169743.816 8
 86  6 11  0 21 11.0800000  0  4G 6G 8G 9G11
  20443808.564    20443808.933    -3794995.314 8   -766745.128 9
  22379877.606    22379878.564     6948657.140 9   7576026.095 8
  21716404.323    21716405.467    -9932595.146 9  -5331275.672 8
  20569196.883    20569199.596    -4471127.877 9  -1170194.181 7
 86  6 11  0 21 17.0800000  0  4G 6G 8G 9G11
  20443500.077    20443501.765    -3796612.638 9   -768005.381 9
  22383535.436    22383536.996     6967882.396 8   7591006.809 8
  21713382.972    21713386.150    -9948465.640 8  -5343642.284 8
  20569090.272    20569094.016    -4471682.690 9  -1170626.491 8
 86  6 11  0 21 23.0800000  0  4G 6G 8G 9G11
  20443196.016    20443196.957    -3798212.654 8   -769252.149 9
  22387195.813    22387199.519     6987119.853 8   7605997.026 8
  21710365.765    21710367.403    -9964328.619 9  -5356003.053 9
  20568989.862    20568991.993    -4472214.297 8  -1171040.750 8
 86  6 11  0 21 29.0800000  0  4G 6G 8G 9G11
  20442894.174    20442896.279    -3799795.316 9   -770485.396 8
  22390859.681    22390861.127     7006369.486 9   7620996.736 8
  21707348.528    21707350.746    -9980184.136 9  -5368357.994 8
  20568892.421    20568895.408    -4472722.768 8  -1171436.946 8
 86  6 11  0 21 35.0800000  0  4G 6G 8G 9G11
  20442596.754    20442598.178    -3801360.693 8   -771705.160 8
  22394523.993    22394525.568     7025631.293 8   7636005.935 9
  21704332.916    21704334.833    -9996032.082 9  -5380707.042 8
  20568800.370    20568801.873    -4473208.078 8  -1171815.120 8
 86  6 11  0 21 41.0800000  0  4G 6G 8G 9G11
  20442302.821    20442303.917    -3802908.722 9   -772911.430 9
  22398192.542    22398194.646     7044905.155 9   7651024.522 8
  21701319.071    21701318.698   -10011872.601 9  -5393050.297 8
  20568713.281    20568714.532    -4473670.282 9  -1172175.264 8
 86  6 11  0 21 47.0800000  0  4G 6G 8G 9G11
  20442010.515    20442012.814    -3804439.424 8   -774104.178 9
  22401863.006    22401864.066     7064191.113 8   7666052.537 9
  21698305.427    21698307.065   -10027705.525 9  -5405387.626 8
  20568629.858    20568630.852    -4474109.358 8  -1172517.405 9
 86  6 11  0 21 53.0800000  0  4G 6G 8G 9G11
  20441723.393    20441724.796    -3805952.799 8   -775283.434 9
  22405534.774    22405537.149     7083489.145 9   7681089.955 9
  21695293.728    21695295.353   -10043530.849 9  -5417719.058 8
  20568548.857    20568552.497    -4474525.286 8  -1172841.512 8
 86  6 11  0 21 59.0800000  0  4G 6G 8G 9G11
  20441438.278    20441439.989    -3807448.772 8   -776449.125 9
  22409209.562    22409211.550     7102799.172 8   7696136.718 8
  21692284.004    21692284.770   -10059348.596 9  -5430044.557 8
  20568474.890    20568476.727    -4474918.134 8  -1173147.615 7
 86  6 11  0 22  5.0800000  0  4G 6G 8G 9G11
  20441157.192    20441158.724    -3808927.385 9   -777601.290 8
  22412886.394    22412888.925     7122121.180 9   7711192.839 8
  21689275.875    21689276.347   -10075158.798 8  -5442364.194 8
  20568403.979    20568406.198    -4475287.848 7  -1173435.704 8
 86  6 11  0 22 11.0800000  0  4G 6G 8G 9G11
  20440879.880    20440880.011    -3810388.602 8   -778739.908 8
  22416565.415    22416567.877     7141455.159 9   7726258.268 8
  21686268.112    21686269.156   -10090961.322 9  -5454677.846 8
  20568338.094    20568340.547    -4475634.427 7  -1173705.763 8
 86  6 11  0 22 17.0800000  0  4G 6G 8G 9G11
  20440603.942    20440605.351    -3811832.445 9   -779864.972 9
  22420246.397    22420248.143     7160801.124 8   7741333.043 8
  21683262.988    21683263.747   -10106756.356 9  -5466985.666 8
  20568277.364    20568279.306    -4475957.925 8  -1173957.836 7
 86  6 11  0 22 23.0800000  0  4G 6G 8G 9G11
  20440333.022    20440333.801    -3813258.781 8   -780976.413 9
  22423930.471    22423932.015     7180159.029 9   7756417.119 9
  21680258.243    21680259.067   -10122543.606 9  -5479287.423 8
  20568219.508    20568222.527    -4476258.327 7  -1174191.917 8
 86  6 11  0 22 29.0800000  0  4G 6G 8G 9G11
  20440064.653    20440065.936    -3814667.693 8   -782074.254 9
  22427616.361    22427617.777     7199528.831 9   7771510.470 9
  21677255.538    21677257.012   -10138323.209 8  -5491583.201 8
  20568167.475    20568168.269    -4476535.616 9  -1174407.984 8
 86  6 11  0 22 35.0800000  0  4G 6G 8G 9G11
  20439800.329    20439801.263    -3816059.132 8   -783158.505 8
  22431304.598    22431307.088     7218910.516 9   7786613.066 9
  21674254.314    21674254.859   -10154095.116 9  -5503873.005 9
  20568117.967    20568120.967    -4476789.830 8  -1174606.066 8
 86  6 11  0 22 41.0800000  0  4G 6G 8G 9G11
  20439538.293    20439540.127    -3817433.140 8   -784229.158 9
  22434995.496    22434998.601     7238303.994 9   7801724.867 9
  21671254.835    21671256.030   -10169859.320 9  -5516156.788 8
  20568075.460    20568076.705    -4477021.004 8  -1174786.203 8
 86  6 11  0 22 47.0800000  0  4G 6G 8G 9G11
  20439280.212    20439282.308    -3818789.650 9   -785286.176 9
  22438688.285    22438690.030     7257709.326 9   7816845.901 8
  21668256.981    21668257.689   -10185615.664 9  -5528434.453 8
  20568035.689    20568038.704    -4477229.030 7  -1174948.302 8
 86  6 11  0 22 53.0800000  0  4G 6G 8G 9G11
  20439026.448    20439027.325    -3820128.619 8   -786329.530 8
  22442382.803    22442384.607     7277126.466 9   7831976.141 8
  21665259.168    21665260.093   -10201364.338 9  -5540706.148 9
  20567999.621    20568001.840    -4477413.938 8  -1175092.380 7
 86  6 11  0 22 59.0800000  0  4G 6G 8G 9G11
  20438774.259    20438775.601    -3821450.063 9   -787359.221 8
  22446080.042    22446081.614     7296555.406 8   7847115.564 9
  21662263.854    21662265.278   -10217105.212 9  -5552971.764 8
  20567968.895    20567971.268    -4477575.808 8  -1175218.513 9
 86  6 11  0 23  5.0800000  0  4G 6G 8G 9G11
  20438526.038    20438527.530    -3822753.955 8   -788375.248 8
  22449779.725    22449781.800     7315996.086 9   7862264.131 8
  21659270.049    21659270.622   -10232838.259 9  -5565231.277 8
  20567943.615    20567944.777    -4477714.631 8  -1175326.686 8
 86  6 11  0 23 11.0800000  0  4G 6G 8G 9G11
  20438281.383    20438281.855    -3824040.397 8   -789377.672 8
  22453481.298    22453482.615     7335448.464 9   7877421.836 8
  21656277.711    21656278.777   -10248563.527 9  -5577484.725 9
  20567920.226    20567923.336    -4477830.401 8  -1175416.895 8
 86  6 11  0 23 17.0800000  0  4G 6G 8G 9G11
  20438040.477    20438040.462    -3825309.274 9   -790366.406 9
  22457185.619    22457186.035     7354912.552 9   7892588.642 8
  21653286.911    21653287.798   -10264280.920 9  -5589732.039 8
  20567902.894    20567905.095    -4477923.122 8  -1175489.144 8
 86  6 11  0 23 23.0800000  0  4G 6G 8G 9G11
  20437801.674    20437802.941    -3826560.519 9   -791341.410 9
  22460890.426    22460893.632     7374388.324 9   7907764.570 9
  21650297.233    21650297.800   -10279990.403 9  -5601973.194 8
  20567890.671    20567891.654    -4477992.790 7  -1175543.435 8
 86  6 11  0 23 29.0800000  0  4G 6G 8G 9G11
  20437566.953    20437568.580    -3827794.161 8   -792302.680 8
  22464599.741    22464601.858     7393875.724 9   7922949.550 9
  21647308.809    21647310.111   -10295691.995 9  -5614208.199 9
  20567880.281    20567883.656    -4478039.417 8  -1175579.765 9
 86  6 11  0 23 35.0800000  0  4G 6G 8G 9G11
  20437336.128    20437336.512    -3829010.298 8   -793250.331 8
  22468310.615    22468311.288     7413374.628 9   7938143.504 9
  21644323.075    21644323.161   -10311385.815 9  -5626437.140 9
  20567875.925    20567878.655    -4478063.187 8  -1175598.276 8
 86  6 11  0 23 41.0800000  0  4G 6G 8G 9G11
  20437107.663    20437108.962    -3830208.847 9   -794184.262 8
  22472023.078    22472024.752     7432885.146 9   7953346.494 9
  21641337.505    21641339.457   -10327071.708 9  -5638659.925 9
  20567875.774    20567878.520    -4478063.879 9  -1175598.818 8
 86  6 11  0 23 47.0800000  0  4G 6G 8G 9G11
  20436882.562    20436884.461    -3831389.736 8   -795104.436 8
  22475738.273    22475738.759     7452407.235 9   7968558.500 9
  21638354.567    21638355.405   -10342749.621 9  -5650876.476 8
  20567879.415    20567883.286    -4478041.549 8  -1175581.421 8
 86  6 11  0 23 53.0800000  0  4G 6G 8G 9G11
  20436661.767    20436662.243    -3832552.927 9   -796010.821 9
  22479455.085    22479456.832     7471940.836 9   7983779.488 9
  21635372.339    21635373.526   -10358419.586 9  -5663086.837 8
  20567889.589    20567891.993    -4477996.213 9  -1175546.092 8
 86  6 11  0 23 59.0800000  0  4G 6G 8G 9G11
  20436444.521    20436444.161    -3833698.458 9   -796903.438 9
  22483172.945    22483176.048     7491486.027 9   7999009.501 9
  21632391.913    21632392.878   -10374081.451 9  -5675290.875 9
  20567902.714    20567905.108    -4477927.806 9  -1175492.794 8
 86  6 11  0 24  5.0800000  0  4G 6G 8G 9G11
  20436228.288    20436230.531    -3834826.366 9   -797782.335 8
  22486895.938    22486898.126     7511042.617 9   8014248.394 9
  21629412.717    21629414.707   -10389735.345 9  -5687488.714 9
  20567920.092    20567921.402    -4477836.470 8  -1175421.609 8
 86  6 11  0 24 11.0800000  0  4G 6G 8G 9G11
  20436018.215    20436018.701    -3835936.574 8   -798647.438 8
  22490619.790    22490621.350     7530610.683 8   8029496.236 8
  21626436.914    21626436.892   -10405381.157 8  -5699680.253 9
  20567940.684    20567943.528    -4477722.106 7  -1175332.493 8
 86  6 11  0 24 17.0800000  0  4G 6G 8G 9G11
  20435811.010    20435810.767    -3837029.032 8   -799498.702 9
  22494345.389    22494348.779     7550190.244 8   8044753.037 8
  21623460.644    21623461.311   -10421018.963 9  -5711865.565 9
  20567967.841    20567970.300    -4477584.701 8  -1175225.432 8
 86  6 11  0 24 23.0800000  0  4G 6G 8G 9G11
  20435604.558    20435607.061    -3838103.847 9   -800336.216 9
  22498072.804    22498075.467     7569781.160 9   8060018.677 8
  21620485.413    21620486.844   -10436648.806 9  -5724044.647 9
  20567996.565    20568000.717    -4477424.412 8  -1175100.527 8
 86  6 11  0 24 29.0800000  0  4G 6G 8G 9G11
  20435402.716    20435404.970    -3839160.915 8   -801159.916 8
  22501803.225    22501805.528     7589383.451 9   8075293.184 9
  21617513.329    21617513.865   -10452270.452 9  -5736217.353 8
  20568031.965    20568034.048    -4477241.186 8  -1174957.762 8
 86  6 11  0 24 35.0800000  0  4G 6G 8G 9G11
  20435206.765    20435206.554    -3840200.235 8   -801969.773 9
  22505535.677    22505537.309     7608997.084 9   8090576.534 9
  21614541.731    21614541.976   -10467884.003 9  -5748383.760 9
  20568071.419    20568074.276    -4477034.959 9  -1174797.051 7
 86  6 11  0 24 41.0800000  0  4G 6G 8G 9G11
  20435011.859    20435013.341    -3841221.814 9   -802765.805 8
  22509271.264    22509273.037     7628622.058 9   8105868.703 9
  21611572.267    21611573.533   -10483489.454 8  -5760543.844 8
  20568114.565    20568116.912    -4476805.797 7  -1174618.490 8
 86  6 11  0 24 47.0800000  0  4G 6G 8G 9G11
  20434821.078    20434822.671    -3842225.556 8   -803547.939 9
  22513007.293    22513008.710     7648258.326 8   8121169.694 8
  21608604.669    21608605.420   -10499086.689 9  -5772697.537 8
  20568163.864    20568166.339    -4476553.637 7  -1174422.006 8
 86  6 11  0 24 53.0800000  0  4G 6G 8G 9G11
  20434633.546    20434634.671    -3843211.601 9   -804316.290 9
  22516746.185    22516747.015     7667905.871 9   8136479.461 9
  21605637.973    21605638.739   -10514675.820 9  -5784844.906 9
  20568216.320    20568217.844    -4476278.581 8  -1174207.668 8
 86  6 11  0 24 59.0800000  0  4G 6G 8G 9G11
  20434449.129    20434450.230    -3844179.815 8   -805070.745 8
  22520486.807    22520489.097     7687564.623 9   8151797.972 8
  21602672.843    21602673.558   -10530256.742 9  -5796985.889 9
  20568271.975    20568275.349    -4475980.579 7  -1173975.463 8
 86  6 11  0 25  5.0800000  0  4G 6G 8G 9G11
  20434267.990    20434270.187    -3845130.276 9   -805811.365 8
  22524229.464    22524231.324     7707234.568 9   8167125.187 9
  21599709.138    21599710.533   -10545829.486 9  -5809120.488 8
  20568333.658    20568335.507    -4475659.709 8  -1173725.431 8
 86  6 11  0 25 11.0800000  0  4G 6G 8G 9G11
  20434090.365    20434092.371    -3846062.938 9   -806538.110 9
  22527974.651    22527976.067     7726915.722 9   8182461.148 8
  21596747.957    21596748.938   -10561393.988 9  -5821248.674 9
  20568398.652    20568401.738    -4475315.894 8  -1173457.529 8
 86  6 11  0 25 17.0800000  0  4G 6G 8G 9G11
  20433914.612    20433918.149    -3846977.727 8   -807250.936 8
  22531722.629    22531724.217     7746608.041 9   8197805.811 8
  21593786.448    21593788.265   -10576950.252 9  -5833370.446 8
  20568468.018    20568471.631    -4474949.168 7  -1173171.755 8
 86  6 11  0 25 23.0800000  0  4G 6G 8G 9G11
  20433744.464    20433746.775    -3847874.719 8   -807949.886 8
  22535472.222    22535473.797     7766311.463 9   8213159.115 8
  21590829.469    21590829.926   -10592498.286 9  -5845485.786 8
  20568544.046    20568545.959    -4474559.569 8  -1172868.186 7
 86  6 11  0 25 29.0800000  0  4G 6G 8G 9G11
  20433577.948    20433580.520    -3848753.796 9   -808634.894 9
  22539222.606    22539225.839     7786026.019 8   8228521.107 9
  21587871.408    21587872.566   -10608038.040 9  -5857594.680 8
  20568620.648    20568624.095    -4474147.054 7  -1172546.731 8
 86  6 11  0 25 35.0800000  0  4G 6G 8G 9G11
  20433414.295    20433415.486    -3849615.019 8   -809305.972 9
  22542977.695    22542979.427     7805751.644 9   8243891.719 9
  21584916.652    21584917.524   -10623569.390 9  -5869697.024 8
  20568703.958    20568706.323    -4473711.614 8  -1172207.437 8
 86  6 11  0 25 41.0800000  0  4G 6G 8G 9G11
  20433253.999    20433255.994    -3850458.298 8   -809963.076 8
  22546732.885    22546735.073     7825488.368 9   8259270.974 8
  21581962.756    21581963.507   -10639092.362 9  -5881792.857 8
  20568790.995    20568794.044    -4473253.284 7  -1171850.290 9
 86  6 11  0 25 47.0800000  0  4G 6G 8G 9G11
  20433096.563    20433098.443    -3851283.742 8   -810606.279 8
  22550490.293    22550492.983     7845236.076 9   8274658.796 9
  21579010.110    21579011.227   -10654607.133 9  -5893882.273 8
  20568883.751    20568885.591    -4472772.141 8  -1171475.367 8
 86  6 11  0 25 53.0800000  0  4G 6G 8G 9G11
  20432943.768    20432945.069    -3852091.242 8   -811235.495 9
  22554250.491    22554251.750     7864994.803 8   8290055.199 9
  21576058.925    21576060.515   -10670113.546 9  -5905965.196 9
  20568978.191    20568981.016    -4472268.123 8  -1171082.625 8
 86  6 11  0 25 59.0800000  0  4G 6G 8G 9G11
  20432792.473    20432794.644    -3852880.789 9   -811850.732 8
  22558012.907    22558015.325     7884764.515 9   8305460.174 9
  21573110.237    21573111.096   -10685611.445 9  -5918041.472 9
  20569078.812    20569080.912    -4471741.280 7  -1170672.100 8
 86  6 11  0 26  5.0800000  0  4G 6G 8G 9G11
  20432645.718    20432647.793    -3853652.445 9   -812452.022 9
  22561777.055    22561779.243     7904545.175 9   8320873.668 8
  21570162.308    21570163.860   -10701100.953 9  -5930111.222 8
  20569184.518    20569187.175    -4471191.627 7  -1170243.803 8
 86  6 11  0 26 11.0800000  0  4G 6G 8G 9G11
  20432502.765    20432504.154    -3854406.133 8   -813039.311 9
  22565543.390    22565544.879     7924336.785 9   8336295.695 8
  21567216.131    21567217.154   -10716582.119 9  -5942174.472 8
  20569292.899    20569294.952    -4470619.120 7  -1169797.689 8
 86  6 11  0 26 17.0800000  0  4G 6G 8G 9G11
  20432362.359    20432364.589    -3855141.851 8   -813612.595 8
  22569311.288    22569313.434     7944139.320 8   8351726.228 7
  21564271.779    21564273.532   -10732054.690 8  -5954231.009 9
  20569406.070    20569408.388    -4470023.799 7  -1169333.798 9
 86  6 11  0 26 23.0800000  0  4G 6G 8G 9G11
  20432225.836    20432227.452    -3855859.576 8   -814171.857 8
  22573082.131    22573083.025     7963952.723 9   8367165.245 9
  21561330.581    21561330.832   -10747518.913 9  -5966281.051 9
  20569525.007    20569526.334    -4469405.683 9  -1168852.154 8
 86  6 11  0 26 29.0800000  0  4G 6G 8G 9G11
  20432092.918    20432093.919    -3856559.279 8   -814717.080 8
  22576853.888    22576856.035     7983776.931 9   8382612.674 9
  21558387.868    21558388.783   -10762974.599 9  -5978324.441 9
  20569644.861    20569648.184    -4468764.706 8  -1168352.689 9
 86  6 11  0 26 35.0800000  0  4G 6G 8G 9G11
  20431963.605    20431964.506    -3857241.060 9   -815248.337 9
  22580628.957    22580631.529     8003611.934 8   8398068.517 8
  21555448.258    21555449.811   -10778421.721 9  -5990361.161 8
  20569771.911    20569775.038    -4468100.936 8  -1167835.470 8
 86  6 11  0 26 41.0800000  0  4G 6G 8G 9G11
  20431836.483    20431838.529    -3857904.785 9   -815765.536 8
  22584404.977    22584407.410     8023457.725 9   8413532.761 9
  21552510.467    21552511.132   -10793860.387 9  -6002391.277 8
  20569902.931    20569904.841    -4467414.374 8  -1167300.475 8
 86  6 11  0 26 47.0800000  0  4G 6G 8G 9G11
  20431714.095    20431716.498    -3858550.463 8   -816268.656 8
  22588184.581    22588185.661     8043314.364 8   8429005.459 8
  21549574.464    21549575.594   -10809290.508 9  -6014414.747 9
  20570037.287    20570039.179    -4466705.046 7  -1166747.756 7
 86  6 11  0 26 53.0800000  0  4G 6G 8G 9G11
  20431594.641    20431597.017    -3859178.098 9   -816757.724 9
  22591964.902    22591966.695     8063181.727 8   8444486.507 9
  21546640.120    21546641.200   -10824711.955 8  -6026431.461 9
  20570176.554    20570178.958    -4465972.937 8  -1166177.296 8
 86  6 11  0 26 59.0800000  0  4G 6G 8G 9G11
  20431478.509    20431480.197    -3859787.630 9   -817232.685 7
  22595747.156    22595748.922     8083059.790 8   8459975.905 8
  21543706.750    21543707.846   -10840124.898 9  -6038441.545 9
  20570321.312    20570322.866    -4465218.037 8  -1165589.051 8
 86  6 11  0 27  5.0800000  0  4G 6G 8G 9G11
  20431365.724    20431367.984    -3860379.094 8   -817693.565 9
  22599531.035    22599534.054     8102948.516 9   8475473.604 9
  21540774.989    21540777.358   -10855529.143 9  -6050444.849 9
  20570467.942    20570472.071    -4464440.399 7  -1164983.094 9
 86  6 11  0 27 11.0800000  0  4G 6G 8G 9G11
  20431256.988    20431258.262    -3860952.506 9   -818140.374 9
  22603317.894    22603319.579     8122847.896 9   8490979.607 9
  21537845.720    21537847.443   -10870924.814 9  -6062441.464 9
  20570621.605    20570623.992    -4463640.025 7  -1164359.435 8
 86  6 11  0 27 17.0800000  0  4G 6G 8G 9G11
  20431151.371    20431153.917    -3861507.846 8   -818573.115 8
  22607107.053    22607108.938     8142757.926 9   8506493.922 9
  21534918.667    21534918.309   -10886311.882 9  -6074431.387 8
  20570778.684    20570779.358    -4462816.899 7  -1163718.035 7
 86  6 11  0 27 23.0800000  0  4G 6G 8G 9G11
  20431049.261    20431051.521    -3862045.099 9   -818991.747 8
  22610898.328    22610900.517     8162678.589 9   8522016.508 9
  21531991.950    21531992.408   -10901690.143 9  -6086414.445 8
  20570938.442    20570941.276    -4461971.006 8  -1163058.894 8
 86  6 11  0 27 29.0800000  0  4G 6G 8G 9G11
  20430949.683    20430951.758    -3862564.176 8   -819396.224 8
  22614690.611    22614692.313     8182609.867 8   8537547.369 9
  21529066.765    21529067.209   -10917059.701 9  -6098390.723 8
  20571104.147    20571106.757    -4461102.407 8  -1162382.059 8
 86  6 11  0 27 35.0800000  0  4G 6G 8G 9G11
  20430855.615    20430856.688    -3863065.105 9   -819786.561 8
  22618485.508    22618487.953     8202551.672 8   8553086.431 9
  21526143.232    21526144.055   -10932420.628 9  -6110360.265 8
  20571271.518    20571277.072    -4460211.063 8  -1161687.511 8
 86  6 11  0 27 41.0800000  0  4G 6G 8G 9G11
  20430763.662    20430764.451    -3863547.863 8   -820162.733 8
  22622282.613    22622283.794     8222504.029 9   8568633.714 8
  21523222.439    21523223.220   -10947772.803 9  -6122322.995 8
  20571447.366    20571450.039    -4459296.984 8  -1160975.235 9
 86  6 11  0 27 47.0800000  0  4G 6G 8G 9G11
  20430673.129    20430676.562    -3864012.468 8   -820524.769 9
  22626080.889    22626083.272     8242466.858 8   8584189.166 8
  21520302.814    21520303.715   -10963116.154 9  -6134278.865 9
  20571625.211    20571627.937    -4458360.212 7  -1160245.280 8
 86  6 11  0 27 53.0800000  0  4G 6G 8G 9G11
  20430589.334    20430591.337    -3864458.880 8   -820872.622 9
  22629882.358    22629884.421     8262440.196 8   8599752.795 9
  21517385.041    21517384.861   -10978450.720 9  -6146227.865 9
  20571807.936    20571811.609    -4457400.758 8  -1159497.661 8
 86  6 11  0 27 59.0800000  0  4G 6G 8G 9G11
  20430508.673    20430510.061    -3864887.127 9   -821206.316 8
  22633685.609    22633685.476     8282423.970 9   8615324.560 8
  21514468.427    21514468.391   -10993776.520 9  -6158170.040 8
  20571995.715    20571996.096    -4456418.632 8  -1158732.361 8
 86  6 11  0 28  5.0800000  0  4G 6G 8G 9G11
  20430430.215    20430431.504    -3865297.073 9   -821525.758 8
  22637488.957    22637491.299     8302418.177 8   8630904.457 9
  21511553.930    21511553.895   -11009093.442 9  -6170105.303 8
  20572185.759    20572188.600    -4455413.807 8  -1157949.378 7
 86  6 11  0 28 11.0800000  0  4G 6G 8G 9G11
  20430355.880    20430357.038    -3865688.889 8   -821831.072 9
  22641296.496    22641299.118     8322422.778 9   8646492.456 9
  21508639.641    21508641.630   -11024401.564 9  -6182033.714 8
  20572381.685    20572385.291    -4454386.274 8  -1157148.714 8
 86  6 11  0 28 17.0800000  0  4G 6G 8G 9G11
  20430284.205    20430285.577    -3866062.463 8   -822122.158 9
  22645105.377    22645106.887     8342437.782 8   8662088.555 9
  21505728.701    21505730.426   -11039700.775 9  -6193955.176 8
  20572581.083    20572584.267    -4453336.124 9  -1156330.414 8
 86  6 11  0 28 23.0800000  0  4G 6G 8G 9G11
  20430217.423    20430218.612    -3866417.819 8   -822399.059 9
  22648914.822    22648918.090     8362463.110 9   8677692.696 9
  21502819.627    21502821.001   -11054991.190 9  -6205869.777 9
  20572785.830    20572788.259    -4452263.335 8  -1155494.470 8
 86  6 11  0 28 29.0800000  0  4G 6G 8G 9G11
  20430152.503    20430154.162    -3866754.892 9   -822661.722 8
  22652728.979    22652730.550     8382498.799 8   8693304.920 9
  21499910.913    21499912.171   -11070272.671 9  -6217777.417 9
  20572994.203    20572996.978    -4451167.843 8  -1154640.839 8
 86  6 11  0 28 35.0800000  0  4G 6G 8G 9G11
  20430092.116    20430093.377    -3867073.732 9   -822910.165 9
  22656543.437    22656545.408     8402544.728 7   8708925.121 8
  21497004.716    21497005.638   -11085545.211 9  -6229678.090 8
  20573207.531    20573210.970    -4450049.758 8  -1153769.606 8
 86  6 11  0 28 41.0800000  0  4G 6G 8G 9G11
  20430034.695    20430036.627    -3867374.239 9   -823144.328 9
  22660358.830    22660360.772     8422600.941 9   8724553.336 8
  21494100.336    21494101.445   -11100808.798 9  -6241571.796 8
  20573424.264    20573426.405    -4448909.056 8  -1152880.743 8
 86  6 11  0 28 47.0800000  0  4G 6G 8G 9G11
  20429981.622    20429983.080    -3867656.501 9   -823364.271 8
  22664178.407    22664179.899     8442667.367 8   8740189.495 8
  21491197.795    21491198.961   -11116063.424 9  -6253458.509 8
  20573645.453    20573647.339    -4447745.717 8  -1151974.243 8
 86  6 11  0 28 53.0800000  0  4G 6G 8G 9G11
  20429931.710    20429931.997    -3867920.427 8   -823569.929 8
  22667999.205    22668001.179     8462744.032 8   8755833.646 8
  21488296.084    21488297.843   -11131309.071 9  -6265338.229 9
  20573872.553    20573874.253    -4446559.799 8  -1151050.149 7
 86  6 11  0 28 59.0800000  0  4G 6G 8G 9G11
  20429884.448    20429886.036    -3868165.980 9   -823761.272 8
  22671821.200    22671822.735     8482830.977 9   8771485.796 8
  21485397.598    21485396.942   -11146545.708 9  -6277210.935 8
  20574100.053    20574103.936    -4445351.194 8  -1150108.392 8
 86  6 11  0 29  5.0800000  0  4G 6G 8G 9G11
  20429841.706    20429842.621    -3868393.251 9   -823938.365 9
  22675645.554    22675647.161     8502928.041 9   8787145.840 8
  21482499.773    21482500.037   -11161773.369 9  -6289076.642 8
  20574335.660    20574337.970    -4444120.075 8  -1149149.063 9
 86  6 11  0 29 11.0800000  0  4G 6G 8G 9G11
  20429801.253    20429802.098    -3868602.123 8   -824101.121 8
  22679472.079    22679473.281     8523035.292 8   8802813.832 8
  21479602.312    21479604.887   -11176991.779 9  -6300935.146 8
  20574572.989    20574576.676    -4442866.311 8  -1148172.111 8
 86  6 11  0 29 17.0800000  0  4G 6G 8G 9G11
  20429765.094    20429766.382    -3868792.657 9   -824249.599 9
  22683300.006    22683302.033     8543152.658 8   8818489.693 8
  21476708.585    21476709.966   -11192201.222 9  -6312786.647 9
  20574816.127    20574818.635    -4441589.975 8  -1147177.573 8
 86  6 11  0 29 23.0800000  0  4G 6G 8G 9G11
  20429733.055    20429733.414    -3868964.863 8   -824383.783 8
  22687129.847    22687131.141     8563280.079 9   8834173.389 8
  21473816.397    21473816.870   -11207401.566 9  -6324631.082 8
  20575064.555    20575066.184    -4440291.084 8  -1146165.434 8
 86  6 11  0 29 29.0800000  0  4G 6G 8G 9G11
  20429703.250    20429703.078    -3869118.674 8   -824503.633 9
  22690962.184    22690964.291     8583417.565 9   8849864.929 9
  21470925.954    21470927.114   -11222592.864 9  -6336468.448 9
  20575315.353    20575316.377    -4438969.669 8  -1145135.756 7
 86  6 11  0 29 35.0800000  0  4G 6G 8G 9G11
  20429677.793    20429677.722    -3869254.092 8   -824609.153 8
  22694796.811    22694796.560     8603565.073 9   8865564.281 8
  21468037.179    21468038.330   -11237774.871 9  -6348298.575 9
  20575571.151    20575572.815    -4437625.657 8  -1144088.466 7
 86  6 11  0 29 41.0800000  0  4G 6G 8G 9G11
  20429656.458    20429656.343    -3869371.059 8   -824700.296 8
  22698632.681    22698633.789     8623722.625 8   8881271.457 8
  21465149.705    21465150.500   -11252947.813 9  -6360121.645 8
  20575830.834    20575834.340    -4436259.115 8  -1143023.649 8
 86  6 11  0 29 47.0800000  0  4G 6G 8G 9G11
  20429636.711    20429637.885    -3869469.647 9   -824777.110 9
  22702469.575    22702471.718     8643890.118 8   8896986.369 9
  21462264.800    21462264.056   -11268111.598 9  -6371937.589 9
  20576096.620    20576097.911    -4434870.082 7  -1141941.287 8
 86  6 11  0 29 53.0800000  0  4G 6G 8G 9G11
  20429621.228    20429621.801    -3869549.643 9   -824839.451 8
  22706310.231    22706311.275     8664067.658 8   8912709.124 8
  21459379.938    21459381.341   -11283266.131 9  -6383746.302 9
  20576363.984    20576366.348    -4433458.373 9  -1140841.248 8
 86  6 11  0 29 59.0800000  0  4G 6G 8G 9G11
  20429609.839    20429610.783    -3869611.375 9   -824887.558 9
  22710150.360    22710153.071     8684255.067 9   8928439.575 8
  21456497.802    21456498.067   -11298411.519 8  -6395547.904 9
  20576637.145    20576639.156    -4432024.274 8  -1139723.762 8
 86  6 11  0 30  5.0800000  0  4G 6G 8G 9G11
  20429601.754    20429603.142    -3869654.545 8   -824921.196 8
  22713994.511    22713995.579     8704452.447 8   8944177.783 8
  21453618.414    21453619.151   -11313547.484 9  -6407342.155 8
  20576915.873    20576916.611    -4430567.511 8  -1138588.621 8
 86  6 11  0 30 11.0800000  0  4G 6G 8G 9G11
  20429597.590    20429597.647    -3869679.223 8   -824940.416 9
  22717839.905    22717841.952     8724659.733 8   8959923.723 8
  21450739.096    21450738.782   -11328674.242 9  -6419129.231 8
  20577196.030    20577197.826    -4429088.267 8  -1137435.970 8
 86  6 11  0 30 17.0800000  0  4G 6G 8G 9G11
  20429595.629    20429597.102    -3869685.350 8   -824945.198 9
  22721686.598    22721688.724     8744876.869 9   8975677.319 8
  21447862.012    21447862.241   -11343791.687 9  -6430909.065 9
  20577481.381    20577482.676    -4427586.559 9  -1136265.804 8
 86  6 11  0 30 23.0800000  0  4G 6G 8G 9G11
  20429597.919    20429599.249    -3869673.034 9   -824935.598 9
  22725536.125    22725537.528     8765103.827 9   8991438.589 9
  21444987.044    21444987.718   -11358899.849 9  -6442681.656 8
  20577772.014    20577773.481    -4426062.348 8  -1135078.111 8
 86  6 11  0 30 29.0800000  0  4G 6G 8G 9G11
  20429603.513    20429604.715    -3869642.181 9   -824911.560 9
  22729387.695    22729389.358     8785340.596 9   9007207.496 8
  21442114.654    21442114.946   -11373998.752 9  -6454447.025 8
  20578066.154    20578067.682    -4424515.705 8  -1133872.913 8
 86  6 11  0 30 35.0800000  0  4G 6G 8G 9G11
  20429614.102    20429614.845    -3869592.899 8   -824873.156 9
  22733239.439    22733241.303     8805587.016 8   9022983.917 9
  21439242.404    21439242.719   -11389088.302 9  -6466205.121 9
  20578365.398    20578366.939    -4422946.678 8  -1132650.315 8
 86  6 11  0 30 41.0800000  0  4G 6G 8G 9G11
  20429627.008    20429627.982    -3869525.094 9   -824820.335 8
  22737094.547    22737095.531     8825843.218 9   9038767.977 9
  21436373.318    21436374.305   -11404168.544 9  -6477955.947 9
  20578667.608    20578670.620    -4421355.267 8  -1131410.253 8
 86  6 11  0 30 47.0800000  0  4G 6G 8G 9G11
  20429642.807    20429643.779    -3869438.707 9   -824753.012 9
  22740950.542    22740952.399     8846109.169 9   9054559.621 8
  21433505.219    21433506.328   -11419239.293 9  -6489699.403 9
  20578974.053    20578977.528    -4419741.365 9  -1130152.664 7
 86  6 11  0 30 53.0800000  0  4G 6G 8G 9G11
  20429662.523    20429664.698    -3869333.786 8   -824671.253 8
  22744809.434    22744810.972     8866384.816 8   9070358.815 8
  21430639.324    21430639.461   -11434300.706 9  -6501435.564 9
  20579286.190    20579288.472    -4418105.147 7  -1128877.689 7
 86  6 11  0 30 59.0800000  0  4G 6G 8G 9G11
  20429686.062    20429687.507    -3869210.336 8   -824575.067 8
  22748669.698    22748670.373     8886670.149 9   9086165.565 8
  21427774.623    21427775.211   -11449352.670 9  -6513164.372 8
  20579601.994    20579604.083    -4416446.481 8  -1127585.230 8
 86  6 11  0 31  5.0800000  0  4G 6G 8G 9G11
  20429712.776    20429715.009    -3869068.241 8   -824464.346 8
  22752531.185    22752533.342     8906965.147 9   9101979.835 8
  21424912.069    21424912.398   -11464395.180 9  -6524885.805 8
  20579922.423    20579923.571    -4414765.327 9  -1126275.238 8
 86  6 11  0 31 11.0800000  0  4G 6G 8G 9G11
  20429743.957    20429744.744    -3868907.520 9   -824339.111 7
  22756394.900    22756396.288     8927269.739 8   9117801.599 9
  21422052.162    21422052.313   -11479428.236 9  -6536599.869 8
  20580244.899    20580247.818    -4413061.767 8  -1124947.783 9
 86  6 11  0 31 17.0800000  0  4G 6G 8G 9G11
  20429777.254    20429778.857    -3868728.243 8   -824199.406 9
  22760261.057    22760262.921     8947583.943 8   9133630.841 8
  21419193.029    21419193.208   -11494451.741 9  -6548306.494 9
  20580574.474    20580575.458    -4411335.831 7  -1123602.892 8
 86  6 11  0 31 23.0800000  0  4G 6G 8G 9G11
  20429813.885    20429816.432    -3868530.285 9   -824045.161 9
  22764128.874    22764130.588     8967907.724 9   9149467.547 8
  21416336.048    21416336.485   -11509465.687 9  -6560005.665 8
  20580908.011    20580908.987    -4409587.499 9  -1122240.565 8
 86  6 11  0 31 29.0800000  0  4G 6G 8G 9G11
  20429855.110    20429857.700    -3868313.770 8   -823876.437 8
  22767997.850    22767999.736     8988241.019 9   9165311.658 8
  21413480.542    21413480.850   -11524470.227 9  -6571697.520 8
  20581243.813    20581246.575    -4407816.852 7  -1120860.833 8
 86  6 11  0 31 35.0800000  0  4G 6G 8G 9G11
  20429901.771    20429902.173    -3868078.562 9   -823693.171 9
  22771869.035    22771870.201     9008583.828 8   9181163.202 8
  21410626.531    21410627.968   -11539465.203 9  -6583381.922 8
  20581585.169    20581586.676    -4406023.802 8  -1119463.659 8
 86  6 11  0 31 41.0800000  0  4G 6G 8G 9G11
  20429949.035    20429950.452    -3867824.739 9   -823495.387 9
  22775741.531    22775742.211     9028936.163 8   9197022.155 8
  21407775.481    21407776.354   -11554450.565 9  -6595058.817 9
  20581930.410    20581931.941    -4404208.442 8  -1118049.091 7
 86  6 11  0 31 47.0800000  0  4G 6G 8G 9G11
  20430000.177    20430002.938    -3867552.154 8   -823282.982 9
  22779617.082    22779617.408     9049297.996 8   9212888.510 9
  21404925.676    21404926.842   -11569426.363 9  -6606728.269 8
  20582280.080    20582282.091    -4402370.699 8  -1116617.082 8
 86  6 11  0 31 53.0800000  0  4G 6G 8G 9G11
  20430056.397    20430058.057    -3867260.913 9   -823056.037 8
  22783493.147    22783495.238     9069669.272 9   9228762.228 8
  21402078.283    21402079.084   -11584392.556 9  -6618390.233 8
  20582634.096    20582635.171    -4400510.633 8  -1115167.678 8
 86  6 11  0 31 59.0800000  0  4G 6G 8G 9G11
  20430114.951    20430116.726    -3866950.965 8   -822814.530 8
  22787370.841    22787372.279     9090049.945 9   9244643.268 8
  21399231.441    21399232.498   -11599349.069 9  -6630044.658 8
  20582991.955    20582994.258    -4398628.245 8  -1113700.887 8
 86  6 11  0 32  5.0800000  0  4G 6G 8G 9G11
  20430178.440    20430179.285    -3866622.305 8   -822558.428 8
  22791251.494    22791253.135     9110439.985 8   9260531.614 8
  21396387.689    21396387.732   -11614295.864 9  -6641691.517 8
  20583356.309    20583357.315    -4396723.550 8  -1112216.704 8
 86  6 11  0 32 11.0800000  0  4G 6G 8G 9G11
  20430244.720    20430245.192    -3866274.949 9   -822287.761 8
  22795132.970    22795134.701     9130839.413 9   9276427.266 9
  21393544.960    21393545.875   -11629233.014 9  -6653330.855 9
  20583721.641    20583723.107    -4394796.561 8  -1110715.153 7
 86  6 11  0 32 17.0800000  0  4G 6G 8G 9G11
  20430313.389    20430315.192    -3865908.867 9   -822002.516 9
  22799016.705    22799018.723     9151248.174 8   9292330.192 8
  21390704.506    21390705.573   -11644160.515 9  -6664962.675 9
  20584092.986    20584093.389    -4392847.281 6  -1109196.233 8
 86  6 11  0 32 23.0800000  0  4G 6G 8G 9G11
  20430386.683    20430388.970    -3865524.050 8   -821702.650 8
  22802901.629    22802903.326     9171666.252 9   9308240.365 7
  21387865.585    21387865.027   -11659078.302 9  -6676586.920 9
  20584467.475    20584470.122    -4390875.781 8  -1107659.999 8
 86  6 11  0 32 29.0800000  0  4G 6G 8G 9G11
  20430463.305    20430465.038    -3865120.430 9   -821388.129 9
  22806790.088    22806791.748     9192093.617 9   9324157.790 9
  21385028.007    21385030.347   -11673986.292 8  -6688203.533 8
  20584846.003    20584848.107    -4388881.969 8  -1106106.384 7
 86  6 11  0 32 35.0800000  0  4G 6G 8G 9G11
  20430543.767    20430546.257    -3864698.018 8   -821058.988 9
  22810678.697    22810680.089     9212530.283 8   9340082.462 8
  21382193.993    21382193.900   -11688884.517 9  -6699812.541 8
  20585231.467    20585233.252    -4386865.848 8  -1104535.382 7
 86  6 11  0 32 41.0800000  0  4G 6G 8G 9G11
  20430628.663    20430629.880    -3864256.863 8   -820715.220 8
  22814569.679    22814570.994     9232976.138 9   9356014.284 8
  21379359.357    21379361.215   -11703772.990 9  -6711413.953 8
  20585618.288    20585619.945    -4384827.472 8  -1102947.041 8
 86  6 11  0 32 47.0800000  0  4G 6G 8G 9G11
  20430715.378    20430717.281    -3863796.833 8   -820356.765 8
  22818462.150    22818463.089     9253431.217 9   9371953.300 9
  21376528.339    21376529.777   -11718651.558 9  -6723007.637 8
  20586010.653    20586011.619    -4382766.790 8  -1101341.312 8
 86  6 11  0 32 53.0800000  0  4G 6G 8G 9G11
  20430807.099    20430808.000    -3863318.091 8   -819983.704 9
  22822357.001    22822357.942     9273895.493 8   9387899.489 7
  21373699.191    21373701.036   -11733520.365 9  -6734593.720 8
  20586407.228    20586408.538    -4380683.904 9  -1099718.276 7
 86  6 11  0 32 59.0800000  0  4G 6G 8G 9G11
  20430901.080    20430903.357    -3862820.512 9   -819595.990 8
  22826251.272    22826253.490     9294368.925 8   9403852.802 8
  21370871.809    21370872.467   -11748379.315 9  -6746172.114 8
  20586807.226    20586810.285    -4378578.791 9  -1098077.932 8
 86  6 11  0 33  5.0800000  0  4G 6G 8G 9G11
  20430998.872    20431001.547    -3862304.096 9   -819193.600 8
  22830149.079    22830151.336     9314851.482 8   9419813.230 8
  21368046.116    21368047.425   -11763228.375 9  -6757742.812 8
  20587213.107    20587214.062    -4376451.402 8  -1096420.235 8
 86  6 11  0 33 11.0800000  0  4G 6G 8G 9G11
  20431102.369    20431102.712    -3861768.882 8   -818776.539 8
  22834048.659    22834050.799     9335343.120 8   9435780.734 9
  21365223.040    21365223.048   -11778067.523 9  -6769305.781 9
  20587622.500    20587623.910    -4374301.883 7  -1094745.304 8
 86  6 11  0 33 17.0800000  0  4G 6G 8G 9G11
  20431206.224    20431208.456    -3861214.774 8   -818344.778 8
  22837950.300    22837952.059     9355843.835 9   9451755.313 9
  21362400.745    21362400.129   -11792896.811 9  -6780861.069 8
  20588035.632    20588036.769    -4372130.160 8  -1093053.025 8
 86  6 11  0 33 23.0800000  0  4G 6G 8G 9G11
  20431315.618    20431317.664    -3860641.854 9   -817898.346 8
  22841852.470    22841855.257     9376353.632 8   9467736.964 8
  21359580.975    21359581.420   -11807716.140 9  -6792408.605 9
  20588452.103    20588454.221    -4369936.324 8  -1091343.550 7
 86  6 11  0 33 29.0800000  0  4G 6G 8G 9G11
  20431428.502    20431430.020    -3860049.988 8   -817437.152 8
  22845758.078    22845759.870     9396872.447 8   9483725.633 9
  21356762.451    21356762.916   -11822525.496 9  -6803948.350 8
  20588873.538    20588875.762    -4367720.337 8  -1089616.808 7
 86  6 11  0 33 35.0800000  0  4G 6G 8G 9G11
  20431545.095    20431546.153    -3859439.291 9   -816961.279 8
  22849663.458    22849666.749     9417400.288 8   9499721.354 8
  21353946.466    21353946.267   -11837324.905 9  -6815480.359 8
  20589299.107    20589302.516    -4365482.171 9  -1087872.786 8
 86  6 11  0 33 41.0800000  0  4G 6G 8G 9G11
  20431665.449    20431665.777    -3858809.608 8   -816470.632 8
  22853572.429    22853573.401     9437937.142 9   9515724.092 8
  21351131.133    21351131.491   -11852114.271 9  -6827004.540 9
  20589730.061    20589732.418    -4363221.856 9  -1086111.499 7
 86  6 11  0 33 47.0800000  0  4G 6G 8G 9G11
  20431788.923    20431790.153    -3858161.047 7   -815965.250 8
  22857482.267    22857483.609     9458482.965 9   9531733.826 8
  21348318.818    21348320.263   -11866893.552 9  -6838520.864 8
  20590163.623    20590166.391    -4360939.404 8  -1084332.971 7
 86  6 11  0 33 53.0800000  0  4G 6G 8G 9G11
  20431915.832    20431916.732    -3857493.557 9   -815445.118 9
  22861393.013    22861395.359     9479037.706 9   9547750.498 9
  21345508.507    21345510.089   -11881662.883 9  -6850029.430 8
  20590602.807    20590605.014    -4358634.842 8  -1082537.206 7
 86  6 11  0 33 59.0800000  0  4G 6G 8G 9G11
  20432045.744    20432046.544    -3856807.115 9   -814910.254 8
  22865306.287    22865308.659     9499601.366 9   9563774.122 9
  21342698.990    21342701.788   -11896422.078 9  -6861530.090 8
  20591045.801    20591048.001    -4356308.132 8  -1080724.183 8
 86  6 11  0 34  5.0800000  0  4G 6G 8G 9G11
  20432180.535    20432181.166    -3856101.736 8   -814360.597 8
  22869221.741    22869223.139     9520173.891 9   9579804.654 8
  21339893.823    21339894.123   -11911171.233 9  -6873022.948 8
  20591492.763    20591494.723    -4353959.281 8  -1078893.915 8
 86  6 11  0 34 11.0800000  0  4G 6G 8G 9G11
  20432318.563    20432319.535    -3855377.373 8   -813796.165 9
  22873136.410    22873139.994     9540755.276 8   9595842.089 9
  21337089.557    21337089.414   -11925910.172 9  -6884507.823 8
  20591943.652    20591945.529    -4351588.291 9  -1077046.376 8
 86  6 11  0 34 17.0800000  0  4G 6G 8G 9G11
  20432460.066    20432459.708    -3854634.095 8   -813216.987 9
  22877055.351    22877058.008     9561345.455 9   9611886.376 8
  21334286.222    21334286.380   -11940639.035 9  -6895984.863 9
  20592398.728    20592399.855    -4349195.241 8  -1075181.669 8
 86  6 11  0 34 23.0800000  0  4G 6G 8G 9G11
  20432604.188    20432605.204    -3853871.755 9   -812622.971 9
  22880976.369    22880977.442     9581944.459 8   9627937.542 9
  21331484.762    21331485.985   -11955357.781 9  -6907454.002 9
  20592858.002    20592861.318    -4346780.111 9  -1073299.752 8
 86  6 11  0 34 29.0800000  0  4G 6G 8G 9G11
  20432753.232    20432754.906    -3853090.494 9   -812014.186 8
  22884896.724    22884899.624     9602552.205 8   9643995.526 8
  21328685.998    21328687.565   -11970066.328 9  -6918915.214 8
  20593321.989    20593324.518    -4344342.945 8  -1071400.669 8
 86  6 11  0 34 35.0800000  0  4G 6G 8G 9G11
  20432905.624    20432906.727    -3852290.200 9   -811390.584 9
  22888820.668    22888821.999     9623168.744 9   9660060.346 8
  21325888.329    21325889.803   -11984764.732 9  -6930368.510 9
  20593791.369    20593792.564    -4341883.730 8  -1069484.399 8
 86  6 11  0 34 41.0800000  0  4G 6G 8G 9G11
  20433062.481    20433062.839    -3851470.899 9   -810752.166 9
  22892745.397    22892747.153     9643793.972 8   9676131.954 8
  21323094.080    21323095.260   -11999452.856 9  -6941813.801 8
  20594261.974    20594264.832    -4339402.475 7  -1067550.937 8
 86  6 11  0 34 47.0800000  0  4G 6G 8G 9G11
  20433221.186    20433222.387    -3850632.538 8   -810098.906 9
  22896670.816    22896674.075     9664427.906 9   9692210.338 8
  21320300.525    21320302.314   -12014130.793 9  -6953251.161 8
  20594738.409    20594741.229    -4336899.156 8  -1065600.302 7
 86  6 11  0 34 53.0800000  0  4G 6G 8G 9G11
  20433384.868    20433385.226    -3849775.113 9   -809430.781 8
  22900599.570    22900602.553     9685070.565 8   9708295.515 8
  21317509.882    21317510.319   -12028798.438 8  -6964680.494 8
  20595218.297    20595221.075    -4334373.821 8  -1063632.519 8
 86  6 11  0 34 59.0800000  0  4G 6G 8G 9G11
  20433551.872    20433552.471    -3848898.687 8   -808747.854 8
  22904529.997    22904531.997     9705721.798 8   9724387.386 8
  21314720.534    21314722.464   -12043455.825 9  -6976101.824 9
  20595705.638    20595707.405    -4331826.559 7  -1061647.630 7
 86  6 11  0 35  5.0800000  0  4G 6G 8G 9G11
  20433721.277    20433723.151    -3848003.210 8   -808050.086 8
  22908461.254    22908463.158     9726381.632 8   9740485.952 9
  21311933.109    21311934.914   -12058102.885 9  -6987515.117 8
  20596193.753    20596194.408    -4329257.300 8  -1059645.619 7
 86  6 11  0 35 11.0800000  0  4G 6G 8G 9G11
  20433895.190    20433896.235    -3847088.701 7   -807337.477 9
  22912394.146    22912396.178     9747050.056 9   9756591.209 8
  21309148.019    21309148.999   -12072739.716 9  -6998920.430 8
  20596687.573    20596688.966    -4326666.071 7  -1057626.475 8
 86  6 11  0 35 17.0800000  0  4G 6G 8G 9G11
  20434071.738    20434073.297    -3846155.088 9   -806609.994 8
  22916329.016    22916330.759     9767727.104 9   9772703.172 8
  21306364.451    21306365.088   -12087366.168 9  -7010317.679 9
  20597184.160    20597186.067    -4324052.819 8  -1055590.166 8
 86  6 11  0 35 23.0800000  0  4G 6G 8G 9G11
  20434254.079    20434256.053    -3845202.371 9   -805867.613 9
  22920265.182    22920267.135     9788412.720 8   9788821.830 9
  21303583.288    21303584.726   -12101982.270 9  -7021706.844 9
  20597685.029    20597686.570    -4321417.511 8  -1053536.692 7
 86  6 11  0 35 29.0800000  0  4G 6G 8G 9G11
  20434438.396    20434440.472    -3844230.555 8   -805110.349 9
  22924203.384    22924205.318     9809106.821 9   9804947.115 8
  21300804.458    21300805.100   -12116587.984 9  -7033087.918 8
  20598191.461    20598192.654    -4318760.304 9  -1051466.135 8
 86  6 11  0 35 35.0800000  0  4G 6G 8G 9G11
  20434627.235    20434628.694    -3843239.607 8   -804338.194 8
  22928141.914    22928145.147     9829809.444 8   9821079.009 9
  21298026.650    21298026.928   -12131183.355 9  -7044460.931 8
  20598699.772    20598702.464    -4316081.147 8  -1049378.475 8
 86  6 11  0 35 41.0800000  0  4G 6G 8G 9G11
  20434820.164    20434822.011    -3842229.537 8   -803551.120 8
  22932084.084    22932086.345     9850520.536 9   9837217.520 9
  21295251.510    21295251.389   -12145768.189 9  -7055825.742 9
  20599214.901    20599217.317    -4313379.986 8  -1047273.683 8
 86  6 11  0 35 47.0800000  0  4G 6G 8G 9G11
  20435016.444    20435016.930    -3841200.292 9   -802749.114 9
  22936027.182    22936028.009     9871240.085 8   9853362.618 9
  21292477.150    21292479.370   -12160342.566 9  -7067182.396 8
  20599732.831    20599735.080    -4310656.863 7  -1045151.785 8
 86  6 11  0 35 53.0800000  0  4G 6G 8G 9G11
  20435215.026    20435216.430    -3840151.905 8   -801932.193 7
  22939970.818    22939973.021     9891968.044 8   9869514.264 9
  21289707.557    21289707.264   -12174906.458 9  -7078530.889 9
  20600255.565    20600256.997    -4307911.865 8  -1043012.801 7
 86  6 11  0 35 59.0800000  0  4G 6G 8G 9G11
  20435418.889    20435420.305    -3839084.358 8   -801100.343 8
  22943917.361    22943919.357     9912704.355 8   9885672.420 9
  21286936.875    21286937.755   -12189459.874 9  -7089871.206 9
  20600781.660    20600783.267    -4305145.014 8  -1040856.819 8
 86  6 11  0 36  5.0800000  0  4G 6G 8G 9G11
  20435624.957    20435627.160    -3837997.691 8   -800253.585 8
  22947863.457    22947866.633     9933449.005 7   9901837.085 8
  21284169.519    21284169.627   -12204002.884 9  -7101203.415 8
  20601312.768    20601314.627    -4302356.333 8  -1038683.833 8
 86  6 11  0 36 11.0800000  0  4G 6G 8G 9G11
  20435836.231    20435836.359    -3836891.800 9   -799391.853 9
  22951813.420    22951815.551     9954202.030 8   9918008.265 8
  21281402.974    21281404.991   -12218535.306 9  -7112527.376 8
  20601847.850    20601848.569    -4299545.796 9  -1036493.794 8
 86  6 11  0 36 17.0800000  0  4G 6G 8G 9G11
  20436050.268    20436050.913    -3835766.770 8   -798515.211 9
  22955764.481    22955767.092     9974963.339 8   9934185.896 9
  21278641.020    21278642.258   -12233057.189 9  -7123843.137 9
  20602385.832    20602388.365    -4296713.336 8  -1034286.688 7
 86  6 11  0 36 23.0800000  0  4G 6G 8G 9G11
  20436266.780    20436269.041    -3834622.490 9   -797623.564 8
  22959715.926    22959720.272     9995732.980 8   9950370.023 9
  21275878.445    21275879.347   -12247568.453 9  -7135150.608 8
  20602929.961    20602931.249    -4293859.023 8  -1032062.549 8
 86  6 11  0 36 29.0800000  0  4G 6G 8G 9G11
  20436489.302    20436491.520    -3833458.961 9   -796716.924 9
  22963669.565    22963673.754    10016510.926 8   9966560.612 8
  21273120.619    21273120.970   -12262069.087 9  -7146449.800 9
  20603476.932    20603477.553    -4290982.822 8  -1029821.356 8
 86  6 11  0 36 35.0800000  0  4G 6G 8G 9G11
  20436714.056    20436715.344    -3832276.124 8   -795795.230 9
  22967626.039    22967628.525    10037297.084 8   9982757.610 9
  21270362.358    21270361.615   -12276559.090 9  -7157740.717 9
  20604027.461    20604029.968    -4288084.833 8  -1027563.185 9
 86  6 11  0 36 41.0800000  0  4G 6G 8G 9G11
  20436942.560    20436944.577    -3831074.075 9   -794858.574 8
  22971583.914    22971585.589    10058091.474 7   9998961.033 9
  21267606.909    21267607.631   -12291038.428 9  -7169023.301 9
  20604583.935    20604586.369    -4285165.064 8  -1025288.041 8
 86  6 11  0 36 47.0800000  0  4G 6G 8G 9G11
  20437175.499    20437177.216    -3829852.809 9   -793906.945 9
  22975540.490    22975544.437    10078894.044 7  10015170.817 8
  21264854.199    21264854.807   -12305507.102 9  -7180297.598 8
  20605142.285    20605146.137    -4282223.469 8  -1022995.872 9
 86  6 11  0 36 53.0800000  0  4G 6G 8G 9G11
  20437411.286    20437412.488    -3828612.280 9   -792940.298 9
  22979500.879    22979504.128    10099704.823 8  10031386.994 8
  21262102.255    21262102.433   -12319965.077 9  -7191563.545 9
  20605707.670    20605708.813    -4279260.004 8  -1020686.689 8
 86  6 11  0 36 59.0800000  0  4G 6G 8G 9G11
  20437651.523    20437651.651    -3827352.444 9   -791958.610 9
  22983463.817    22983466.054    10120523.740 7  10047609.527 9
  21259353.988    21259354.054   -12334412.305 9  -7202821.136 9
  20606275.616    20606277.924    -4276274.742 8  -1018360.519 8
 86  6 11  0 37  5.0800000  0  4G 6G 8G 9G11
  20437894.937    20437896.023    -3826073.290 9   -790961.869 8
  22987426.702    22987429.935    10141350.738 8  10063838.341 9
  21256606.145    21256607.346   -12348848.830 9  -7214070.367 9
  20606848.123    20606850.169    -4273267.725 8  -1016017.384 7
 86  6 11  0 37 11.0800000  0  4G 6G 8G 9G11
  20438141.899    20438143.171    -3824774.812 8   -789950.066 9
  22991391.400    22991394.903    10162185.868 7  10080073.492 8
  21253860.747    21253862.443   -12363274.635 9  -7225311.247 9
  20607424.051    20607426.501    -4270238.927 8  -1013657.284 8
 86  6 11  0 37 17.0800000  0  4G 6G 8G 9G11
  20438393.081    20438393.983    -3823457.051 8   -788923.240 9
  22995357.886    22995361.145    10183029.059 7  10096314.944 8
  21251118.232    21251119.213   -12377689.575 9  -7236543.669 8
  20608003.652    20608006.817    -4267188.351 9  -1011280.212 7
 86  6 11  0 37 23.0800000  0  4G 6G 8G 9G11
  20438647.327    20438648.831    -3822119.964 8   -787881.359 8
  22999326.376    22999329.306    10203880.313 8  10112562.662 9
  21248376.484    21248377.514   -12392093.743 9  -7247767.695 8
  20608589.684    20608591.094    -4264116.005 8  -1008886.176 8
 86  6 11  0 37 29.0800000  0  4G 6G 8G 9G11
  20438906.080    20438906.853    -3820763.564 9   -786824.423 9
  23003294.200    23003298.311    10224739.550 7  10128816.582 9
  21245638.821    21245637.941   -12406487.118 9  -7258983.297 9
  20609178.371    20609179.163    -4261021.979 8  -1006475.240 7
 86  6 11  0 37 35.0800000  0  4G 6G 8G 9G11
  20439166.307    20439168.425    -3819387.850 9   -785752.437 8
  23007266.454    23007269.677    10245606.823 8  10145076.794 8
  21242901.458    21242902.509   -12420869.680 9  -7270190.491 8
  20609771.072    20609772.367    -4257906.224 8  -1004047.385 7
 86  6 11  0 37 41.0800000  0  4G 6G 8G 9G11
  20439432.586    20439432.974    -3817992.836 9   -784665.410 8
  23011238.439    23011241.884    10266481.965 8  10161343.138 9
  21240166.971    21240168.238   -12435241.390 9  -7281389.230 8
  20610368.220    20610370.478    -4254768.760 8  -1001602.608 8
 86  6 11  0 37 47.0800000  0  4G 6G 8G 9G11
  20439700.640    20439703.245    -3816578.413 8   -783563.262 8
  23015212.177    23015216.755    10287365.069 8  10177615.679 9
  21237434.158    21237434.674   -12449602.239 9  -7292579.497 9
  20610968.805    20610971.678    -4251609.647 8   -999140.969 8
 86  6 11  0 37 53.0800000  0  4G 6G 8G 9G11
  20439974.046    20439975.176    -3815144.590 9   -782446.005 9
  23019188.393    23019190.339    10308256.114 7  10193894.398 8
  21234703.050    21234703.307   -12463952.153 9  -7303761.235 9
  20611574.069    20611576.223    -4248428.810 8   -996662.383 8
 86  6 11  0 37 59.0800000  0  4G 6G 8G 9G11
  20440250.328    20440252.403    -3813691.395 9   -781313.655 9
  23023164.481    23023167.528    10329155.041 8  10210179.274 8
  21231974.086    21231975.502   -12478291.156 9  -7314934.487 9
  20612182.471    20612185.519    -4245226.247 8   -994166.890 8
 86  6 11  0 38  5.0800000  0  4G 6G 8G 9G11
  20440532.076    20440531.432    -3812218.839 9   -780166.203 9
  23027143.130    23027146.125    10350061.834 7  10226470.273 8
  21229247.383    21229248.978   -12492619.206 9  -7326099.201 9
  20612796.836    20612798.854    -4242002.038 8   -991654.517 8
 86  6 11  0 38 11.0800000  0  4G 6G 8G 9G11
  20440814.453    20440814.611    -3810726.826 8   -779003.601 8
  23031123.944    23031126.187    10370976.499 8  10242767.396 8
  21226523.686    21226523.422   -12506936.262 9  -7337255.342 9
  20613414.928    20613417.148    -4238756.204 8   -989125.292 8
 86  6 11  0 38 17.0800000  0  4G 6G 8G 9G11
  20441101.695    20441103.370    -3809215.399 9   -777825.861 8
  23035102.700    23035107.964    10391899.017 7  10259070.646 8
  21223802.078    21223802.034   -12521242.298 9  -7348402.905 9
  20614035.958    20614039.674    -4235488.695 7   -986579.190 8
 86  6 11  0 38 23.0800000  0  4G 6G 8G 9G11
  20441393.775    20441394.934    -3807684.556 9   -776632.996 8
  23039087.667    23039090.880    10412829.257 7  10275379.924 9
  21221080.847    21221081.263   -12535537.370 9  -7359541.913 8
  20614662.554    20614665.026    -4232199.595 8   -984016.256 8
 86  6 11  0 38 29.0800000  0  4G 6G 8G 9G11
  20441688.044    20441690.504    -3806134.293 8   -775425.010 8
  23043070.545    23043074.317    10433767.244 7  10291695.224 8
  21218362.180    21218363.524   -12549821.399 9  -7370672.329 9
  20615293.034    20615294.822    -4228888.834 8   -981436.448 7
 86  6 11  0 38 35.0800000  0  4G 6G 8G 9G11
  20441987.221    20441989.166    -3804564.603 9   -774201.869 9
  23047056.496    23047060.839    10454712.977 7  10308016.559 9
  21215645.844    21215647.003   -12564094.381 8  -7381794.133 9
  20615927.107    20615928.137    -4225556.474 8   -978839.801 8
 86  6 11  0 38 41.0800000  0  4G 6G 8G 9G11
  20442288.729    20442290.460    -3802975.472 8   -772963.588 8
  23051044.543    23051047.272    10475666.394 8  10324343.890 8
  21212932.228    21212933.151   -12578356.320 9  -7392907.324 9
  20616565.535    20616568.143    -4222202.564 8   -976226.370 8
 86  6 11  0 38 47.0800000  0  4G 6G 8G 9G11
  20442595.633    20442597.077    -3801366.859 9   -771710.121 9
  23055032.436    23055036.650    10496627.497 8  10340677.216 9
  21210220.392    21210221.443   -12592607.160 9  -7404011.871 8
  20617206.881    20617209.031    -4218827.130 9   -973596.155 8
 86  6 11  0 38 53.0800000  0  4G 6G 8G 9G11
  20442904.797    20442906.843    -3799738.732 8   -770441.454 8
  23059023.824    23059026.586    10517596.313 8  10357016.546 8
  21207510.625    21207511.584   -12606846.780 9  -7415107.668 9
  20617853.661    20617856.011    -4215430.103 8   -970949.122 8
 86  6 11  0 38 59.0800000  0  4G 6G 8G 9G11
  20443218.782    20443221.043    -3798091.131 8   -769157.607 9
  23063014.631    23063018.588    10538572.728 8  10373361.789 8
  21204803.189    21204803.819   -12621075.372 9  -7426194.885 9
  20618503.801    20618505.969    -4212011.544 8   -968285.307 8
 86  6 11  0 39  5.0800000  0  4G 6G 8G 9G11
  20443535.674    20443537.506    -3796424.033 8   -767858.571 9
  23067008.696    23067012.799    10559556.797 8  10389713.001 8
  21202097.564    21202098.659   -12635292.766 9  -7437273.385 9
  20619158.272    20619161.009    -4208571.425 7   -965604.698 8
 86  6 11  0 39 11.0800000  0  4G 6G 8G 9G11
  20443857.902    20443859.348    -3794737.398 9   -766544.318 8
  23071002.478    23071006.673    10580548.419 7  10406070.106 8
  21199394.573    21199395.802   -12649498.947 9  -7448343.124 9
  20619817.013    20619819.671    -4205109.817 8   -962907.344 8
 86  6 11  0 39 17.0800000  0  4G 6G 8G 9G11
  20444181.318    20444183.936    -3793031.219 8   -765214.825 9
  23074999.146    23075002.823    10601547.668 8  10422433.142 8
  21196693.812    21196694.198   -12663693.866 9  -7459404.112 8
  20620480.169    20620482.726    -4201626.647 8   -960193.191 8
 86  6 11  0 39 23.0800000  0  4G 6G 8G 9G11
  20444510.673    20444512.505    -3791305.546 9   -763870.142 9
  23078995.936    23078999.614    10622554.433 8  10438802.050 8
  21193993.861    21193993.668   -12677877.601 9  -7470456.369 8
  20621146.243    20621150.036    -4198122.013 8   -957462.302 7
 86  6 11  0 39 29.0800000  0  4G 6G 8G 9G11
  20444843.576    20444844.621    -3789560.306 8   -762510.208 8
  23082995.395    23082999.308    10643568.713 8  10455176.799 9
  21191297.974    21191297.229   -12692050.043 9  -7481499.825 8
  20621818.854    20621821.436    -4194595.929 9   -954714.708 8
 86  6 11  0 39 35.0800000  0  4G 6G 8G 9G11
  20445177.940    20445179.140    -3787795.535 8   -761135.074 8
  23086996.052    23086999.300    10664590.498 8  10471557.404 9
  21188602.715    21188603.102   -12706211.233 9  -7492534.525 8
  20622493.389    20622495.261    -4191048.316 8   -951950.339 7
 86  6 11  0 39 41.0800000  0  4G 6G 8G 9G11
  20445517.067    20445519.527    -3786011.209 9   -759744.693 8
  23090997.349    23090999.960    10685619.675 9  10487943.760 9
  21185909.625    21185911.807   -12720361.126 9  -7503560.413 8
  20623172.496    20623175.028    -4187479.275 8   -949169.260 8
 86  6 11  0 39 47.0800000  0  4G 6G 8G 9G11
  20445861.818    20445862.119    -3784207.323 8   -758339.071 8
  23095000.442    23095003.857    10706656.296 9  10504335.930 9
  21183218.940    21183220.577   -12734499.738 9  -7514577.507 9
  20623855.947    20623858.185    -4183888.785 8   -946371.478 8
 86  6 11  0 39 53.0800000  0  4G 6G 8G 9G11
  20446208.057    20446209.545    -3782383.813 8   -756918.158 9
  23099005.753    23099007.498    10727700.349 9  10520733.896 8
  21180531.321    21180532.095   -12748627.017 9  -7525585.785 8
  20624542.619    20624546.118    -4180276.812 8   -943556.954 8
 86  6 11  0 39 59.0800000  0  4G 6G 8G 9G11
  20446558.303    20446560.063    -3780540.775 8   -755482.031 8
  23103011.110    23103014.173    10748751.765 9  10537137.583 8
  21177845.050    21177846.231   -12762742.920 9  -7536585.181 9
  20625234.009    20625236.540    -4176643.481 8   -940725.798 7
 86  6 11  0 40  5.0800000  0  4G 6G 8G 9G11
  20446914.673    20446915.618    -3778678.126 7   -754030.614 9
  23107018.736    23107020.975    10769810.531 9  10553547.005 8
  21175160.904    21175160.982   -12776847.568 8  -7547575.824 8
  20625929.598    20625932.926    -4172988.750 8   -937877.946 8
 86  6 11  0 40 11.0800000  0  4G 6G 8G 9G11
  20447271.932    20447272.089    -3776795.920 8   -752563.953 8
  23111028.124    23111030.399    10790876.628 8  10569962.146 9
  21172479.231    21172479.954   -12790940.737 9  -7558557.509 9
  20626630.680    20626632.144    -4169312.623 8   -935013.426 8
 86  6 11  0 40 17.0800000  0  4G 6G 8G 9G11
  20447633.653    20447635.256    -3774894.030 8   -751081.965 9
  23115038.141    23115040.801    10811950.056 8  10586382.992 8
  21169799.319    21169800.401   -12805022.444 9  -7569530.268 9
  20627332.567    20627335.361    -4165615.068 8   -932132.226 7
 86  6 11  0 40 23.0800000  0  4G 6G 8G 9G11
  20448000.140    20447999.224    -3772972.528 8   -749584.691 8
  23119050.148    23119052.762    10833030.813 8  10602809.540 9
  21167121.913    21167123.314   -12819092.689 9  -7580494.095 8
  20628040.655    20628042.809    -4161896.132 9   -929234.350 8
 86  6 11  0 40 29.0800000  0  4G 6G 8G 9G11
  20448367.843    20448370.290    -3771031.371 8   -748072.102 8
  23123062.151    23123066.179    10854118.819 9  10619241.746 9
  21164446.544    21164447.374   -12833151.508 9  -7591449.016 8
  20628752.647    20628756.328    -4158155.856 8   -926319.853 8
 86  6 11  0 40 35.0800000  0  4G 6G 8G 9G11
  20448742.228    20448742.901    -3769070.537 8   -746544.179 8
  23127076.442    23127078.845    10875214.071 8  10635679.601 9
  21161774.166    21161774.238   -12847198.779 9  -7602394.936 9
  20629468.072    20629470.171    -4154394.213 9   -923388.711 8
 86  6 11  0 40 41.0800000  0  4G 6G 8G 9G11
  20449117.673    20449119.776    -3767090.025 9   -745000.928 8
  23131093.466    23131095.092    10896316.529 8  10652123.071 9
  21159102.934    21159103.149   -12861234.634 9  -7613331.971 9
  20630187.656    20630190.946    -4150611.256 8   -920440.942 8
 86  6 11  0 40 47.0800000  0  4G 6G 8G 9G11
  20449499.169    20449500.143    -3765089.866 8   -743442.367 8
  23135109.028    23135112.134    10917426.213 8  10668572.171 9
  21156434.283    21156434.892   -12875258.792 9  -7624259.881 9
  20630911.822    20630914.890    -4146806.923 8   -917476.524 7
 86  6 11  0 40 53.0800000  0  4G 6G 8G 9G11
  20449883.758    20449884.174    -3763069.953 8   -741868.401 9
  23139128.216    23139131.199    10938543.070 8  10685026.861 8
  21153767.358    21153768.237   -12889271.411 9  -7635178.814 8
  20631640.753    20631641.859    -4142981.278 9   -914495.512 9
 86  6 11  0 40 59.0800000  0  4G 6G 8G 9G11
  20450270.907    20450272.524    -3761030.383 9   -740279.126 8
  23143148.078    23143150.705    10959667.064 8  10701487.105 9
  21151102.743    21151103.129   -12903272.539 9  -7646088.783 8
  20632371.817    20632373.262    -4139134.355 8   -911497.913 7
 86  6 11  0 41  5.0800000  0  4G 6G 8G 9G11
  20450662.750    20450664.281    -3758971.069 8   -738674.476 8
  23147169.208    23147171.870    10980798.179 9  10717952.903 7
  21148441.247    21148441.848   -12917262.080 9  -7656989.720 8
  20633109.105    20633110.110    -4135266.171 8   -908483.736 8
 86  6 11  0 41 11.0800000  0  4G 6G 8G 9G11
  20451059.488    20451061.591    -3756892.081 8   -737054.477 8
  23151192.073    23151193.991    11001936.389 8  10734424.232 9
  21145781.276    21145781.754   -12931239.962 9  -7667881.574 9
  20633848.972    20633850.964    -4131376.603 8   -905452.902 8
 86  6 11  0 41 17.0800000  0  4G 6G 8G 9G11
  20451458.312    20451459.443    -3754793.355 8   -735419.112 9
  23155214.785    23155218.387    11023081.669 8  10750901.074 9
  21143123.422    21143123.880   -12945206.202 9  -7678764.361 8
  20634592.095    20634595.418    -4127465.785 8   -902405.523 8
 86  6 11  0 41 23.0800000  0  4G 6G 8G 9G11
  20451861.846    20451863.248    -3752674.926 9   -733768.396 8
  23159240.093    23159242.723    11044233.979 8  10767383.386 8
  21140467.808    21140469.482   -12959160.721 9  -7689638.005 8
  20635341.568    20635343.820    -4123533.738 9   -899341.586 8
 86  6 11  0 41 29.0800000  0  4G 6G 8G 9G11
  20452267.855    20452271.088    -3750536.767 8   -732102.291 8
  23163266.320    23163269.564    11065393.304 9  10783871.164 8
  21137815.140    21137814.332   -12973103.589 9  -7700502.593 8
  20636093.123    20636095.132    -4119580.430 8   -896261.086 8
 86  6 11  0 41 35.0800000  0  4G 6G 8G 9G11
  20452679.501    20452680.445    -3748378.842 8   -730420.802 8
  23167295.341    23167296.590    11086559.617 9  10800364.399 8
  21135162.996    21135164.034   -12987034.707 9  -7711358.003 8
  20636848.795    20636851.537    -4115605.882 8   -893164.037 8
 86  6 11  0 41 41.0800000  0  4G 6G 8G 9G11
  20453093.665    20453094.726    -3746201.158 8   -728723.907 8
  23171323.844    23171326.413    11107732.914 9  10816863.053 9
  21132514.550    21132515.360   -13000954.032 9  -7722204.230 9
  20637611.280    20637612.475    -4111610.136 8   -890050.473 7
 86  6 11  0 41 47.0800000  0  4G 6G 8G 9G11
  20453512.282    20453513.126    -3744003.693 8   -727011.593 8
  23175354.310    23175358.016    11128913.139 9  10833367.126 8
  21129868.445    21129868.187   -13014861.681 9  -7733041.356 9
  20638373.856    20638376.607    -4107593.228 9   -886920.412 7
 86  6 11  0 41 53.0800000  0  4G 6G 8G 9G11
  20453934.217    20453935.076    -3741786.428 9   -725283.853 9
  23179386.029    23179389.071    11150100.313 8  10849876.597 8
  21127224.235    21127224.421   -13028757.497 9  -7743869.271 8
  20639142.124    20639146.784    -4103555.121 8   -883773.844 8
 86  6 11  0 41 59.0800000  0  4G 6G 8G 9G11
  20454359.215    20454361.204    -3739549.334 8   -723540.665 8
  23183419.032    23183420.863    11171294.386 9  10866391.459 8
  21124582.085    21124582.486   -13042641.642 9  -7754688.083 9
  20639916.090    20639917.675    -4099495.816 8   -880610.735 7
 86  6 11  0 42  5.0800000  0  4G 6G 8G 9G11
  20454788.891    20454789.792    -3737292.469 8   -721782.082 9
  23187453.204    23187456.391    11192495.374 8  10882911.712 9
  21121942.211    21121943.427   -13056513.837 9  -7765497.586 9
  20640692.087    20640693.857    -4095415.340 8   -877431.154 8
 86  6 11  0 42 11.0800000  0  4G 6G 8G 9G11
  20455222.858    20455223.532    -3735015.774 8   -720008.017 8
  23191490.060    23191491.398    11213703.181 9  10899437.255 8
  21119305.227    21119305.692   -13070374.225 8  -7776297.883 8
  20641472.254    20641475.108    -4091313.741 8   -874235.100 7
 86  6 11  0 42 17.0800000  0  4G 6G 8G 9G11
  20455659.448    20455660.592    -3732719.286 8   -718218.558 9
  23195526.419    23195528.833    11234917.807 9  10915968.137 8
  21116669.588    21116669.753   -13084222.708 9  -7787088.917 9
  20642256.820    20642258.543    -4087190.995 9   -871022.566 8
 86  6 11  0 42 23.0800000  0  4G 6G 8G 9G11
  20456100.942    20456100.742    -3730402.956 8   -716413.626 9
  23199565.957    23199566.990    11256139.231 9  10932504.295 9
  21114036.497    21114037.269   -13098059.292 9  -7797870.668 9
  20643044.654    20643047.245    -4083047.136 8   -867793.589 8
 86  6 11  0 42 29.0800000  0  4G 6G 8G 9G11
  20456544.757    20456545.929    -3728066.806 8   -714593.246 8
  23203604.429    23203606.308    11277367.407 9  10949045.723 8
  21111405.165    21111405.902   -13111884.107 9  -7808643.240 9
  20643837.942    20643840.241    -4078882.180 8   -864548.175 8
 86  6 11  0 42 35.0800000  0  4G 6G 8G 9G11
  20456994.251    20456994.265    -3725710.771 8   -712757.387 8
  23207645.428    23207647.695    11298602.305 8  10965592.404 8
  21108777.403    21108777.361   -13125696.895 9  -7819406.463 9
  20644635.851    20644635.700    -4074696.068 8   -861286.265 8
 86  6 11  0 42 41.0800000  0  4G 6G 8G 9G11
  20457446.149    20457445.807    -3723334.884 8   -710906.043 8
  23211687.603    23211690.256    11319844.000 9  10982144.362 8
  21106150.800    21106150.850   -13139497.726 9  -7830160.362 8
  20645435.113    20645437.542    -4070488.820 8   -858007.880 7
 86  6 11  0 42 47.0800000  0  4G 6G 8G 9G11
  20457902.098    20457901.467    -3720939.116 9   -709039.210 8
  23215731.066    23215733.008    11341092.374 8  10998701.533 9
  21103527.288    21103526.996   -13153286.597 9  -7840904.936 8
  20646240.722    20646242.012    -4066260.539 8   -854713.127 8
 86  6 11  0 42 53.0800000  0  4G 6G 8G 9G11
  20458360.507    20458361.823    -3718523.481 9   -707156.906 8
  23219775.720    23219777.407    11362347.435 9  11015263.915 8
  21100905.108    21100905.752   -13167063.385 9  -7851640.104 7
  20647049.145    20647050.737    -4062011.197 7   -851401.945 8
 86  6 11  0 42 59.0800000  0  4G 6G 8G 9G11
  20458824.411    20458824.639    -3716087.897 9   -705259.056 8
  23223821.268    23223823.787    11383609.198 9  11031831.505 8
  21098286.289    21098286.283   -13180828.130 9  -7862365.866 9
  20647861.568    20647861.926    -4057740.806 9   -848074.377 8
 86  6 11  0 43  5.0800000  0  4G 6G 8G 9G11
  20459292.520    20459292.692    -3713632.414 8   -703345.702 8
  23227869.629    23227871.060    11404877.573 9  11048404.266 8
  21095667.421    21095669.516   -13194580.800 9  -7873082.235 8
  20648677.631    20648679.305    -4053449.401 8   -844730.422 7
 86  6 11  0 43 11.0800000  0  4G 6G 8G 9G11
  20459762.821    20459763.695    -3711157.046 9   -701416.830 8
  23231917.151    23231919.694    11426152.545 8  11064982.163 8
  21093053.855    21093054.820   -13208321.397 9  -7883789.197 8
  20649497.756    20649500.792    -4049136.954 8   -841370.073 8
 86  6 11  0 43 17.0800000  0  4G 6G 8G 9G11
  20460237.301    20460239.417    -3708661.743 8   -699472.449 9
  23235967.554    23235969.014    11447434.125 9  11081565.209 9
  21090440.781    21090442.133   -13222049.974 9  -7894486.789 9
  20650322.999    20650325.045    -4044803.519 8   -837993.377 7
 86  6 11  0 43 23.0800000  0  4G 6G 8G 9G11
  20460716.414    20460717.688    -3706146.530 9   -697512.540 8
  23240018.061    23240020.672    11468722.215 8  11098153.321 8
  21087831.599    21087831.850   -13235766.438 9  -7905174.947 8
  20651152.098    20651154.037    -4040449.128 9   -834600.363 7
 86  6 11  0 43 29.0800000  0  4G 6G 8G 9G11
  20461198.691    20461199.392    -3703611.403 9   -695537.117 8
  23244070.370    23244073.636    11490016.840 9  11114746.520 8
  21085223.698    21085225.079   -13249470.782 9  -7915853.653 8
  20651983.784    20651986.556    -4036073.790 8   -831190.996 7
 86  6 11  0 43 35.0800000  0  4G 6G 8G 9G11
  20461684.273    20461686.019    -3701056.315 8   -693546.144 8
  23248123.760    23248125.897    11511318.012 9  11131344.844 8
  21082618.353    21082618.325   -13263163.034 9  -7926522.934 8
  20652820.986    20652823.025    -4031677.429 8   -827765.259 8
 86  6 11  0 43 41.0800000  0  4G 6G 8G 9G11
  20462174.820    20462175.107    -3698481.292 9   -691539.635 8
  23252178.849    23252181.368    11532625.598 9  11147948.148 8
  21080015.460    21080015.638   -13276843.022 9  -7937182.662 8
  20653661.186    20653664.086    -4027260.156 9   -824323.226 8
 86  6 11  0 43 47.0800000  0  4G 6G 8G 9G11
  20462668.072    20462669.518    -3695886.310 9   -689517.571 8
  23256235.937    23256237.552    11553939.669 9  11164556.505 9
  21077413.606    21077415.301   -13290510.809 9  -7947832.894 8
  20654505.642    20654507.088    -4022821.949 8   -820864.877 8
 86  6 11  0 43 53.0800000  0  4G 6G 8G 9G11
  20463166.132    20463167.478    -3693271.323 9   -687479.923 8
  23260291.439    23260294.588    11575260.173 9  11181169.875 8
  21074815.142    21074816.609   -13304166.446 9  -7958473.644 8
  20655354.596    20655358.058    -4018362.823 9   -817390.227 7
 86  6 11  0 43 59.0800000  0  4G 6G 8G 9G11
  20463668.084    20463668.672    -3690636.355 8   -685426.703 9
  23264350.151    23264352.516    11596587.063 9  11197788.231 8
  21072219.133    21072220.035   -13317809.750 9  -7969104.790 9
  20656206.445    20656208.737    -4013882.767 8   -813899.285 8
 86  6 11  0 44  5.0800000  0  4G 6G 8G 9G11
  20464172.254    20464173.700    -3687981.408 7   -683357.921 8
  23268409.426    23268411.715    11617920.351 8  11214411.567 9
  21069625.713    21069625.999   -13331440.853 9  -7979726.435 8
  20657063.064    20657066.801    -4009381.839 8   -810392.070 7
 86  6 11  0 44 11.0800000  0  4G 6G 8G 9G11
  20464681.962    20464682.935    -3685306.450 9   -681273.532 9
  23272471.318    23272472.174    11639260.026 8  11231039.874 9
  21067033.017    21067034.454   -13345059.606 9  -7990338.442 9
  20657923.754    20657926.619    -4004860.045 8   -806868.585 7
 86  6 11  0 44 17.0800000  0  4G 6G 8G 9G11
  20465193.701    20465195.948    -3682611.519 9   -679173.596 8
  23276532.236    23276534.014    11660606.038 9  11247673.124 9
  21064444.805    21064445.907   -13358666.123 9  -8000940.931 9
  20658787.904    20658789.543    -4000317.395 9   -803328.873 8
 86  6 11  0 44 23.0800000  0  4G 6G 8G 9G11
  20465710.364    20465711.708    -3679896.555 8   -677058.037 8
  23280596.278    23280597.641    11681958.322 9  11264311.265 8
  21061857.954    21061857.839   -13372260.274 9  -8011533.779 9
  20659656.776    20659659.029    -3995753.900 9   -799772.901 8
 86  6 11  0 44 29.0800000  0  4G 6G 8G 9G11
  20466231.562    20466233.020    -3677161.553 8   -674926.869 8
  23284659.555    23284662.303    11703316.933 8  11280954.328 8
  21059273.226    21059273.577   -13385842.144 9  -8022117.046 8
  20660528.842    20660531.275    -3991169.584 8   -796200.706 7
 86  6 11  0 44 35.0800000  0  4G 6G 8G 9G11
  20466755.234    20466757.251    -3674406.510 8   -672780.075 8
  23288725.395    23288727.925    11724681.827 8  11297602.297 8
  21056691.076    21056691.105   -13399411.587 9  -8032690.627 9
  20661405.501    20661407.180    -3986564.446 8   -792612.279 7
 86  6 11  0 44 41.0800000  0  4G 6G 8G 9G11
  20467283.158    20467285.834    -3671631.417 9   -670617.673 8
  23292792.253    23292794.586    11746052.926 9  11314255.096 8
  21054110.942    21054113.031   -13412968.612 9  -8043254.557 9
  20662285.721    20662286.985    -3981938.499 8   -789007.662 8
 86  6 11  0 44 47.0800000  0  4G 6G 8G 9G11
  20467816.074    20467817.162    -3668836.300 9   -668439.660 8
  23296860.793    23296862.693    11767430.199 9  11330912.699 9
  21051533.611    21051534.948   -13426513.183 9  -8053808.762 8
  20663170.275    20663171.936    -3977291.773 9   -785386.826 8
 86  6 11  0 44 53.0800000  0  4G 6G 8G 9G11
  20468351.396    20468353.585    -3666021.146 9   -666246.039 9
  23300929.677    23300931.740    11788813.688 9  11347575.155 9
  21048958.545    21048959.303   -13440045.353 9  -8064353.307 8
  20664056.859    20664059.224    -3972624.236 9   -781749.785 8
 86  6 11  0 44 59.0800000  0  4G 6G 8G 9G11
  20468890.224    20468892.212    -3663185.917 8   -664036.774 9
  23304999.875    23305001.640    11810203.366 9  11364242.415 8
  21046386.043    21046386.285   -13453565.139 9  -8074888.197 9
  20664950.851    20664951.737    -3967935.892 9   -778096.536 8
 86  6 11  0 45  5.0800000  0  4G 6G 8G 9G11
  20469433.658    20469435.960    -3660330.543 9   -661811.806 9
  23309070.633    23309073.578    11831599.198 9  11380914.494 8
  21043815.002    21043815.825   -13467072.302 9  -8085413.257 8
  20665846.634    20665848.194    -3963226.730 8   -774427.059 7
 86  6 11  0 45 11.0800000  0  4G 6G 8G 9G11
  20469981.112    20469982.629    -3657455.059 9   -659571.167 8
  23313144.697    23313146.224    11853001.191 8  11397591.366 9
  21041248.019    21041247.912   -13480567.019 9  -8095928.634 8
  20666746.754    20666747.426    -3958496.789 9   -770741.389 8
 86  6 11  0 45 17.0800000  0  4G 6G 8G 9G11
  20470532.474    20470533.877    -3654559.574 9   -657314.941 8
  23317217.980    23317220.052    11874409.221 8  11414272.924 9
  21038682.105    21038682.502   -13494049.292 9  -8106434.289 8
  20667650.994    20667651.220    -3953746.167 9   -767039.599 8
 86  6 11  0 45 23.0800000  0  4G 6G 8G 9G11
  20471086.856    20471087.928    -3651643.991 9   -655043.061 8
  23321292.894    23321295.689    11895823.255 8  11430959.196 8
  21036118.803    21036119.147   -13507518.997 9  -8116930.164 9
  20668558.183    20668561.037    -3948974.866 8   -763321.711 8
 86  6 11  0 45 29.0800000  0  4G 6G 8G 9G11
  20471645.401    20471648.104    -3648708.282 9   -652755.498 8
  23325368.731    23325370.997    11917243.377 8  11447650.189 9
  21033557.711    21033559.536   -13520976.122 8  -8127416.243 8
  20669470.783    20669473.016    -3944182.836 8   -759587.664 8
 86  6 11  0 45 35.0800000  0  4G 6G 8G 9G11
  20472208.710    20472209.110    -3645752.502 8   -650452.305 8
  23329446.658    23329447.599    11938669.491 9  11464345.856 9
  21030999.031    21030999.897   -13534420.715 9  -8137892.543 8
  20670385.791    20670387.623    -3939370.203 8   -755837.553 8
 86  6 11  0 45 41.0800000  0  4G 6G 8G 9G11
  20472774.323    20472775.124    -3642776.534 9   -648133.361 8
  23333523.117    23333527.078    11960101.618 8  11481046.206 8
  21028443.564    21028443.964   -13547852.605 8  -8148358.943 9
  20671306.095    20671307.558    -3934536.871 8   -752071.323 7
 86  6 11  0 45 47.0800000  0  4G 6G 8G 9G11
  20473344.915    20473346.462    -3639780.418 8   -645798.729 8
  23337603.099    23337606.529    11981539.744 8  11497751.230 8
  21025890.188    21025890.763   -13561271.839 9  -8158815.492 8
  20672230.407    20672232.170    -3929682.819 8   -748288.952 7
 86  6 11  0 45 53.0800000  0  4G 6G 8G 9G11
  20473918.601    20473921.376    -3636764.102 9   -643448.368 8
  23341685.497    23341687.216    12002983.796 8  11514460.878 8
  21023339.403    21023339.303   -13574678.404 9  -8169262.157 9
  20673156.870    20673159.285    -3924808.089 9   -744490.467 7
 86  6 11  0 45 59.0800000  0  4G 6G 8G 9G11
  20474496.791    20474497.808    -3633727.684 8   -641082.324 8
  23345765.369    23345768.227    12024433.765 8  11531175.136 8
  21020790.006    21020791.017   -13588072.317 9  -8179698.973 8
  20674089.450    20674090.448    -3919912.727 9   -740675.896 8
 86  6 11  0 46  5.0800000  0  4G 6G 8G 9G11
  20475078.002    20475080.879    -3630671.142 9   -638700.606 8
  23349849.678    23349852.278    12045889.599 8  11547893.955 9
  21018242.447    21018245.075   -13601453.453 9  -8190125.833 9
  20675024.434    20675026.420    -3914996.782 8   -736845.289 7
 86  6 11  0 46 11.0800000  0  4G 6G 8G 9G11
  20475663.520    20475665.036    -3627594.387 8   -636303.139 7
  23353932.820    23353935.377    12067351.328 8  11564617.366 8
  21015699.728    21015701.066   -13614821.916 9  -8200542.812 9
  20675963.225    20675964.891    -3910060.280 8   -732998.663 7
 86  6 11  0 46 17.0800000  0  4G 6G 8G 9G11
  20476252.500    20476253.917    -3624497.476 8   -633889.959 9
  23358019.296    23358020.973    12088818.898 8  11581345.341 8
  21013157.728    21013159.124   -13628177.584 9  -8210949.822 9
  20676907.305    20676908.783    -3905103.234 8   -729136.023 7
 86  6 11  0 46 23.0800000  0  4G 6G 8G 9G11
  20476846.304    20476847.061    -3621380.344 9   -631461.029 9
  23362104.048    23362106.719    12110292.350 7  11598077.887 9
  21010619.192    21010620.121   -13641520.541 9  -8221346.934 8
  20677853.590    20677857.035    -3900125.594 8   -725257.349 8
 86  6 11  0 46 29.0800000  0  4G 6G 8G 9G11
  20477443.784    20477444.985    -3618243.038 9   -629016.373 8
  23366192.821    23366194.770    12131771.565 8  11614814.933 8
  21008081.346    21008083.155   -13654850.750 9  -8231734.105 8
  20678806.013    20678808.151    -3895127.437 8   -721362.685 7
 86  6 11  0 46 35.0800000  0  4G 6G 8G 9G11
  20478044.899    20478045.656    -3615085.539 8   -626555.982 9
  23370280.549    23370283.736    12153256.522 8  11631556.444 9
  21005547.545    21005548.848   -13668168.050 9  -8242111.221 9
  20679760.836    20679762.268    -3890108.738 9   -717452.007 7
 86  6 11  0 46 41.0800000  0  4G 6G 8G 9G11
  20478649.647    20478650.848    -3611907.859 9   -624079.874 8
  23374370.874    23374373.597    12174747.265 7  11648302.465 8
  21003015.320    21003016.449   -13681472.593 9  -8252478.396 9
  20680720.851    20680720.973    -3885069.493 8   -713525.329 7
 86  6 11  0 46 47.0800000  0  4G 6G 8G 9G11
  20479258.073    20479259.506    -3608709.899 8   -621587.951 9
  23378461.471    23378463.485    12196243.726 8  11665052.942 8
  21000486.756    21000487.887   -13694764.217 9  -8262835.497 9
  20681683.237    20681684.525    -3880009.787 9   -709582.693 7
 86  6 11  0 46 53.0800000  0  4G 6G 8G 9G11
  20479870.664    20479871.365    -3605491.689 9   -619080.270 8
  23382552.770    23382555.228    12217745.969 8  11681807.936 9
  20997959.477    20997961.079   -13708043.011 8  -8273182.617 9
  20682648.882    20682650.802    -3874929.561 9   -705624.079 8
 86  6 11  0 46 59.0800000  0  4G 6G 8G 9G11
  20480486.574    20480486.518    -3602253.246 9   -616556.806 9
  23386646.144    23386648.201    12239253.887 9  11698567.330 9
  20995435.937    20995436.469   -13721308.783 9  -8283519.579 8
  20683620.003    20683621.671    -3869828.847 8   -701649.511 8
 86  6 11  0 47  5.0800000  0  4G 6G 8G 9G11
  20481106.334    20481106.793    -3598994.625 8   -614017.628 8
  23390738.974    23390741.016    12260767.411 8  11715331.118 9
  20992913.133    20992915.086   -13734561.746 9  -8293846.553 8
  20684594.298    20684595.522    -3864707.738 9   -697659.024 8
 86  6 11  0 47 11.0800000  0  4G 6G 8G 9G11
  20481730.315    20481731.646    -3595715.677 9   -611462.608 9
  23394835.337    23394837.251    12282286.650 8  11732099.339 8
  20990394.038    20990395.598   -13747801.674 9  -8304163.381 8
  20685572.686    20685574.932    -3859566.106 9   -693652.563 7
 86  6 11  0 47 17.0800000  0  4G 6G 8G 9G11
  20482357.988    20482360.592    -3592416.502 8   -608891.812 8
  23398930.778    23398932.727    12303811.475 8  11748871.923 9
  20987877.476    20987877.935   -13761028.645 9  -8314470.121 9
  20686555.867    20686555.594    -3854403.999 9   -689630.144 8
 86  6 11  0 47 23.0800000  0  4G 6G 8G 9G11
  20482989.910    20482991.656    -3589097.066 9   -606305.247 8
  23403027.020    23403029.664    12325341.889 8  11765648.855 9
  20985362.272    20985362.502   -13774242.622 9  -8324766.715 9
  20687542.894    20687542.049    -3849221.483 8   -685591.807 7
 86  6 11  0 47 29.0800000  0  4G 6G 8G 9G11
  20483626.312    20483626.555    -3585757.298 9   -603702.834 9
  23407124.566    23407127.631    12346877.883 8  11782430.136 9
  20982850.867    20982852.329   -13787443.564 9  -8335053.164 9
  20688531.035    20688534.437    -3844018.582 8   -681537.620 8
 86  6 11  0 47 35.0800000  0  4G 6G 8G 9G11
  20484265.373    20484266.232    -3582397.235 8   -601084.605 8
  23411224.621    23411226.886    12368419.430 8  11799215.750 9
  20980341.065    20980342.046   -13800631.526 9  -8345329.488 9
  20689525.795    20689526.197    -3838795.300 9   -677467.523 8
 86  6 11  0 47 41.0800000  0  4G 6G 8G 9G11
  20484908.501    20484908.544    -3579016.830 9   -598450.521 7
  23415325.092    23415327.714    12389966.544 8  11816005.695 9
  20977834.070    20977835.071   -13813806.334 9  -8355595.573 9
  20690522.771    20690525.828    -3833551.547 8   -673381.482 8
 86  6 11  0 47 47.0800000  0  4G 6G 8G 9G11
  20485555.362    20485556.606    -3575616.154 8   -595800.658 9
  23419426.556    23419428.563    12411519.138 8  11832799.916 9
  20975329.528    20975329.379   -13826968.076 9  -8365851.488 8
  20691524.758    20691525.596    -3828287.414 8   -669279.562 7
 86  6 11  0 47 53.0800000  0  4G 6G 8G 9G11
  20486206.588    20486208.218    -3572195.182 9   -593134.952 8
  23423528.623    23423531.102    12433077.205 8  11849598.397 8
  20972827.767    20972827.870   -13840116.761 9  -8376097.206 9
  20692530.562    20692532.600    -3823002.925 9   -665161.782 8
 86  6 11  0 47 59.0800000  0  4G 6G 8G 9G11
  20486861.490    20486862.806    -3568753.897 9   -590453.437 8
  23427632.020    23427634.792    12454640.705 8  11866401.128 8
  20970328.007    20970329.094   -13853252.277 8  -8386332.665 8
  20693539.500    20693541.903    -3817698.080 9   -661028.138 7
 86  6 11  0 48  5.0800000  0  4G 6G 8G 9G11
  20487519.827    20487521.916    -3565292.291 9   -587756.084 8
  23431736.282    23431739.706    12476209.627 7  11883208.058 8
  20967830.595    20967830.932   -13866374.621 9  -8396557.874 8
  20694553.348    20694555.408    -3812372.949 9   -656878.689 8
 86  6 11  0 48 11.0800000  0  4G 6G 8G 9G11
  20488182.801    20488184.089    -3561810.324 9   -585042.872 9
  23435840.953    23435845.120    12497783.938 8  11900019.192 8
  20965335.248    20965336.785   -13879483.821 9  -8406772.830 8
  20695570.556    20695572.524    -3807027.507 9   -652713.390 8
 86  6 11  0 48 17.0800000  0  4G 6G 8G 9G11
  20488848.136    20488851.268    -3558308.019 8   -582313.803 8
  23439948.678    23439951.379    12519363.678 7  11916834.566 9
  20962844.078    20962844.535   -13892579.771 9  -8416977.461 9
  20696591.321    20696593.262    -3801661.739 8   -648532.280 8
 86  6 11  0 48 23.0800000  0  4G 6G 8G 9G11
  20489519.279    20489520.137    -3554785.316 9   -579568.832 8
  23444056.418    23444058.210    12540948.752 8  11933654.107 9
  20960353.820    20960354.941   -13905662.522 8  -8427171.814 9
  20697617.163    20697617.926    -3796275.696 9   -644335.372 7
 86  6 11  0 48 29.0800000  0  4G 6G 8G 9G11
  20490193.457    20490194.702    -3551242.275 9   -576808.023 9
  23448166.068    23448167.653    12562539.138 8  11950477.766 9
  20957868.049    20957868.174   -13918732.153 8  -8437355.939 8
  20698645.018    20698646.112    -3790869.428 9   -640122.696 7
 86  6 11  0 48 35.0800000  0  4G 6G 8G 9G11
  20490871.340    20490873.672    -3547678.874 9   -574031.350 9
  23452274.502    23452276.265    12584134.821 8  11967305.560 9
  20955383.333    20955383.347   -13931788.414 9  -8447529.658 8
  20699678.339    20699679.022    -3785442.876 9   -635894.205 7
 86  6 11  0 48 41.0800000  0  4G 6G 8G 9G11
  20491553.244    20491555.219    -3544095.092 9   -571238.798 9
  23456384.896    23456386.696    12605735.821 9  11984137.501 9
  20952900.552    20952900.967   -13944831.452 9  -8457693.052 8
  20700713.976    20700717.028    -3779996.064 9   -631649.938 7
 86  6 11  0 48 47.0800000  0  4G 6G 8G 9G11
  20492239.399    20492240.314    -3540490.936 9   -568430.363 8
  23460495.290    23460497.854    12627342.027 8  12000973.499 9
  20950421.423    20950421.305   -13957861.159 9  -8467846.060 8
  20701754.655    20701756.605    -3774529.044 8   -627389.925 8
 86  6 11  0 48 53.0800000  0  4G 6G 8G 9G11
  20492928.658    20492930.704    -3536866.366 9   -565606.034 8
  23464609.369    23464610.867    12648953.508 9  12017813.595 8
  20947943.811    20947945.343   -13970877.451 9  -8477988.636 8
  20702799.123    20702799.873    -3769041.845 8   -623114.182 8
 86  6 11  0 48 59.0800000  0  4G 6G 8G 9G11
  20493622.195    20493624.700    -3533221.426 9   -562765.815 8
  23468722.087    23468725.233    12670570.162 9  12034657.741 9
  20945470.438    20945469.945   -13983880.513 9  -8488120.884 8
  20703845.739    20703848.197    -3763534.440 9   -618822.707 8
 86  6 11  0 49  5.0800000  0  4G 6G 8G 9G11
  20494320.570    20494321.042    -3529556.118 9   -559909.734 9
  23472836.518    23472839.196    12692192.004 9  12051505.926 9
  20942998.218    20942998.891   -13996870.159 9  -8498242.680 8
  20704898.213    20704900.706    -3758006.894 9   -614515.539 8
 86  6 11  0 49 11.0800000  0  4G 6G 8G 9G11
  20495021.591    20495022.880    -3525870.354 9   -557037.716 9
  23476951.419    23476954.735    12713819.061 9  12068358.171 9
  20940528.888    20940529.907   -14009846.430 8  -8508354.066 8
  20705954.016    20705958.108    -3752459.178 9   -610192.639 8
 86  6 11  0 49 17.0800000  0  4G 6G 8G 9G11
  20495727.106    20495728.035    -3522164.158 9   -554149.772 8
  23481068.539    23481071.625    12735451.236 9  12085214.400 8
  20938062.431    20938062.902   -14022809.266 9  -8518454.971 9
  20707014.124    20707015.432    -3746891.268 9   -605854.011 8
 86  6 11  0 49 23.0800000  0  4G 6G 8G 9G11
  20496435.210    20496437.428    -3518437.572 9   -551245.945 8
  23485186.501    23485189.496    12757088.560 9  12102074.637 9
  20935598.326    20935598.276   -14035758.638 9  -8528545.393 8
  20708077.246    20708078.946    -3741303.227 9   -601499.684 8
 86  6 11  0 49 29.0800000  0  4G 6G 8G 9G11
  20497149.225    20497150.026    -3514690.482 8   -548326.131 8
  23489305.590    23489306.895    12778730.989 9  12118938.865 8
  20933136.573    20933136.405   -14048694.549 9  -8538625.323 8
  20709144.662    20709145.231    -3735695.087 9   -597129.716 7
 86  6 11  0 49 35.0800000  0  4G 6G 8G 9G11
  20497865.515    20497866.802    -3510922.945 9   -545390.396 9
  23493423.932    23493426.583    12800378.467 9  12135807.031 8
  20930676.512    20930678.322   -14061616.934 9  -8548694.717 8
  20710216.270    20710217.808    -3730066.791 9   -592744.028 8
 86  6 11  0 49 41.0800000  0  4G 6G 8G 9G11
  20498585.954    20498588.299    -3507134.985 8   -542438.734 8
  23497545.072    23497547.738    12822031.021 9  12152679.142 8
  20928220.362    20928221.484   -14074525.839 8  -8558753.597 9
  20711291.455    20711291.821    -3724418.432 9   -588342.720 7
 86  6 11  0 49 47.0800000  0  4G 6G 8G 9G11
  20499311.944    20499312.430    -3503326.579 9   -539471.152 9
  23501666.914    23501667.475    12843688.570 8  12169555.149 9
  20925766.549    20925767.750   -14087421.257 9  -8568801.974 9
  20712369.234    20712371.563    -3718749.982 8   -583925.752 8
 86  6 11  0 49 53.0800000  0  4G 6G 8G 9G11
  20500040.682    20500041.484    -3499497.689 9   -536487.604 8
  23505789.263    23505790.461    12865351.092 9  12186435.028 9
  20923316.205    20923316.515   -14100303.069 9  -8578839.753 9
  20713452.276    20713454.338    -3713061.506 9   -579493.170 8
 86  6 11  0 49 59.0800000  0  4G 6G 8G 9G11
  20500772.497    20500773.885    -3495648.337 9   -533488.107 9
  23509911.270    23509913.562    12887018.595 9  12203318.779 9
  20920866.243    20920867.835   -14113171.327 9  -8588866.956 9
  20714538.739    20714539.703    -3707353.002 8   -575044.993 8
 86  6 11  0 50  5.0800000  0  4G 6G 8G 9G11
  20501508.734    20501510.837    -3491778.522 9   -530472.667 8
  23514035.471    23514037.986    12908691.105 8  12220206.447 8
  20918420.219    20918422.019   -14126025.999 9  -8598883.589 8
  20715628.356    20715629.047    -3701624.481 9   -570581.205 8
 86  6 11  0 50 11.0800000  0  4G 6G 8G 9G11
  20502249.434    20502250.508    -3487888.149 9   -527441.209 8
  23518160.018    23518163.277    12930368.518 8  12237097.933 9
  20915977.536    20915977.912   -14138867.071 9  -8608889.611 7
  20716722.913    20716723.761    -3695875.908 9   -566101.797 8
 86  6 11  0 50 17.0800000  0  4G 6G 8G 9G11
  20502993.297    20502995.215    -3483977.354 8   -524393.840 9
  23522287.440    23522289.038    12952050.842 9  12253993.234 8
  20913536.491    20913536.792   -14151694.509 9  -8618885.026 8
  20717820.953    20717821.404    -3690107.354 8   -561606.836 7
 86  6 11  0 50 23.0800000  0  4G 6G 8G 9G11
  20503741.582    20503743.185    -3480046.021 9   -521330.472 8
  23526412.758    23526415.902    12973738.032 8  12270892.340 9
  20911098.348    20911099.138   -14164508.290 9  -8628869.776 8
  20718921.692    20718922.460    -3684318.880 9   -557096.323 7
 86  6 11  0 50 29.0800000  0  4G 6G 8G 9G11
  20504494.503    20504495.190    -3476094.215 8   -518251.147 8
  23530540.874    23530543.897    12995430.088 9  12287795.237 8
  20908662.237    20908662.136   -14177308.344 9  -8638843.851 8
  20720027.551    20720027.677    -3678510.463 9   -552570.286 8
 86  6 11  0 50 35.0800000  0  4G 6G 8G 9G11
  20505248.912    20505250.915    -3472121.847 9   -515155.795 8
  23534670.407    23534673.072    13017127.011 9  12304701.923 9
  20906228.886    20906229.299   -14190094.717 8  -8648807.249 9
  20721135.738    20721137.418    -3672682.070 9   -548028.677 8
 86  6 11  0 50 41.0800000  0  4G 6G 8G 9G11
  20506009.790    20506010.676    -3468128.951 9   -512044.437 7
  23538799.817    23538802.819    13038828.742 9  12321612.357 9
  20903798.259    20903799.888   -14202867.370 9  -8658759.966 9
  20722248.785    20722249.439    -3666833.699 9   -543471.523 8
 86  6 11  0 50 47.0800000  0  4G 6G 8G 9G11
  20506773.771    20506774.129    -3464115.544 8   -508917.126 8
  23542930.059    23542932.609    13060535.283 9  12338526.535 9
  20901370.090    20901371.399   -14215626.181 9  -8668701.897 9
  20723365.560    20723367.084    -3660965.367 9   -538898.794 8
 86  6 11  0 50 53.0800000  0  4G 6G 8G 9G11
  20507541.674    20507540.643    -3460081.575 9   -505773.769 9
  23547061.731    23547064.281    13082246.573 9  12355444.419 9
  20898944.565    20898946.459   -14228371.261 9  -8678633.130 9
  20724486.046    20724486.507    -3655077.117 9   -534310.544 8
 86  6 11  0 50 59.0800000  0  4G 6G 8G 9G11
  20508312.080    20508312.653    -3456027.090 9   -502614.430 8
  23551194.090    23551196.883    13103962.632 8  12372366.015 9
  20896521.920    20896523.560   -14241102.574 9  -8688553.632 9
  20725610.450    20725611.428    -3649169.046 9   -529706.854 9
 86  6 11  0 51  5.0800000  0  4G 6G 8G 9G11
  20509088.784    20509089.156    -3451952.042 9   -499439.067 9
  23555328.001    23555330.273    13125683.409 8  12389291.290 7
  20894103.052    20894103.495   -14253820.061 9  -8698463.363 8
  20726738.308    20726739.686    -3643241.074 9   -525087.662 8
 86  6 11  0 51 11.0800000  0  4G 6G 8G 9G11
  20509867.775    20509868.864    -3447856.403 8   -496247.663 9
  23559462.099    23559464.456    13147408.882 9  12406220.211 9
  20891684.422    20891686.164   -14266523.695 9  -8708362.303 8
  20727869.765    20727871.725    -3637293.256 9   -520452.998 8
 86  6 11  0 51 17.0800000  0  4G 6G 8G 9G11
  20510651.504    20510651.289    -3443740.231 9   -493040.268 9
  23563596.832    23563598.926    13169139.046 9  12423152.807 9
  20889270.326    20889270.348   -14279213.475 9  -8718250.432 8
  20729005.249    20729008.068    -3631325.606 9   -515802.886 8
 86  6 11  0 51 23.0800000  0  4G 6G 8G 9G11
  20511437.708    20511437.980    -3439603.501 9   -489816.841 9
  23567734.155    23567734.309    13190873.811 9  12440088.975 8
  20886858.557    20886858.536   -14291889.418 9  -8728127.793 8
  20730144.536    20730146.411    -3625338.142 9   -511137.325 8
 86  6 11  0 51 29.0800000  0  4G 6G 8G 9G11
  20512229.264    20512230.251    -3435446.179 9   -486577.377 9
  23571870.722    23571872.879    13212613.261 9  12457028.797 9
  20884448.661    20884448.414   -14304551.369 9  -8737994.241 9
  20731287.997    20731289.840    -3619330.807 9   -506456.294 8
 86  6 11  0 51 35.0800000  0  4G 6G 8G 9G11
  20513023.252    20513026.071    -3431268.254 9   -483321.855 7
  23576007.602    23576010.118    13234357.297 9  12473972.193 9
  20882041.304    20882042.238   -14317199.392 8  -8747849.845 9
  20732434.525    20732437.587    -3613303.662 9   -501759.816 9
 86  6 11  0 51 41.0800000  0  4G 6G 8G 9G11
  20513822.764    20513824.095    -3427069.786 8   -480050.318 9
  23580147.280    23580148.829    13256105.956 9  12490919.191 8
  20879636.468    20879637.907   -14329833.450 9  -8757694.572 9
  20733586.429    20733588.224    -3607256.757 9   -497047.947 9
 86  6 11  0 51 47.0800000  0  4G 6G 8G 9G11
  20514625.868    20514626.755    -3422850.630 9   -476762.665 8
  23584286.385    23584287.841    13277859.105 9  12507869.691 8
  20877235.901    20877236.373   -14342453.584 9  -8767528.443 8
  20734740.834    20734741.249    -3601190.087 8   -492320.660 7
 86  6 11  0 51 53.0800000  0  4G 6G 8G 9G11
  20515432.090    20515433.908    -3418610.906 9   -473458.996 9
  23588426.170    23588428.779    13299616.808 9  12524823.739 9
  20874837.233    20874838.149   -14355059.701 9  -8777351.381 8
  20735898.770    20735900.436    -3595103.641 9   -487577.983 8
 86  6 11  0 51 59.0800000  0  4G 6G 8G 9G11
  20516242.562    20516243.550    -3414350.552 9   -470139.242 8
  23592568.152    23592570.267    13321379.033 9  12541781.306 9
  20872441.395    20872441.684   -14367651.729 9  -8787163.351 8
  20737059.970    20737062.371    -3588997.426 9   -482819.898 8
 86  6 11  0 52  5.0800000  0  4G 6G 8G 9G11
  20517057.570    20517059.346    -3410069.558 9   -466803.407 7
  23596709.691    23596711.626    13343145.792 9  12558742.419 8
  20870047.445    20870047.568   -14380229.706 9  -8796964.371 8
  20738226.006    20738228.251    -3582871.487 9   -478046.438 8
 86  6 11  0 52 11.0800000  0  4G 6G 8G 9G11
  20517876.286    20517878.174    -3405768.021 8   -463451.561 8
  23600853.139    23600854.717    13364916.926 9  12575706.936 9
  20867656.022    20867657.044   -14392793.768 9  -8806754.553 8
  20739395.167    20739396.915    -3576725.956 8   -473257.714 9
 86  6 11  0 52 17.0800000  0  4G 6G 8G 9G11
  20518699.164    20518701.581    -3401445.816 9   -460083.607 8
  23604996.487    23604998.436    13386692.564 9  12592674.956 8
  20865268.404    20865268.808   -14405343.654 9  -8816533.680 8
  20740569.458    20740570.113    -3570560.748 8   -468453.650 8
 86  6 11  0 52 23.0800000  0  4G 6G 8G 9G11
  20519524.647    20519525.848    -3397102.986 9   -456699.584 8
  23609140.680    23609142.601    13408472.574 9  12609646.382 9
  20862882.976    20862882.730   -14417879.430 9  -8826301.814 8
  20741745.788    20741746.779    -3564375.858 9   -463634.257 9
 86  6 11  0 52 29.0800000  0  4G 6G 8G 9G11
  20520354.551    20520356.983    -3392739.534 9   -453299.502 8
  23613286.811    23613288.718    13430256.975 9  12626621.233 9
  20860500.506    20860500.660   -14430401.126 9  -8836058.983 9
  20742927.317    20742927.251    -3558171.354 8   -458799.585 8
 86  6 11  0 52 35.0800000  0  4G 6G 8G 9G11
  20521190.122    20521191.297    -3388355.447 8   -449883.333 8
  23617432.999    23617434.255    13452045.752 9  12643599.501 9
  20858119.739    20858120.675   -14442908.720 9  -8845805.157 7
  20744111.186    20744112.816    -3551947.211 9   -453949.598 8
 86  6 11  0 52 41.0800000  0  4G 6G 8G 9G11
  20522027.696    20522028.669    -3383950.638 8   -446451.007 8
  23621580.104    23621582.505    13473838.879 8  12660581.149 8
  20855742.832    20855743.983   -14455402.153 9  -8855540.310 9
  20745299.374    20745299.597    -3545703.430 8   -449084.326 8
 86  6 11  0 52 47.0800000  0  4G 6G 8G 9G11
  20522870.021    20522872.081    -3379525.173 9   -443002.598 8
  23625727.638    23625730.461    13495636.403 9  12677566.219 8
  20853368.310    20853368.890   -14467881.328 9  -8865264.345 8
  20746490.743    20746492.510    -3539440.025 9   -444203.750 8
 86  6 11  0 52 53.0800000  0  4G 6G 8G 9G11
  20523715.050    20523718.155    -3375079.045 9   -439538.093 8
  23629876.710    23629878.180    13517438.228 9  12694554.654 9
  20850995.010    20850996.741   -14480346.289 9  -8874977.290 8
  20747687.292    20747688.280    -3533157.019 8   -439307.898 8
 86  6 11  0 52 59.0800000  0  4G 6G 8G 9G11
  20524566.647    20524567.950    -3370612.208 8   -436057.432 8
  23634026.111    23634027.752    13539244.316 9  12711546.407 8
  20848627.045    20848626.187   -14492796.954 9  -8884679.107 9
  20748886.209    20748887.651    -3526854.438 9   -434396.804 8
 86  6 11  0 53  5.0800000  0  4G 6G 8G 9G11
  20525419.633    20525421.178    -3366124.697 9   -432560.676 8
  23638176.169    23638178.790    13561054.652 8  12728541.464 8
  20846260.866    20846261.238   -14505233.379 9  -8894369.832 8
  20750088.470    20750090.566    -3520532.294 9   -429470.464 8
 86  6 11  0 53 11.0800000  0  4G 6G 8G 9G11
  20526277.955    20526279.700    -3361616.498 9   -429047.792 9
  23642326.930    23642329.737    13582869.287 9  12745539.874 8
  20843896.290    20843896.913   -14517655.584 9  -8904049.467 9
  20751296.319    20751297.701    -3514190.650 9   -424528.917 8
 86  6 11  0 53 17.0800000  0  4G 6G 8G 9G11
  20527139.425    20527141.428    -3357087.601 8   -425518.783 8
  23646479.500    23646482.073    13604688.109 9  12762541.546 8
  20841534.547    20841535.439   -14530063.417 8  -8913717.918 8
  20752506.820    20752508.391    -3507829.426 8   -419572.130 8
 86  6 11  0 53 23.0800000  0  4G 6G 8G 9G11
  20528005.576    20528006.591    -3352537.973 8   -421973.631 8
  23650633.215    23650634.966    13626511.096 9  12779546.467 7
  20839176.196    20839177.633   -14542456.950 9  -8923375.211 9
  20753721.566    20753722.537    -3501448.718 9   -414600.147 7
 86  6 11  0 53 29.0800000  0  4G 6G 8G 9G11
  20528874.300    20528877.418    -3347967.664 9   -418412.344 8
  23654786.616    23654787.556    13648338.260 9  12796554.641 8
  20836819.540    20836820.777   -14554836.160 9  -8933021.345 9
  20754937.998    20754939.601    -3495048.471 8   -409612.944 8
 86  6 11  0 53 35.0800000  0  4G 6G 8G 9G11
  20529748.304    20529749.737    -3343376.646 9   -414834.918 8
  23658941.018    23658942.789    13670169.572 9  12813566.045 9
  20834467.365    20834468.940   -14567200.943 9  -8942656.243 8
  20756160.826    20756162.104    -3488628.746 9   -404610.566 9
 86  6 11  0 53 41.0800000  0  4G 6G 8G 9G11
  20530626.375    20530628.722    -3338764.893 9   -411241.366 8
  23663096.829    23663097.520    13692005.026 9  12830580.686 9
  20832118.215    20832118.469   -14579551.289 9  -8952279.892 8
  20757385.567    20757386.995    -3482189.563 9   -399593.015 8
 86  6 11  0 53 47.0800000  0  4G 6G 8G 9G11
  20531507.721    20531509.482    -3334132.394 9   -407631.622 8
  23667251.639    23667252.973    13713844.593 9  12847598.511 8
  20829769.522    20829770.177   -14591887.237 8  -8961892.310 9
  20758614.753    20758615.421    -3475730.934 9   -394560.323 7
 86  6 11  0 53 53.0800000  0  4G 6G 8G 9G11
  20532394.188    20532394.475    -3329479.160 8   -404005.730 7
  23671407.751    23671409.917    13735688.270 9  12864619.556 9
  20827425.200    20827426.781   -14604208.764 9  -8971493.505 8
  20759847.170    20759849.152    -3469252.865 9   -389512.470 7
 86  6 11  0 53 59.0800000  0  4G 6G 8G 9G11
  20533282.876    20533284.363    -3324805.183 9   -400363.673 8
  23675566.238    23675567.380    13757535.979 9  12881643.739 9
  20825083.390    20825084.176   -14616515.769 9  -8981083.384 9
  20761083.105    20761085.607    -3462755.388 9   -384449.497 8
 86  6 11  0 54  5.0800000  0  4G 6G 8G 9G11
  20534176.313    20534177.485    -3320110.455 9   -396705.440 9
  23679723.603    23679726.303    13779387.741 8  12898671.078 8
  20822744.183    20822744.781   -14628808.267 9  -8990661.947 9
  20762322.889    20762324.399    -3456238.493 8   -379371.393 8
 86  6 11  0 54 11.0800000  0  4G 6G 8G 9G11
  20535074.099    20535075.131    -3315394.955 8   -393031.034 8
  23683881.927    23683885.228    13801243.498 9  12915701.533 8
  20820408.451    20820408.821   -14641086.364 9  -9000229.294 9
  20763567.717    20763569.592    -3449702.218 9   -374278.203 8
 86  6 11  0 54 17.0800000  0  4G 6G 8G 9G11
  20535975.621    20535975.750    -3310658.736 9   -389340.462 8
  23688042.137    23688045.002    13823103.253 9  12932735.098 8
  20818073.700    20818074.897   -14653349.825 9  -9009785.234 9
  20764815.736    20764817.447    -3443146.573 8   -369169.911 8
 86  6 11  0 54 23.0800000  0  4G 6G 8G 9G11
  20536880.564    20536881.350    -3305901.737 9   -385633.714 8
  23692203.292    23692205.551    13844966.929 9  12949771.723 9
  20815743.593    20815743.408   -14665598.818 9  -9019329.900 8
  20766066.729    20766069.017    -3436571.604 9   -364046.571 8
 86  6 11  0 54 29.0800000  0  4G 6G 8G 9G11
  20537789.612    20537790.356    -3301124.031 9   -381910.830 9
  23696364.700    23696367.458    13866834.508 9  12966811.378 8
  20813415.638    20813415.993   -14677833.211 9  -9028863.201 8
  20767320.364    20767322.173    -3429977.334 9   -358908.172 8
 86  6 11  0 54 35.0800000  0  4G 6G 8G 9G11
  20538703.540    20538704.140    -3296325.526 9   -378171.742 8
  23700526.256    23700529.128    13888706.027 8  12983854.121 7
  20811090.370    20811091.890   -14690053.015 9  -9038385.120 8
  20768579.372    20768580.736    -3423363.787 9   -353754.755 8
 86  6 11  0 54 41.0800000  0  4G 6G 8G 9G11
  20539619.857    20539621.817    -3291506.289 9   -374416.499 8
  23704688.107    23704690.149    13910581.447 8  13000899.891 8
  20808767.902    20808768.670   -14702258.209 9  -9047895.655 8
  20769842.304    20769843.417    -3416730.931 9   -348586.301 8
 86  6 11  0 54 47.0800000  0  4G 6G 8G 9G11
  20540541.455    20540541.411    -3286666.215 8   -370645.012 8
  23708853.025    23708854.604    13932460.781 8  13017948.724 8
  20806447.086    20806448.406   -14714448.690 9  -9057394.737 8
  20771107.327    20771109.405    -3410078.826 9   -343402.834 8
 86  6 11  0 54 53.0800000  0  4G 6G 8G 9G11
  20541466.501    20541466.960    -3281805.355 9   -366857.328 8
  23713017.646    23713018.678    13954343.927 8  13035000.521 9
  20804131.319    20804131.722   -14726624.645 9  -9066882.490 8
  20772376.480    20772378.802    -3403407.450 9   -338204.361 8
 86  6 11  0 54 59.0800000  0  4G 6G 8G 9G11
  20542394.395    20542396.312    -3276923.718 9   -363053.449 9
  23717181.397    23717183.834    13976230.898 8  13052055.305 8
  20801816.474    20801817.093   -14738785.797 9  -9076358.705 8
  20773650.555    20773651.318    -3396716.826 8   -332990.894 8
 86  6 11  0 55  5.0800000  0  4G 6G 8G 9G11
  20543328.485    20543328.270    -3272021.269 9   -359233.370 8
  23721348.455    23721350.656    13998121.661 8  13069113.020 8
  20799504.809    20799505.529   -14750932.400 9  -9085823.596 9
  20774925.928    20774928.017    -3390007.014 9   -327762.470 8
 86  6 11  0 55 11.0800000  0  4G 6G 8G 9G11
  20544265.064    20544264.778    -3267098.013 9   -355397.075 8
  23725514.577    23725515.847    14020016.211 7  13086173.690 8
  20797196.454    20797196.365   -14763064.224 9  -9095276.959 8
  20776208.456    20776209.867    -3383277.942 8   -322519.041 8
 86  6 11  0 55 17.0800000  0  4G 6G 8G 9G11
  20545205.894    20545207.038    -3262153.962 9   -351544.560 8
  23729680.884    23729683.929    14041914.525 7  13103237.312 8
  20794889.751    20794891.483   -14775181.249 9  -9104718.804 9
  20777492.295    20777492.020    -3376529.619 8   -317260.613 8
 86  6 11  0 55 23.0800000  0  4G 6G 8G 9G11
  20546150.929    20546151.730    -3257189.060 9   -347675.813 8
  23733849.144    23733851.130    14063816.561 8  13120303.829 8
  20792586.662    20792588.282   -14787283.561 9  -9114149.176 9
  20778779.238    20778781.055    -3369762.115 8   -311987.236 8
 86  6 11  0 55 29.0800000  0  4G 6G 8G 9G11
  20547099.428    20547101.689    -3252203.349 9   -343790.842 8
  23738017.435    23738019.455    14085722.353 8  13137373.259 8
  20790286.982    20790287.636   -14799370.980 9  -9123567.940 9
  20780070.260    20780073.132    -3362975.445 9   -306698.925 8
 86  6 11  0 55 35.0800000  0  4G 6G 8G 9G11
  20548052.192    20548053.422    -3247196.804 9   -339889.649 8
  23742187.082    23742189.139    14107631.825 8  13154445.556 8
  20787989.651    20787990.324   -14811443.609 9  -9132975.189 8
  20781365.983    20781367.531    -3356169.686 8   -301395.737 8
 86  6 11  0 55 41.0800000  0  4G 6G 8G 9G11
  20549009.275    20549009.763    -3242169.424 9   -335972.214 8
  23746356.946    23746358.774    14129544.939 9  13171520.715 8
  20785695.394    20785695.976   -14823501.376 9  -9142370.846 8
  20782664.952    20782667.306    -3349344.807 9   -296077.647 8
 86  6 11  0 55 47.0800000  0  4G 6G 8G 9G11
  20549968.964    20549971.111    -3237121.216 9   -332038.545 9
  23750528.061    23750528.874    14151461.764 8  13188598.751 8
  20783403.473    20783404.617   -14835544.330 9  -9151754.953 8
  20783967.457    20783968.960    -3342500.815 9   -290744.657 9
 86  6 11  0 55 53.0800000  0  4G 6G 8G 9G11
  20550932.917    20550934.578    -3232052.165 9   -328088.626 8
  23754698.103    23754699.673    14173382.174 7  13205679.565 8
  20781114.821    20781115.665   -14847572.371 9  -9161127.460 7
  20785273.307    20785275.675    -3335637.696 9   -285396.780 9
 86  6 11  0 55 59.0800000  0  4G 6G 8G 9G11
  20551903.124    20551903.168    -3226962.232 9   -324122.454 9
  23758869.962    23758872.305    14195306.212 8  13222763.236 8
  20778829.163    20778829.470   -14859585.522 9  -9170488.358 9
  20786581.782    20786584.427    -3328755.446 8   -280033.993 9
 86  6 11  0 56  5.0800000  0  4G 6G 8G 9G11
  20552875.319    20552875.447    -3221851.426 9   -320140.025 9
  23763042.508    23763045.352    14217233.813 8  13239849.681 8
  20776545.749    20776546.174   -14871583.760 9  -9179837.641 8
  20787896.000    20787897.606    -3321854.180 9   -274656.385 8
 86  6 11  0 56 11.0800000  0  4G 6G 8G 9G11
  20553851.963    20553851.821    -3216719.832 9   -316141.368 8
  23767216.672    23767217.783    14239164.999 8  13256938.894 8
  20774264.842    20774265.221   -14883567.059 8  -9189175.267 8
  20789212.794    20789215.253    -3314933.892 8   -269263.965 8
 86  6 11  0 56 17.0800000  0  4G 6G 8G 9G11
  20554832.029    20554832.515    -3211567.272 9   -312126.396 8
  23771390.235    23771392.190    14261099.699 9  13274030.866 8
  20771987.917    20771987.784   -14895535.354 9  -9198501.205 8
  20790534.438    20790534.367    -3307994.515 8   -263856.657 7
 86  6 11  0 56 23.0800000  0  4G 6G 8G 9G11
  20555816.114    20555817.961    -3206393.847 9   -308095.155 9
  23775565.026    23775566.861    14283037.914 8  13291125.577 9
  20769713.281    20769713.685   -14907488.615 9  -9207815.442 8
  20791857.023    20791859.466    -3301036.068 9   -258434.490 8
 86  6 11  0 56 29.0800000  0  4G 6G 8G 9G11
  20556805.337    20556806.611    -3201199.598 9   -304047.699 7
  23779740.841    23779743.007    14304979.626 8  13308222.998 8
  20767441.052    20767441.897   -14919426.843 8  -9217117.946 7
  20793184.865    20793187.491    -3294058.644 9   -252997.534 9
 86  6 11  0 56 35.0800000  0  4G 6G 8G 9G11
  20557797.594    20557799.097    -3195984.446 9   -299983.947 9
  23783916.616    23783918.757    14326924.757 7  13325323.100 9
  20765172.151    20765173.496   -14931350.047 9  -9226408.760 8
  20794516.515    20794518.998    -3287062.280 8   -247545.812 9
 86  6 11  0 56 41.0800000  0  4G 6G 8G 9G11
  20558794.057    20558794.386    -3190748.399 8   -295903.906 9
  23788094.455    23788095.767    14348873.385 7  13342425.906 7
  20762906.148    20762906.218   -14943258.114 9  -9235687.773 9
  20795851.130    20795854.317    -3280046.939 8   -242079.337 8
 86  6 11  0 56 47.0800000  0  4G 6G 8G 9G11
  20559792.796    20559793.683    -3185491.438 8   -291807.578 8
  23792271.200    23792272.735    14370825.437 9  13359531.390 8
  20760643.807    20760644.497   -14955151.208 9  -9244955.112 8
  20797190.315    20797191.465    -3273012.630 8   -236598.053 8
 86  6 11  0 56 53.0800000  0  4G 6G 8G 9G11
  20560798.818    20560799.190    -3180213.617 9   -287694.990 9
  23796449.035    23796451.785    14392780.925 8  13376639.558 8
  20758382.429    20758383.279   -14967029.162 9  -9254210.662 9
  20798532.278    20798534.303    -3265959.377 9   -231101.997 8
 86  6 11  0 56 59.0800000  0  4G 6G 8G 9G11
  20561805.942    20561807.645    -3174914.847 9   -283566.086 8
  23800627.697    23800629.532    14414739.851 7  13393750.405 8
  20756126.087    20756126.134   -14978891.975 9  -9263454.412 8
  20799877.499    20799879.656    -3258887.146 8   -225591.171 8
 86  6 11  0 57  5.0800000  0  4G 6G 8G 9G11
  20562818.760    20562819.076    -3169595.130 9   -279420.852 9
  23804807.406    23804809.677    14436702.101 8  13410863.831 8
  20753870.543    20753872.189   -14990739.673 8  -9272686.376 9
  20801227.261    20801228.645    -3251796.040 8   -220065.646 9
 86  6 11  0 57 11.0800000  0  4G 6G 8G 9G11
  20563835.113    20563835.714    -3164254.565 9   -275259.375 9
  23808986.520    23808988.269    14458667.664 8  13427979.847 8
  20751619.257    20751620.430   -15002572.201 9  -9281906.533 8
  20802580.591    20802582.684    -3244686.073 8   -214525.405 8
 86  6 11  0 57 17.0800000  0  4G 6G 8G 9G11
  20564855.288    20564855.446    -3158893.064 9   -271081.590 9
  23813166.692    23813169.965    14480636.559 8  13445098.455 8
  20749370.480    20749371.003   -15014389.518 9  -9291114.826 8
  20803937.330    20803939.617    -3237557.228 8   -208970.469 9
 86  6 11  0 57 23.0800000  0  4G 6G 8G 9G11
  20565879.409    20565880.498    -3153510.618 9   -266887.472 8
  23817348.211    23817350.123    14502608.745 8  13462219.630 8
  20747124.393    20747125.280   -15026191.494 9  -9300311.174 9
  20805296.815    20805299.334    -3230409.508 9   -203400.813 8
 86  6 11  0 57 29.0800000  0  4G 6G 8G 9G11
  20566907.711    20566907.897    -3148107.232 9   -262677.052 8
  23821530.265    23821532.128    14524584.217 7  13479343.368 8
  20744882.789    20744881.898   -15037978.314 8  -9309495.707 8
  20806660.525    20806663.618    -3223242.982 8   -197816.512 8
 86  6 11  0 57 35.0800000  0  4G 6G 8G 9G11
  20567939.519    20567940.964    -3142682.903 9   -258450.317 9
  23825712.298    23825713.662    14546562.962 8  13496469.655 8
  20742643.142    20742641.483   -15049749.816 8  -9318668.303 8
  20808027.733    20808030.308    -3216057.628 9   -192217.546 8
 86  6 11  0 57 41.0800000  0  4G 6G 8G 9G11
  20568976.792    20568977.521    -3137237.615 9   -254207.223 8
  23829894.718    23829898.198    14568544.889 8  13513598.421 7
  20740404.224    20740405.336   -15061506.080 8  -9327829.030 7
  20809398.888    20809401.847    -3208853.456 9   -186603.914 7
 86  6 11  0 57 47.0800000  0  4G 6G 8G 9G11
  20570015.854    20570016.884    -3131771.422 9   -249947.859 8
  23834080.348    23834081.848    14590530.039 8  13530729.691 8
  20738170.411    20738170.652   -15073246.933 9  -9336977.743 8
  20810772.868    20810774.277    -3201630.495 8   -180975.623 9
 86  6 11  0 57 53.0800000  0  4G 6G 8G 9G11
  20571060.539    20571059.453    -3126284.250 9   -245672.149 8
  23838264.035    23838265.176    14612518.342 8  13547863.433 8
  20735939.397    20735939.451   -15084972.602 9  -9346114.621 8
  20812151.898    20812153.323    -3194388.781 9   -175332.739 8
 86  6 11  0 57 59.0800000  0  4G 6G 8G 9G11
  20572109.074    20572108.515    -3120776.199 8   -241380.157 9
  23842447.965    23842450.458    14634509.770 8  13564999.603 8
  20733710.003    20733712.217   -15096682.869 8  -9355239.493 9
  20813533.329    20813535.911    -3187128.363 9   -169675.260 8
 86  6 11  0 58  5.0800000  0  4G 6G 8G 9G11
  20573160.513    20573161.471    -3115247.158 8   -237071.817 8
  23846634.368    23846634.516    14656504.374 8  13582138.234 9
  20731485.199    20731484.963   -15108377.820 9  -9364352.449 9
  20814918.651    20814920.583    -3179849.178 8   -164003.184 8
 86  6 11  0 58 11.0800000  0  4G 6G 8G 9G11
  20574217.133    20574217.776    -3109697.133 8   -232747.113 9
  23850820.138    23850821.486    14678502.133 9  13599279.345 8
  20729263.074    20729263.757   -15120057.371 9  -9373453.406 9
  20816307.692    20816309.815    -3172551.284 9   -158316.514 9
 86  6 11  0 58 17.0800000  0  4G 6G 8G 9G11
  20575276.785    20575277.715    -3104126.148 9   -228406.102 7
  23855006.268    23855007.989    14700502.959 8  13616422.831 9
  20727042.781    20727042.967   -15131721.441 9  -9382542.291 8
  20817699.128    20817701.672    -3165234.701 8   -152615.276 9
 86  6 11  0 58 23.0800000  0  4G 6G 8G 9G11
  20576340.702    20576342.719    -3098534.167 9   -224048.727 8
  23859194.634    23859195.940    14722506.854 9  13633568.729 9
  20724825.654    20724827.557   -15143370.139 9  -9391619.192 8
  20819095.431    20819097.807    -3157899.468 9   -146899.525 8
 86  6 11  0 58 29.0800000  0  4G 6G 8G 9G11
  20577409.655    20577410.242    -3092921.220 9   -219674.994 9
  23863380.867    23863383.532    14744513.833 8  13650717.004 8
  20722612.390    20722612.863   -15155003.273 9  -9400683.977 8
  20820494.708    20820497.111    -3150545.532 8   -141169.179 8
 86  6 11  0 58 35.0800000  0  4G 6G 8G 9G11
  20578481.313    20578482.229    -3087287.282 9   -215284.930 8
  23867569.331    23867572.012    14766523.787 8  13667867.617 9
  20720401.635    20720402.046   -15166620.937 8  -9409736.693 9
  20821897.609    20821900.842    -3143172.930 9   -135424.291 9
 86  6 11  0 58 41.0800000  0  4G 6G 8G 9G11
  20579557.522    20579558.595    -3081632.350 9   -210878.482 8
  23871758.155    23871760.455    14788536.786 9  13685020.584 8
  20718193.812    20718194.198   -15178223.151 9  -9418777.375 8
  20823304.438    20823305.308    -3135781.692 9   -129664.891 9
 86  6 11  0 58 47.0800000  0  4G 6G 8G 9G11
  20580638.080    20580638.681    -3075956.413 9   -206455.678 9
  23875947.944    23875950.108    14810552.755 9  13702175.867 8
  20715989.416    20715989.352   -15189809.870 9  -9427805.989 8
  20824714.366    20824716.624    -3128371.825 9   -123890.975 8
 86  6 11  0 58 53.0800000  0  4G 6G 8G 9G11
  20581722.188    20581722.058    -3070259.503 9   -202016.541 8
  23880138.820    23880139.953    14832571.697 9  13719333.477 9
  20713786.992    20713787.256   -15201380.925 8  -9436822.399 8
  20826127.578    20826129.180    -3120943.383 9   -118102.577 8
 86  6 11  0 58 59.0800000  0  4G 6G 8G 9G11
  20582809.227    20582810.616    -3064541.616 9   -197561.044 8
  23884330.097    23884330.666    14854593.623 9  13736493.411 9
  20711588.248    20711588.538   -15212936.472 9  -9445826.721 9
  20827544.813    20827546.723    -3113496.430 8   -112299.756 8
 86  6 11  0 59  5.0800000  0  4G 6G 8G 9G11
  20583901.592    20583902.550    -3058802.719 9   -193089.182 8
  23888520.908    23888521.599    14876618.406 9  13753655.576 9
  20709392.313    20709393.454   -15224476.426 9  -9454818.877 8
  20828964.461    20828967.731    -3106030.913 9   -106482.479 8
 86  6 11  0 59 11.0800000  0  4G 6G 8G 9G11
  20584998.492    20584997.546    -3053042.840 8   -188600.967 8
  23892712.328    23892713.984    14898646.110 9  13770820.015 9
  20707199.093    20707199.039   -15236000.782 9  -9463798.899 8
  20830389.502    20830391.791    -3098546.819 8   -100650.720 9
 86  6 11  0 59 17.0800000  0  4G 6G 8G 9G11
  20586097.882    20586098.153    -3047261.903 9   -184096.339 7
  23896904.828    23896905.891    14920676.704 9  13787986.701 8
  20705009.399    20705009.883   -15247509.481 9  -9472766.707 8
  20831817.981    20831818.866    -3091044.189 8    -94804.509 8
 86  6 11  0 59 23.0800000  0  4G 6G 8G 9G11
  20587202.636    20587203.281    -3041459.972 9   -179575.370 8
  23901097.994    23901098.978    14942710.178 9  13805155.637 9
  20702822.605    20702823.416   -15259002.485 9  -9481722.311 8
  20833249.137    20833251.355    -3083523.038 8    -88943.878 8
 86  6 11  0 59 29.0800000  0  4G 6G 8G 9G11
  20588310.153    20588310.439    -3035636.972 9   -175037.965 8
  23905291.196    23905293.067    14964746.501 9  13822326.785 8
  20700638.081    20700638.893   -15270479.791 9  -9490665.657 8
  20834682.975    20834685.392    -3075983.305 8    -83068.768 9
 86  6 11  0 59 35.0800000  0  4G 6G 8G 9G11
  20589422.521    20589423.293    -3029792.992 9   -170484.205 9
  23909484.783    23909486.339    14986785.598 9  13839500.107 9
  20698457.854    20698457.492   -15281941.464 9  -9499596.820 9
  20836121.392    20836124.550    -3068425.099 9    -77179.257 8
 86  6 11  0 59 41.0800000  0  4G 6G 8G 9G11
  20590538.423    20590538.781    -3023927.936 9   -165914.055 9
  23913678.965    23913681.644    15008827.492 9  13856675.586 9
  20696278.342    20696279.864   -15293387.359 9  -9508515.702 7
  20837563.825    20837565.970    -3060848.482 9    -71275.402 8
 86  6 11  0 59 47.0800000  0  4G 6G 8G 9G11
  20591659.175    20591659.877    -3018041.900 9   -161327.528 8
  23917874.556    23917875.948    15030872.147 8  13873853.233 9
  20694104.128    20694105.448   -15304817.416 9  -9517422.241 8
  20839008.939    20839012.796    -3053253.450 8    -65357.194 9
 86  6 11  0 59 53.0800000  0  4G 6G 8G 9G11
  20592783.034    20592783.435    -3012134.781 9   -156724.583 9
  23922069.433    23922071.861    15052919.531 9  13891033.003 9
  20691931.870    20691932.507   -15316231.793 9  -9526316.557 8
  20840457.284    20840458.930    -3045640.010 9    -59424.649 9
 86  6 11  0 59 59.0800000  0  4G 6G 8G 9G11
  20593911.300    20593911.972    -3006206.640 9   -152105.257 8
  23926265.967    23926267.109    15074969.702 9  13908214.938 8
  20689762.319    20689763.860   -15327630.401 9  -9535198.589 8
  20841910.561    20841912.418    -3038008.190 9    -53477.781 8
 86  6 11  1  0  5.0800000  0  4G 6G 8G 9G11
  20595043.314    20595043.801    -3000257.452 9   -147469.523 8
  23930463.046    23930464.968    15097022.530 9  13925398.954 9
  20687596.600    20687597.122   -15339013.129 9  -9544068.248 8
  20843365.656    20843367.974    -3030358.010 9    -47516.603 8
 86  6 11  1  0 11.0800000  0  4G 6G 8G 9G11
  20596179.105    20596179.693    -2994287.229 9   -142817.406 9
  23934659.302    23934660.609    15119078.022 9  13942585.036 9
  20685433.408    20685433.315   -15350380.014 9  -9552925.550 8
  20844823.781    20844827.064    -3022689.474 8    -41541.115 8
 86  6 11  1  0 17.0800000  0  4G 6G 8G 9G11
  20597319.005    20597319.735    -2988295.960 9   -138148.897 8
  23938856.925    23938858.975    15141136.212 8  13959773.240 9
  20683273.567    20683272.553   -15361731.077 8  -9561770.538 9
  20846288.740    20846289.403    -3015002.548 8    -35551.316 9
 86  6 11  1  0 23.0800000  0  4G 6G 8G 9G11
  20598463.067    20598463.210    -2982283.611 9   -133463.951 7
  23943055.665    23943057.529    15163197.037 9  13976963.484 9
  20681116.053    20681117.197   -15373066.340 9  -9570603.208 8
  20847753.934    20847756.391    -3007297.284 8    -29547.211 8
 86  6 11  1  0 29.0800000  0  4G 6G 8G 9G11
  20599611.623    20599612.181    -2976250.179 9   -128762.579 9
  23947253.674    23947255.309    15185260.457 9  13994155.752 9
  20678962.226    20678962.584   -15384385.518 8  -9579423.353 8
  20849223.431    20849226.883    -2999573.678 7    -23528.818 9
 86  6 11  1  0 35.0800000  0  4G 6G 8G 9G11
  20600763.541    20600764.529    -2970195.693 9   -124044.794 8
  23951452.586    23951454.500    15207326.488 9  14011350.051 9
  20676811.274    20676812.474   -15395688.880 8  -9588231.159 7
  20850697.306    20850699.764    -2991831.763 9    -17496.166 9
 86  6 11  1  0 41.0800000  0  4G 6G 8G 9G11
  20601919.424    20601920.711    -2964120.165 9   -119310.619 7
  23955651.410    23955654.326    15229395.071 9  14028546.334 9
  20674663.959    20674663.136   -15406976.338 9  -9597026.576 9
  20852173.956    20852176.228    -2984071.584 9    -11449.279 8
 86  6 11  1  0 47.0800000  0  4G 6G 8G 9G11
  20603079.927    20603080.986    -2958023.553 9   -114560.014 8
  23959852.209    23959854.367    15251466.243 9  14045744.648 9
  20672519.025    20672519.718   -15418247.751 9  -9605809.503 8
  20853652.988    20853656.207    -2976293.132 9     -5388.146 8
 86  6 11  1  0 53.0800000  0  4G 6G 8G 9G11
  20604244.222    20604244.037    -2951905.845 9   -109792.968 8
  23964051.779    23964054.443    15273539.892 9  14062944.883 9
  20670376.653    20670376.252   -15429503.119 8  -9614579.923 8
  20855137.044    20855139.923    -2968496.419 9       687.211 9
 86  6 11  1  0 59.0800000  0  4G 6G 8G 9G11
  20605411.266    20605412.811    -2945767.100 9   -105009.541 7
  23968253.587    23968254.758    15295616.073 9  14080147.089 9
  20668237.693    20668238.188   -15440742.534 9  -9623337.901 7
  20856624.716    20856626.469    -2960681.510 9      6776.746 9
 86  6 11  1  1  5.0800000  0  4G 6G 8G 9G11
  20606583.661    20606585.851    -2939607.216 9   -100209.648 7
  23972455.052    23972457.002    15317694.759 9  14097351.249 8
  20666102.053    20666102.285   -15451965.971 8  -9632083.436 8
  20858114.836    20858117.873    -2952848.335 8     12880.511 8
 86  6 11  1  1 11.0800000  0  4G 6G 8G 9G11
  20607760.406    20607761.351    -2933426.240 8    -95393.291 8
  23976656.431    23976658.889    15339775.902 9  14114557.323 8
  20663969.286    20663970.688   -15463173.257 8  -9640816.381 7
  20859609.689    20859611.685    -2944996.938 9     18998.488 8
 86  6 11  1  1 17.0800000  0  4G 6G 8G 9G11
  20608940.414    20608940.829    -2927224.162 8    -90560.507 8
  23980858.740    23980861.005    15361859.514 9  14131765.319 8
  20661839.362    20661841.219   -15474364.468 9  -9649536.807 7
  20861107.982    20861109.188    -2937127.386 8     25130.605 9
 86  6 11  1  1 23.0800000  0  4G 6G 8G 9G11
  20610124.285    20610125.916    -2921001.023 9    -85711.313 9
  23985062.681    23985064.230    15383945.530 9  14148975.203 9
  20659713.271    20659713.828   -15485539.639 9  -9658244.723 8
  20862608.506    20862611.041    -2929239.626 9     31276.898 8
 86  6 11  1  1 29.0800000  0  4G 6G 8G 9G11
  20611313.292    20611314.895    -2914756.761 9    -80845.661 8
  23989265.326    23989267.269    15406033.949 9  14166186.946 9
  20657589.446    20657590.277   -15496698.686 8  -9666940.088 9
  20864112.516    20864114.094    -2921333.731 8     37437.339 9
 86  6 11  1  1 35.0800000  0  4G 6G 8G 9G11
  20612506.049    20612506.536    -2908491.345 9    -75963.526 9
  23993469.066    23993471.918    15428124.799 9  14183400.582 8
  20655469.053    20655469.880   -15507841.460 9  -9675622.767 8
  20865619.778    20865622.100    -2913409.685 9     43611.912 8
 86  6 11  1  1 41.0800000  0  4G 6G 8G 9G11
  20613701.383    20613702.440    -2902204.933 9    -71065.020 8
  23997673.607    23997674.792    15450217.944 9  14200616.008 9
  20653352.451    20653353.109   -15518968.149 9  -9684292.916 8
  20867130.804    20867133.511    -2905467.562 8     49800.583 9
 86  6 11  1  1 47.0800000  0  4G 6G 8G 9G11
  20614901.937    20614903.039    -2895897.339 9    -66150.018 8
  24001878.106    24001880.629    15472313.405 9  14217833.247 9
  20651238.086    20651237.635   -15530078.657 9  -9692950.448 8
  20868646.634    20868648.229    -2897507.356 8     56003.335 8
 86  6 11  1  1 53.0800000  0  4G 6G 8G 9G11
  20616106.055    20616107.672    -2889568.667 9    -61218.583 9
  24006082.298    24006085.492    15494411.229 9  14235052.324 8
  20649126.216    20649126.632   -15541173.006 9  -9701595.393 9
  20870164.642    20870167.253    -2889529.072 8     62220.174 9
 86  6 11  1  1 59.0800000  0  4G 6G 8G 9G11
  20617315.310    20617315.053    -2883218.873 9    -56270.692 8
  24010288.320    24010290.219    15516511.362 9  14252273.196 9
  20647019.020    20647019.117   -15552251.070 9  -9710227.646 8
  20871687.231    20871690.037    -2881532.729 8     68451.080 8
 86  6 11  1  2  5.0800000  0  4G 6G 8G 9G11
  20618527.742    20618527.815    -2876847.972 9    -51306.361 9
  24014494.615    24014496.278    15538613.745 9  14269495.824 9
  20644914.338    20644914.932   -15563312.893 8  -9718847.254 8
  20873211.623    20873214.076    -2873518.405 9     74696.009 8
 86  6 11  1  2 11.0800000  0  4G 6G 8G 9G11
  20619742.650    20619743.867    -2870455.925 9    -46325.542 7
  24018701.360    24018702.530    15560718.372 9  14286720.203 9
  20642811.677    20642813.669   -15574358.424 8  -9727454.157 7
  20874740.385    20874741.962    -2865486.103 8     80954.955 9
 86  6 11  1  2 17.0800000  0  4G 6G 8G 9G11
  20620963.568    20620964.384    -2864042.798 9    -41328.303 8
  24022908.026    24022910.234    15582825.233 9  14303946.313 9
  20640713.113    20640714.840   -15585387.635 9  -9736048.341 8
  20876272.316    20876273.786    -2857435.871 8     87227.850 9
 86  6 11  1  2 23.0800000  0  4G 6G 8G 9G11
  20622188.950    20622188.993    -2857608.518 9    -36314.568 8
  24027114.792    24027116.627    15604934.331 9  14321174.176 9
  20638617.105    20638617.456   -15596400.521 9  -9744629.809 9
  20877807.696    20877809.731    -2849367.662 8     93514.775 9
 86  6 11  1  2 29.0800000  0  4G 6G 8G 9G11
  20623415.834    20623418.438    -2851153.114 9    -31284.400 8
  24031321.380    24031324.159    15627045.582 9  14338403.714 9
  20636525.094    20636525.850   -15607397.034 9  -9753198.524 8
  20879344.878    20879348.449    -2841281.454 8     99815.711 8
 86  6 11  1  2 35.0800000  0  4G 6G 8G 9G11
  20624648.628    20624650.230    -2844676.578 9    -26237.742 8
  24035530.193    24035532.686    15649159.035 9  14355634.977 9
  20634436.367    20634436.567   -15618377.291 9  -9761754.569 7
  20880887.366    20880890.002    -2833177.259 9    106130.668 8
 86  6 11  1  2 41.0800000  0  4G 6G 8G 9G11
  20625885.371    20625887.317    -2838178.832 9    -21174.572 9
  24039739.735    24039741.563    15671274.628 9  14372867.891 9
  20632349.032    20632349.020   -15629341.089 9  -9770297.787 8
  20882433.503    20882435.842    -2825055.147 9    112459.586 8
 86  6 11  1  2 47.0800000  0  4G 6G 8G 9G11
  20627125.204    20627127.639    -2831659.984 9    -16094.961 8
  24043947.725    24043949.481    15693392.353 9  14390102.473 9
  20630265.312    20630266.754   -15640288.465 9  -9778828.213 8
  20883982.506    20883985.749    -2816915.145 9    118802.436 8
 86  6 11  1  2 53.0800000  0  4G 6G 8G 9G11
  20628369.948    20628370.591    -2825119.984 9    -10998.857 7
  24048157.855    24048159.067    15715512.172 9  14407338.690 8
  20628185.521    20628187.039   -15651219.474 9  -9787345.870 8
  20885535.288    20885536.802    -2808757.211 9    125159.265 9
 86  6 11  1  2 59.0800000  0  4G 6G 8G 9G11
  20629619.683    20629619.840    -2818558.907 9     -5886.338 8
  24052366.953    24052369.224    15737634.069 9  14424576.517 8
  20626109.121    20626109.519   -15662134.036 9  -9795850.722 8
  20887090.934    20887092.860    -2800581.422 9    131530.008 9
 86  6 11  1  3  5.0800000  0  4G 6G 8G 9G11
  20630871.495    20630873.212    -2811976.681 9      -757.324 8
  24056576.596    24056578.954    15759757.991 8  14441815.933 9
  20624035.161    20624036.550   -15673032.142 9  -9804342.756 7
  20888650.241    20888653.064    -2792387.802 8    137914.635 8
 86  6 11  1  3 11.0800000  0  4G 6G 8G 9G11
  20632127.969    20632129.215    -2805373.305 9      4388.157 9
  24060787.691    24060789.104    15781883.947 9  14459056.928 9
  20621964.946    20621965.826   -15683913.740 9  -9812821.927 8
  20890212.891    20890215.674    -2784176.355 8    144313.171 9
 86  6 11  1  3 17.0800000  0  4G 6G 8G 9G11
  20633388.725    20633388.711    -2798748.710 9      9550.179 8
  24064998.286    24065000.178    15804011.962 9  14476299.526 8
  20619897.235    20619896.872   -15694778.729 9  -9821288.135 8
  20891778.363    20891780.789    -2775947.032 8    150725.618 9
 86  6 11  1  3 23.0800000  0  4G 6G 8G 9G11
  20634653.785    20634654.443    -2792102.991 9     14728.665 8
  24069209.281    24069212.339    15826141.977 8  14493543.680 9
  20617832.438    20617832.767   -15705627.240 9  -9829741.530 8
  20893347.555    20893349.892    -2767699.923 9    157151.941 8
 86  6 11  1  3 29.0800000  0  4G 6G 8G 9G11
  20635922.482    20635923.526    -2785436.048 9     19923.682 8
  24073421.399    24073422.647    15848274.012 9  14510789.413 9
  20615770.965    20615771.488   -15716459.156 9  -9838181.987 9
  20894921.073    20894922.930    -2759435.019 9    163592.127 9
 86  6 11  1  3 35.0800000  0  4G 6G 8G 9G11
  20637194.881    20637196.042    -2778747.955 9     25135.177 8
  24077632.980    24077635.224    15870407.997 9  14528036.663 9
  20613713.218    20613714.015   -15727274.414 9  -9846609.452 8
  20896496.687    20896499.098    -2751152.315 9    170046.177 8
 86  6 11  1  3 41.0800000  0  4G 6G 8G 9G11
  20638471.949    20638472.994    -2772038.737 9     30363.144 8
  24081844.583    24081847.506    15892543.924 8  14545285.436 9
  20611658.086    20611658.572   -15738073.115 9  -9855024.025 8
  20898075.819    20898079.101    -2742851.886 9    176514.046 8
 86  6 11  1  3 47.0800000  0  4G 6G 8G 9G11
  20639752.351    20639752.808    -2765308.322 9     35607.612 8
  24086058.361    24086061.056    15914681.760 9  14562535.674 8
  20609606.473    20609607.159   -15748855.206 9  -9863425.659 8
  20899659.430    20899661.904    -2734533.734 8    182995.716 8
 86  6 11  1  3 53.0800000  0  4G 6G 8G 9G11
  20641037.215    20641037.658    -2758556.687 9     40868.622 9
  24090270.315    24090273.652    15936821.457 9  14579787.379 8
  20607557.747    20607558.766   -15759620.745 9  -9871814.385 8
  20901245.674    20901248.637    -2726197.884 9    189491.181 9
 86  6 11  1  3 59.0800000  0  4G 6G 8G 9G11
  20642326.531    20642327.174    -2751783.965 9     46146.074 8
  24094484.329    24094486.494    15958963.013 8  14597040.540 9
  20605512.805    20605512.999   -15770369.525 9  -9880190.053 8
  20902835.265    20902837.210    -2717844.323 9    196000.451 9
 86  6 11  1  4  5.0800000  0  4G 6G 8G 9G11
  20643617.993    20643620.468    -2744990.093 9     51439.992 8
  24098698.085    24098701.344    15981106.429 9  14614295.127 9
  20603470.038    20603470.465   -15781101.643 9  -9888552.741 9
  20904428.507    20904430.343    -2709473.081 9    202523.490 8
 86  6 11  1  4 11.0800000  0  4G 6G 8G 9G11
  20644915.450    20644916.709    -2738175.026 9     56750.434 8
  24102911.900    24102914.271    16003251.634 8  14631551.125 9
  20601431.551    20601431.036   -15791817.051 8  -9896902.409 8
  20906024.841    20906026.980    -2701084.200 8    209060.275 8
 86  6 11  1  4 17.0800000  0  4G 6G 8G 9G11
  20646216.685    20646216.527    -2731338.743 9     62077.416 8
  24107127.266    24107128.722    16025398.700 7  14648808.570 9
  20599394.778    20599396.012   -15802515.707 9  -9905239.019 8
  20907624.723    20907627.280    -2692677.703 8    215610.791 9
 86  6 11  1  4 23.0800000  0  4G 6G 8G 9G11
  20647522.398    20647522.698    -2724481.249 9     67420.907 7
  24111341.474    24111343.738    16047547.579 8  14666067.422 9
  20597362.600    20597363.258   -15813197.635 9  -9913562.606 8
  20909227.324    20909229.809    -2684253.553 9    222175.066 9
 86  6 11  1  4 29.0800000  0  4G 6G 8G 9G11
  20648831.016    20648830.215    -2717602.594 9     72780.895 8
  24115555.917    24115558.439    16069698.248 9  14683327.672 8
  20595333.402    20595332.801   -15823862.714 9  -9921873.052 8
  20910833.463    20910835.659    -2675811.743 9    228753.100 8
 86  6 11  1  4 35.0800000  0  4G 6G 8G 9G11
  20650143.741    20650144.543    -2710702.745 9     78157.390 9
  24119770.139    24119774.221    16091850.665 8  14700589.276 9
  20593306.488    20593306.656   -15834510.984 9  -9930170.406 8
  20912443.128    20912446.179    -2667352.328 9    235344.848 9
 86  6 11  1  4 41.0800000  0  4G 6G 8G 9G11
  20651459.371    20651461.303    -2703781.676 9     83550.442 9
  24123986.950    24123990.216    16114004.746 8  14717852.197 9
  20591283.021    20591284.291   -15845142.495 9  -9938454.702 8
  20914056.903    20914059.226    -2658875.413 9    241950.232 9
 86  6 11  1  4 47.0800000  0  4G 6G 8G 9G11
  20652781.512    20652781.498    -2696839.442 9     88959.966 8
  24128203.461    24128205.596    16136160.524 8  14735116.430 8
  20589263.774    20589264.755   -15855757.095 9  -9946725.814 8
  20915673.264    20915675.675    -2650380.981 8    248569.263 8
 86  6 11  1  4 53.0800000  0  4G 6G 8G 9G11
  20654106.887    20654107.472    -2689876.041 9     94385.992 8
  24132419.823    24132422.359    16158318.027 8  14752382.013 9
  20587247.435    20587246.730   -15866354.884 9  -9954983.838 8
  20917293.211    20917295.271    -2641869.016 9    255201.960 9
 86  6 11  1  4 59.0800000  0  4G 6G 8G 9G11
  20655435.523    20655437.198    -2682891.439 9     99828.539 8
  24136636.019    24136639.671    16180477.213 8  14769648.889 8
  20585233.960    20585233.359   -15876935.836 9  -9963228.731 9
  20918916.534    20918918.920    -2633339.503 9    261848.321 8
 86  6 11  1  5  5.0800000  0  4G 6G 8G 9G11
  20656768.710    20656769.899    -2675885.600 9    105287.621 8
  24140853.703    24140857.083    16202638.031 8  14786917.052 8
  20583222.823    20583223.443   -15887499.861 9  -9971460.435 8
  20920542.538    20920545.814    -2624792.462 8    268508.359 9
 86  6 11  1  5 11.0800000  0  4G 6G 8G 9G11
  20658105.747    20658106.979    -2668858.544 9    110763.250 8
  24145071.516    24145074.868    16224800.505 7  14804186.494 8
  20581216.121    20581215.838   -15898046.871 9  -9979678.891 7
  20922172.269    20922175.259    -2616227.921 9    275182.029 8
 86  6 11  1  5 17.0800000  0  4G 6G 8G 9G11
  20659447.048    20659448.149    -2661810.321 9    116255.366 8
  24149289.049    24149291.623    16246964.550 7  14821457.157 9
  20579213.037    20579212.773   -15908576.955 9  -9987884.157 8
  20923806.285    20923807.720    -2607645.926 9    281869.291 9
 86  6 11  1  5 23.0800000  0  4G 6G 8G 9G11
  20660793.456    20660793.786    -2654740.800 9    121764.087 8
  24153505.870    24153509.558    16269130.175 7  14838729.065 8
  20577212.097    20577211.623   -15919090.002 9  -9996076.137 8
  20925441.966    20925443.572    -2599046.537 9    288570.116 9
 86  6 11  1  5 29.0800000  0  4G 6G 8G 9G11
  20662142.141    20662143.372    -2647650.107 9    127289.311 8
  24157724.433    24157728.372    16291297.366 7  14856002.188 9
  20575213.858    20575215.528   -15929586.036 9 -10004254.864 8
  20927082.031    20927083.577    -2590429.740 8    295284.502 8
 86  6 11  1  5 35.0800000  0  4G 6G 8G 9G11
  20663494.931    20663495.790    -2640538.198 9    132831.039 9
  24161944.607    24161946.287    16313466.111 8  14873276.533 8
  20573219.876    20573220.565   -15940065.082 9 -10012420.354 9
  20928724.455    20928727.227    -2581795.519 9    302012.466 8
 86  6 11  1  5 41.0800000  0  4G 6G 8G 9G11
  20664852.616    20664854.161    -2633405.046 9    138389.341 8
  24166162.322    24166166.131    16335636.418 8  14890552.077 8
  20571228.873    20571229.864   -15950527.151 9 -10020572.609 8
  20930370.752    20930373.135    -2573143.916 9    308753.975 8
